GFSGL_500_temp_000.txt.gz
Temp
-9 -9 -8 -8 -8 -8 -9 -9 -9 -8 -8 -8 -8 -8 -8 -8 -8 -8 -8 -7 -8 -8 -8 -8 -8 -8 -8 -8 -8 -8 -8 -9 -9 -9 -9 -9 -9 -9 -8 -9 -9 -9 -9
-9 -9 -9 -9 -8 -8 -8 -9 -9 -8 -8 -8 -8 -8 -8 -8 -8 -8 -8 -8 -8 -7 -8 -8 -8 -8 -7 -8 -8 -8 -8 -9 -9 -9 -8 -9 -9 -9 -8 -9 -9 -9 -9
-9 -9 -9 -8 -9 -8 -8 -8 -9 -9 -8 -8 -8 -8 -8 -8 -9 -9 -8 -8 -8 -8 -8 -8 -8 -8 -8 -8 -8 -8 -8 -8 -8 -9 -9 -9 -9 -9 -9 -9 -9 -9 -10
-9 -9 -9 -8 -8 -8 -9 -9 -8 -8 -8 -9 -8 -8 -8 -8 -8 -8 -8 -9 -8 -8 -8 -8 -8 -8 -8 -8 -8 -8 -9 -9 -9 -9 -9 -9 -9 -9 -9 -9 -9 -10 -10
-9 -9 -9 -9 -8 -8 -9 -9 -9 -9 -8 -8 -8 -8 -9 -8 -8 -8 -8 -8 -8 -8 -8 -8 -8 -8 -8 -8 -9 -9 -9 -9 -9 -9 -9 -10 -10 -10 -10 -10 -10 -10 -10
-9 -9 -9 -9 -8 -8 -8 -9 -9 -9 -9 -9 -9 -9 -8 -8 -9 -9 -9 -8 -8 -9 -9 -9 -9 -9 -9 -9 -9 -9 -9 -9 -9 -10 -10 -10 -10 -10 -10 -10 -11 -11 -11
-9 -8 -9 -8 -8 -8 -8 -8 -9 -9 -9 -9 -9 -9 -8 -8 -8 -8 -9 -8 -8 -9 -9 -9 -9 -9 -9 -9 -9 -9 -9 -10 -10 -10 -10 -10 -10 -11 -10 -11 -11 -11 -11
-8 -8 -8 -8 -8 -8 -9 -8 -9 -9 -9 -9 -9 -8 -8 -9 -9 -9 -9 -9 -9 -9 -9 -8 -8 -8 -9 -10 -9 -9 -10 -10 -10 -10 -10 -10 -10 -11 -11 -11 -11 -11 -11
-8 -8 -8 -8 -8 -8 -8 -8 -8 -9 -9 -9 -8 -9 -9 -9 -9 -9 -9 -9 -9 -10 -10 -10 -10 -10 -10 -10 -10 -11 -11 -11 -11 -11 -11 -11 -11 -11 -11 -11 -11 -12 -12
-7 -8 -8 -8 -8 -8 -8 -8 -8 -8 -9 -9 -9 -9 -9 -9 -10 -10 -10 -10 -10 -10 -10 -10 -11 -11 -11 -11 -11 -11 -11 -11 -11 -11 -10 -11 -11 -11 -12 -11 -12 -12 -12
-8 -8 -8 -8 -8 -8 -8 -9 -9 -9 -9 -9 -10 -10 -10 -11 -11 -10 -10 -10 -10 -10 -10 -11 -11 -11 -11 -11 -11 -11 -12 -11 -11 -11 -11 -11 -12 -12 -12 -12 -13 -13 -13
-8 -8 -8 -8 -9 -10 -10 -10 -9 -9 -10 -10 -10 -10 -10 -11 -11 -11 -10 -10 -11 -11 -11 -12 -12 -12 -12 -12 -12 -12 -12 -12 -12 -12 -12 -11 -12 -13 -12 -12 -13 -12 -13
-7 -7 -8 -9 -9 -9 -10 -10 -10 -10 -10 -11 -10 -10 -11 -11 -11 -11 -11 -11 -11 -12 -12 -12 -12 -12 -12 -12 -12 -12 -13 -12 -13 -13 -13 -12 -13 -13 -13 -13 -14 -14 -15
-8 -8 -8 -9 -9 -9 -9 -10 -10 -11 -11 -11 -11 -11 -11 -11 -11 -12 -11 -11 -11 -11 -11 -12 -12 -12 -13 -13 -13 -13 -13 -13 -14 -13 -13 -13 -13 -13 -13 -14 -14 -14 -14
-8 -8 -8 -9 -9 -10 -10 -10 -10 -11 -11 -11 -11 -11 -11 -12 -12 -12 -12 -12 -12 -12 -12 -13 -13 -13 -13 -13 -13 -13 -13 -13 -13 -13 -13 -13 -13 -13 -13 -14 -14 -14 -14
-8 -9 -9 -10 -10 -11 -11 -11 -11 -11 -12 -12 -12 -12 -12 -12 -12 -12 -13 -13 -12 -13 -13 -13 -12 -12 -13 -13 -13 -13 -13 -13 -13 -13 -13 -13 -14 -14 -14 -14 -14 -15 -15
-9 -10 -10 -10 -11 -11 -12 -12 -12 -12 -12 -12 -13 -13 -13 -13 -13 -13 -13 -13 -13 -13 -13 -13 -13 -13 -13 -13 -13 -13 -13 -13 -13 -14 -14 -14 -14 -15 -15 -15 -16 -16 -17
-10 -11 -11 -11 -12 -12 -12 -12 -13 -13 -13 -13 -13 -13 -13 -13 -13 -13 -13 -13 -13 -13 -13 -13 -13 -13 -13 -14 -14 -14 -14 -15 -15 -16 -16 -16 -16 -17 -17 -17 -18 -18 -18
-12 -12 -12 -13 -13 -13 -13 -13 -13 -13 -13 -13 -13 -13 -13 -13 -13 -13 -13 -13 -14 -14 -14 -14 -14 -14 -14 -15 -15 -16 -17 -17 -18 -18 -18 -18 -18 -18 -18 -19 -19 -20 -20
-13 -13 -13 -14 -14 -14 -13 -13 -13 -13 -13 -13 -13 -14 -13 -14 -14 -14 -14 -14 -14 -14 -14 -14 -14 -15 -16 -17 -18 -18 -18 -18 -19 -20 -20 -20 -20 -20 -21 -21 -22 -22 -22
-13 -14 -14 -14 -14 -14 -14 -14 -14 -14 -14 -14 -14 -14 -14 -14 -14 -14 -14 -14 -15 -15 -15 -16 -16 -17 -18 -19 -19 -20 -20 -21 -21 -22 -23 -23 -24 -24 -24 -25 -24 -24 -23
-14 -14 -14 -14 -14 -14 -15 -15 -15 -14 -14 -14 -14 -15 -14 -14 -14 -15 -15 -15 -16 -17 -18 -19 -19 -19 -19 -20 -20 -21 -21 -21 -23 -23 -24 -24 -24 -25 -25 -25 -24 -24 -24
-15 -15 -15 -15 -15 -15 -15 -14 -14 -14 -15 -15 -15 -15 -15 -15 -15 -16 -17 -18 -18 -19 -19 -20 -20 -20 -20 -20 -21 -22 -22 -22 -23 -23 -24 -24 -24 -25 -25 -25 -24 -23 -23
-15 -15 -15 -15 -15 -14 -15 -15 -15 -15 -15 -15 -15 -15 -15 -16 -17 -18 -19 -19 -20 -20 -20 -20 -20 -20 -21 -22 -22 -22 -22 -22 -23 -23 -24 -24 -24 -24 -24 -24 -23 -23 -23
-16 -15 -15 -14 -15 -15 -15 -15 -15 -15 -15 -15 -15 -16 -17 -18 -19 -20 -20 -20 -20 -21 -21 -21 -21 -21 -22 -23 -23 -22 -22 -22 -23 -23 -23 -23 -24 -24 -24 -24 -24 -24 -25
-16 -15 -15 -15 -15 -15 -15 -15 -15 -15 -15 -16 -17 -18 -19 -20 -20 -20 -20 -21 -21 -21 -21 -21 -21 -22 -22 -23 -23 -23 -23 -23 -24 -24 -24 -24 -24 -24 -24 -25 -25 -24 -24

GFSGL_500_temp_003.txt.gz
Temp
-10 -9 -9 -9 -9 -9 -8 -8 -8 -8 -8 -8 -8 -8 -8 -8 -8 -8 -8 -8 -8 -8 -8 -8 -8 -8 -8 -8 -8 -8 -8 -8 -8 -8 -8 -9 -8 -8 -8 -9 -9 -9 -9
-9 -9 -9 -9 -8 -8 -8 -8 -8 -8 -8 -8 -8 -8 -8 -8 -8 -8 -8 -8 -8 -8 -8 -8 -8 -8 -8 -8 -8 -8 -8 -8 -8 -8 -8 -9 -9 -9 -9 -9 -9 -9 -9
-9 -9 -9 -9 -9 -8 -9 -8 -8 -8 -8 -8 -8 -8 -8 -8 -8 -8 -8 -8 -8 -8 -8 -8 -8 -8 -8 -8 -8 -8 -8 -8 -8 -9 -9 -9 -9 -9 -9 -9 -9 -9 -10
-9 -9 -9 -9 -9 -9 -8 -8 -8 -8 -8 -8 -8 -8 -8 -8 -8 -8 -8 -8 -8 -8 -9 -8 -8 -8 -8 -8 -8 -8 -8 -8 -9 -9 -9 -9 -9 -9 -9 -9 -9 -9 -10
-9 -9 -9 -9 -8 -9 -9 -8 -8 -8 -8 -8 -8 -8 -8 -8 -9 -8 -8 -8 -8 -8 -8 -8 -8 -8 -8 -8 -8 -8 -9 -9 -9 -9 -9 -9 -9 -10 -9 -9 -10 -9 -10
-9 -9 -9 -8 -8 -8 -8 -8 -8 -9 -9 -8 -8 -8 -8 -8 -8 -8 -8 -8 -8 -8 -8 -8 -8 -9 -9 -9 -9 -9 -9 -9 -9 -9 -9 -9 -10 -10 -10 -10 -10 -10 -10
-9 -8 -8 -8 -7 -8 -8 -8 -8 -8 -8 -8 -8 -8 -7 -7 -8 -8 -8 -8 -8 -8 -8 -8 -9 -9 -9 -9 -9 -9 -9 -10 -10 -10 -10 -10 -10 -10 -10 -10 -10 -11 -11
-8 -8 -8 -8 -7 -8 -8 -8 -8 -7 -7 -8 -8 -8 -8 -8 -8 -9 -9 -9 -9 -9 -9 -9 -9 -9 -9 -9 -9 -9 -10 -10 -10 -10 -10 -10 -11 -11 -11 -11 -11 -11 -12
-8 -8 -8 -8 -7 -8 -7 -7 -8 -8 -8 -8 -8 -9 -9 -9 -9 -9 -9 -9 -9 -9 -9 -9 -9 -10 -10 -10 -10 -10 -10 -10 -10 -11 -11 -11 -11 -12 -12 -12 -12 -11 -12
-8 -7 -7 -7 -8 -8 -8 -8 -8 -8 -9 -9 -9 -9 -9 -9 -9 -9 -10 -10 -10 -10 -10 -10 -10 -11 -11 -11 -11 -12 -11 -12 -12 -11 -11 -12 -12 -12 -12 -12 -12 -12 -12
-8 -7 -7 -7 -7 -7 -7 -8 -8 -8 -9 -9 -9 -9 -9 -9 -10 -10 -10 -10 -10 -10 -10 -10 -11 -11 -11 -12 -12 -12 -12 -12 -12 -12 -12 -12 -12 -12 -13 -13 -12 -13 -13
-8 -7 -7 -7 -7 -7 -8 -8 -8 -9 -9 -9 -9 -10 -10 -10 -10 -10 -10 -10 -10 -10 -11 -10 -11 -12 -12 -12 -12 -12 -12 -12 -13 -12 -13 -13 -13 -12 -13 -13 -13 -13 -13
-8 -8 -8 -8 -8 -8 -9 -9 -9 -9 -10 -10 -10 -10 -10 -11 -11 -11 -11 -11 -10 -11 -12 -12 -12 -12 -12 -12 -12 -13 -13 -12 -12 -12 -12 -12 -13 -13 -13 -13 -13 -13 -13
-8 -8 -8 -8 -8 -9 -9 -9 -9 -9 -9 -10 -11 -11 -11 -11 -12 -12 -11 -11 -11 -12 -12 -12 -12 -13 -12 -13 -13 -13 -13 -13 -13 -13 -13 -13 -13 -13 -13 -13 -13 -14 -14
-9 -9 -9 -9 -9 -9 -9 -10 -10 -10 -10 -11 -11 -12 -12 -12 -12 -12 -12 -13 -12 -13 -12 -12 -12 -12 -13 -13 -13 -13 -13 -13 -13 -13 -13 -13 -13 -13 -13 -13 -13 -13 -14
-9 -9 -9 -9 -9 -10 -10 -10 -10 -11 -11 -11 -11 -12 -12 -12 -13 -13 -13 -13 -13 -13 -13 -13 -13 -13 -13 -13 -13 -13 -13 -13 -13 -13 -13 -13 -13 -13 -13 -14 -14 -14 -15
-9 -9 -9 -10 -10 -11 -11 -11 -12 -12 -12 -12 -13 -13 -13 -13 -13 -13 -13 -13 -13 -13 -13 -13 -13 -13 -13 -13 -13 -13 -14 -14 -14 -14 -14 -15 -15 -15 -15 -15 -15 -16 -16
-10 -10 -11 -11 -11 -11 -12 -12 -12 -13 -13 -13 -13 -13 -13 -13 -13 -13 -13 -13 -13 -13 -14 -14 -14 -14 -14 -14 -14 -14 -15 -15 -16 -17 -17 -17 -18 -18 -18 -19 -19 -19 -19
-11 -11 -12 -12 -12 -12 -13 -13 -13 -13 -13 -13 -13 -13 -13 -13 -13 -14 -14 -14 -14 -14 -14 -14 -14 -14 -15 -15 -15 -16 -17 -17 -18 -19 -18 -19 -19 -20 -20 -21 -21 -21 -21
-12 -12 -13 -13 -13 -14 -14 -14 -13 -14 -14 -13 -14 -14 -14 -14 -14 -14 -14 -14 -14 -14 -14 -14 -15 -16 -17 -17 -17 -18 -18 -19 -19 -20 -20 -21 -21 -22 -23 -23 -24 -25 -25
-13 -14 -13 -14 -14 -14 -14 -14 -14 -14 -14 -14 -14 -14 -14 -14 -14 -14 -15 -15 -15 -15 -15 -15 -16 -17 -18 -19 -19 -19 -19 -20 -20 -21 -21 -22 -23 -23 -24 -24 -24 -25 -26
-14 -14 -15 -15 -14 -15 -15 -14 -14 -14 -14 -14 -14 -14 -14 -14 -15 -14 -15 -15 -15 -16 -17 -18 -18 -19 -19 -19 -20 -20 -20 -21 -22 -22 -22 -22 -23 -23 -23 -24 -25 -25 -25
-13 -15 -17 -17 -16 -15 -15 -14 -14 -14 -14 -14 -14 -15 -15 -15 -15 -15 -15 -16 -17 -18 -19 -20 -20 -20 -20 -20 -20 -21 -21 -22 -22 -22 -22 -22 -22 -23 -23 -23 -24 -25 -25
-15 -16 -17 -17 -16 -16 -15 -14 -14 -14 -15 -15 -15 -15 -15 -15 -15 -16 -17 -18 -19 -20 -20 -20 -20 -21 -21 -21 -21 -21 -22 -22 -22 -22 -22 -22 -22 -22 -23 -23 -24 -24 -24
-17 -17 -16 -16 -15 -15 -15 -15 -15 -15 -15 -15 -15 -15 -15 -16 -17 -18 -19 -20 -20 -20 -20 -21 -21 -21 -22 -22 -21 -22 -22 -23 -23 -23 -23 -23 -23 -23 -23 -23 -24 -24 -24
-16 -16 -16 -15 -15 -15 -15 -15 -15 -15 -15 -15 -16 -16 -17 -18 -19 -20 -20 -20 -20 -21 -21 -21 -22 -22 -22 -22 -22 -22 -23 -23 -24 -24 -24 -24 -24 -24 -24 -24 -24 -24 -25

GFSGL_500_temp_006.txt.gz
Temp
-9 -9 -8 -8 -8 -8 -8 -8 -8 -8 -8 -8 -8 -9 -8 -8 -8 -8 -8 -8 -8 -8 -8 -8 -8 -8 -8 -8 -7 -8 -8 -8 -9 -8 -8 -8 -8 -7 -8 -8 -8 -8 -9
-9 -9 -9 -8 -8 -8 -8 -8 -8 -8 -8 -7 -8 -8 -9 -9 -9 -8 -8 -8 -8 -8 -8 -8 -8 -8 -8 -8 -8 -8 -8 -8 -8 -8 -8 -8 -8 -9 -9 -8 -8 -9 -9
-9 -9 -9 -8 -8 -8 -8 -8 -8 -8 -8 -8 -8 -8 -8 -9 -9 -8 -8 -8 -8 -8 -8 -8 -8 -8 -8 -8 -8 -8 -8 -8 -8 -8 -8 -8 -9 -9 -9 -9 -9 -9 -9
-9 -9 -9 -9 -8 -8 -8 -9 -8 -8 -8 -8 -8 -8 -8 -8 -8 -8 -8 -8 -8 -8 -8 -8 -8 -8 -8 -8 -8 -8 -8 -8 -8 -8 -9 -9 -9 -9 -9 -9 -9 -9 -9
-9 -9 -8 -8 -8 -8 -8 -8 -8 -8 -8 -8 -8 -8 -8 -7 -8 -8 -8 -8 -8 -8 -8 -8 -8 -8 -8 -8 -8 -8 -8 -8 -9 -8 -9 -9 -9 -9 -9 -9 -9 -10 -9
-9 -9 -8 -8 -8 -7 -8 -8 -8 -8 -8 -8 -8 -8 -8 -8 -8 -8 -8 -8 -8 -8 -8 -8 -9 -9 -9 -9 -9 -9 -9 -9 -9 -9 -9 -9 -9 -10 -10 -10 -10 -10 -10
-9 -8 -8 -8 -8 -7 -7 -7 -8 -8 -8 -9 -9 -9 -9 -9 -8 -8 -8 -8 -8 -8 -8 -8 -8 -9 -9 -9 -9 -9 -9 -9 -10 -10 -10 -10 -10 -10 -10 -10 -10 -11 -11
-8 -8 -8 -7 -7 -8 -7 -7 -8 -7 -7 -8 -8 -9 -9 -9 -9 -9 -9 -9 -9 -9 -9 -9 -9 -9 -9 -9 -9 -9 -9 -10 -10 -10 -10 -10 -10 -11 -11 -11 -11 -11 -11
-8 -7 -7 -7 -7 -7 -7 -7 -7 -7 -8 -8 -8 -8 -8 -8 -8 -9 -9 -9 -9 -9 -9 -9 -9 -9 -10 -10 -10 -10 -10 -10 -10 -10 -11 -11 -11 -11 -12 -12 -12 -12 -12
-8 -7 -7 -7 -7 -7 -7 -7 -7 -7 -7 -8 -9 -9 -8 -9 -8 -8 -8 -8 -9 -9 -9 -10 -10 -11 -10 -10 -10 -10 -11 -11 -11 -11 -11 -12 -11 -12 -12 -13 -13 -13 -13
-8 -8 -8 -7 -7 -7 -7 -8 -8 -7 -7 -8 -8 -8 -8 -9 -9 -9 -9 -9 -9 -10 -10 -10 -10 -10 -10 -10 -11 -12 -11 -12 -12 -12 -12 -12 -12 -13 -12 -12 -13 -13 -13
-8 -8 -8 -8 -8 -8 -8 -8 -8 -8 -8 -8 -8 -8 -8 -9 -9 -10 -10 -10 -10 -10 -10 -10 -10 -11 -11 -11 -12 -12 -12 -12 -13 -13 -13 -13 -13 -13 -13 -13 -13 -13 -13
-9 -9 -8 -8 -8 -8 -8 -8 -9 -9 -8 -8 -9 -9 -9 -10 -10 -10 -11 -11 -10 -10 -10 -11 -11 -12 -12 -12 -12 -12 -12 -13 -12 -12 -12 -12 -13 -13 -13 -13 -13 -13 -13
-9 -9 -9 -9 -9 -10 -9 -9 -9 -9 -10 -10 -10 -10 -10 -10 -11 -11 -12 -12 -12 -12 -12 -12 -12 -12 -13 -13 -13 -13 -13 -13 -13 -13 -13 -13 -13 -13 -13 -13 -13 -13 -13
-9 -9 -9 -9 -10 -10 -10 -10 -10 -10 -11 -11 -11 -11 -11 -12 -12 -12 -13 -13 -13 -13 -13 -13 -13 -13 -13 -13 -13 -13 -13 -13 -13 -13 -13 -13 -13 -13 -13 -14 -14 -14 -14
-10 -10 -10 -10 -10 -10 -10 -11 -11 -11 -11 -11 -12 -12 -12 -12 -13 -13 -13 -13 -13 -13 -13 -13 -13 -13 -13 -13 -13 -13 -13 -13 -14 -14 -14 -14 -14 -14 -14 -15 -15 -15 -15
-10 -11 -10 -10 -10 -11 -11 -11 -12 -12 -12 -12 -12 -13 -13 -13 -13 -13 -13 -13 -13 -13 -13 -13 -13 -13 -13 -13 -14 -14 -14 -14 -14 -15 -15 -15 -16 -17 -17 -17 -18 -18 -18
-11 -11 -11 -11 -11 -12 -12 -12 -13 -13 -13 -13 -13 -13 -13 -13 -13 -13 -13 -13 -13 -13 -14 -14 -14 -14 -14 -14 -14 -14 -15 -15 -16 -16 -17 -18 -19 -19 -19 -19 -20 -20 -21
-12 -12 -12 -12 -12 -12 -13 -13 -14 -13 -13 -13 -13 -14 -13 -13 -13 -14 -14 -14 -14 -14 -14 -14 -14 -14 -14 -14 -15 -16 -17 -18 -18 -18 -19 -19 -19 -20 -20 -21 -22 -22 -23
-12 -12 -12 -13 -13 -13 -14 -14 -14 -14 -13 -14 -14 -14 -14 -14 -14 -14 -14 -14 -14 -14 -14 -15 -15 -15 -15 -16 -17 -18 -19 -19 -19 -19 -19 -19 -20 -22 -22 -22 -23 -23 -23
-13 -14 -14 -14 -14 -14 -15 -15 -15 -15 -14 -14 -14 -14 -14 -14 -14 -14 -14 -14 -15 -15 -15 -15 -16 -17 -18 -19 -19 -19 -20 -20 -20 -19 -20 -21 -22 -22 -22 -22 -23 -23 -24
-14 -14 -14 -14 -14 -14 -15 -15 -15 -15 -15 -15 -14 -14 -14 -15 -15 -15 -15 -15 -15 -15 -15 -16 -17 -19 -19 -20 -20 -20 -20 -20 -20 -20 -21 -21 -21 -21 -22 -22 -23 -23 -24
-14 -14 -14 -14 -14 -15 -16 -16 -16 -15 -15 -15 -15 -15 -15 -15 -15 -15 -15 -16 -16 -17 -18 -19 -19 -20 -20 -20 -21 -21 -21 -21 -21 -21 -22 -21 -21 -21 -22 -22 -22 -23 -23
-14 -14 -14 -15 -16 -16 -16 -16 -15 -15 -15 -15 -15 -15 -15 -15 -15 -16 -16 -17 -18 -19 -19 -20 -20 -20 -20 -21 -21 -21 -21 -21 -21 -22 -23 -22 -22 -22 -22 -22 -22 -22 -23
-15 -15 -16 -16 -17 -17 -17 -16 -16 -15 -15 -15 -15 -16 -16 -16 -16 -16 -16 -18 -19 -20 -20 -20 -20 -21 -21 -21 -22 -22 -22 -22 -22 -23 -23 -24 -24 -24 -24 -24 -24 -24 -24
-16 -17 -17 -16 -17 -17 -17 -16 -16 -15 -15 -16 -16 -16 -16 -16 -17 -17 -18 -19 -20 -20 -21 -21 -21 -21 -21 -22 -22 -22 -22 -23 -23 -23 -23 -24 -24 -24 -24 -24 -24 -24 -25

GFSGL_500_temp_009.txt.gz
Temp
-9 -9 -9 -9 -9 -8 -8 -8 -8 -8 -8 -8 -8 -8 -8 -8 -8 -8 -8 -8 -8 -8 -8 -8 -8 -8 -8 -8 -8 -8 -8 -8 -8 -8 -8 -8 -8 -8 -8 -8 -8 -8 -8
-9 -9 -9 -9 -9 -9 -8 -7 -8 -8 -7 -8 -8 -8 -9 -9 -9 -8 -8 -8 -8 -8 -8 -8 -8 -8 -8 -8 -8 -8 -8 -8 -8 -8 -7 -8 -8 -8 -8 -8 -8 -8 -8
-9 -9 -9 -9 -9 -8 -8 -7 -7 -8 -8 -8 -8 -8 -8 -9 -9 -9 -9 -9 -8 -8 -8 -8 -8 -8 -8 -8 -8 -8 -8 -8 -8 -8 -8 -8 -8 -8 -8 -8 -9 -9 -9
-9 -9 -9 -9 -8 -8 -8 -8 -8 -8 -8 -8 -9 -8 -9 -8 -8 -8 -9 -8 -8 -8 -8 -8 -8 -8 -8 -8 -8 -8 -8 -8 -8 -8 -8 -8 -9 -9 -9 -9 -9 -9 -9
-9 -9 -9 -8 -8 -8 -8 -8 -8 -8 -8 -8 -8 -8 -8 -8 -9 -9 -9 -9 -8 -8 -8 -8 -8 -8 -8 -9 -8 -8 -8 -8 -9 -9 -9 -9 -9 -9 -9 -9 -9 -9 -9
-9 -9 -9 -9 -8 -8 -8 -8 -8 -8 -8 -8 -8 -8 -8 -8 -8 -8 -8 -8 -8 -9 -9 -9 -8 -8 -8 -9 -8 -9 -8 -9 -9 -9 -9 -9 -9 -9 -10 -10 -10 -10 -10
-9 -9 -9 -8 -7 -7 -7 -7 -8 -8 -8 -8 -9 -9 -9 -8 -8 -8 -8 -8 -8 -8 -8 -8 -8 -8 -9 -9 -9 -9 -10 -10 -10 -10 -10 -10 -10 -11 -11 -11 -10 -10 -10
-9 -9 -9 -8 -7 -8 -7 -7 -8 -7 -8 -8 -8 -8 -8 -8 -9 -9 -8 -8 -8 -8 -8 -8 -9 -9 -9 -9 -9 -9 -9 -9 -9 -9 -9 -9 -10 -10 -11 -11 -11 -11 -11
-8 -8 -8 -7 -7 -8 -7 -7 -7 -8 -8 -8 -7 -7 -8 -8 -8 -8 -9 -9 -9 -9 -9 -9 -9 -9 -9 -9 -9 -10 -10 -10 -10 -10 -10 -10 -11 -11 -11 -11 -12 -11 -11
-9 -8 -8 -8 -7 -7 -7 -7 -8 -8 -8 -8 -8 -8 -8 -8 -8 -9 -9 -9 -9 -10 -10 -10 -10 -10 -10 -10 -10 -10 -10 -10 -11 -11 -11 -11 -11 -12 -12 -12 -12 -12 -12
-9 -8 -8 -8 -8 -8 -8 -8 -8 -8 -7 -8 -8 -8 -8 -8 -8 -8 -9 -10 -10 -10 -11 -10 -10 -10 -10 -10 -10 -10 -11 -11 -12 -12 -12 -12 -12 -13 -12 -12 -12 -12 -12
-8 -8 -8 -9 -8 -8 -8 -8 -8 -8 -8 -8 -8 -8 -8 -8 -8 -8 -9 -10 -11 -11 -11 -11 -11 -11 -11 -11 -11 -11 -12 -12 -12 -13 -13 -13 -13 -13 -13 -13 -13 -13 -13
-8 -8 -9 -9 -9 -9 -9 -9 -9 -9 -10 -10 -10 -9 -9 -9 -9 -9 -10 -10 -11 -12 -11 -11 -12 -12 -12 -12 -12 -12 -12 -12 -12 -12 -12 -13 -13 -13 -13 -13 -13 -13 -13
-8 -8 -9 -9 -10 -9 -10 -10 -9 -9 -10 -10 -10 -10 -10 -10 -10 -11 -11 -11 -12 -12 -12 -12 -12 -12 -12 -12 -12 -12 -13 -13 -13 -13 -13 -13 -13 -13 -13 -14 -14 -14 -14
-9 -9 -10 -10 -10 -10 -10 -10 -10 -10 -11 -10 -11 -11 -11 -11 -12 -12 -12 -12 -13 -13 -13 -13 -13 -13 -13 -13 -13 -13 -13 -13 -13 -13 -13 -13 -13 -13 -14 -14 -14 -14 -14
-10 -10 -10 -10 -11 -10 -10 -10 -11 -11 -10 -11 -11 -11 -12 -12 -13 -13 -13 -13 -13 -13 -13 -13 -13 -13 -13 -13 -13 -13 -13 -13 -13 -13 -14 -14 -14 -14 -14 -15 -15 -16 -16
-11 -11 -11 -11 -11 -11 -11 -11 -11 -11 -12 -12 -12 -13 -13 -13 -13 -13 -13 -13 -13 -13 -13 -13 -13 -13 -14 -14 -14 -14 -14 -14 -14 -14 -15 -15 -15 -16 -17 -17 -18 -18 -19
-11 -11 -12 -12 -12 -11 -11 -12 -12 -12 -13 -13 -13 -13 -14 -14 -14 -13 -13 -13 -14 -14 -14 -14 -14 -14 -14 -14 -14 -14 -15 -15 -15 -16 -17 -17 -18 -18 -19 -19 -19 -20 -20
-12 -12 -12 -12 -12 -12 -12 -13 -13 -13 -14 -14 -14 -14 -14 -14 -14 -14 -14 -14 -14 -14 -14 -14 -14 -14 -15 -15 -15 -15 -15 -16 -17 -18 -19 -19 -19 -19 -19 -20 -21 -21 -22
-13 -13 -13 -13 -13 -13 -14 -14 -14 -14 -14 -15 -14 -14 -14 -14 -14 -14 -14 -14 -14 -14 -15 -15 -15 -15 -15 -15 -16 -16 -18 -19 -19 -19 -20 -20 -20 -20 -20 -21 -22 -22 -22
-13 -13 -13 -14 -14 -15 -14 -14 -14 -15 -15 -15 -15 -15 -15 -15 -15 -15 -15 -15 -15 -15 -15 -15 -15 -16 -16 -17 -18 -19 -19 -20 -20 -20 -20 -20 -20 -21 -21 -21 -21 -22 -22
-13 -14 -14 -14 -14 -15 -15 -14 -14 -16 -17 -16 -16 -16 -16 -16 -15 -15 -15 -15 -15 -15 -16 -16 -16 -17 -17 -19 -19 -20 -20 -20 -21 -21 -21 -21 -21 -21 -21 -21 -21 -22 -22
-14 -14 -14 -14 -14 -14 -15 -15 -15 -16 -16 -17 -17 -17 -15 -15 -15 -15 -15 -15 -15 -16 -16 -16 -17 -18 -19 -20 -20 -20 -21 -21 -21 -21 -21 -21 -22 -22 -22 -21 -22 -22 -22
-15 -15 -14 -14 -14 -15 -16 -16 -16 -17 -18 -17 -17 -16 -15 -15 -15 -15 -16 -16 -16 -16 -17 -17 -19 -19 -20 -20 -21 -21 -21 -21 -22 -22 -22 -22 -22 -23 -23 -23 -23 -23 -23
-15 -15 -15 -15 -15 -15 -16 -17 -17 -17 -17 -16 -16 -16 -16 -16 -16 -16 -16 -17 -17 -18 -18 -19 -20 -20 -20 -21 -21 -21 -21 -22 -22 -22 -22 -23 -23 -23 -24 -24 -24 -24 -24
-16 -16 -16 -16 -16 -16 -17 -17 -17 -17 -17 -16 -16 -16 -16 -16 -16 -17 -17 -17 -18 -19 -19 -20 -20 -21 -21 -21 -21 -21 -22 -22 -22 -22 -23 -23 -23 -23 -24 -24 -24 -24 -24

GFSGL_500_temp_015.txt.gz
Temp
-9 -8 -8 -8 -8 -8 -8 -8 -8 -8 -8 -8 -8 -9 -9 -9 -9 -9 -9 -9 -9 -9 -9 -8 -8 -8 -8 -8 -8 -8 -8 -8 -9 -9 -8 -8 -8 -8 -8 -8 -8 -8 -8
-9 -8 -8 -8 -8 -8 -8 -8 -8 -8 -8 -8 -8 -8 -9 -9 -9 -9 -9 -9 -9 -9 -9 -9 -9 -9 -8 -8 -8 -9 -9 -8 -8 -8 -8 -8 -8 -8 -8 -8 -8 -8 -8
-9 -9 -9 -9 -8 -8 -8 -8 -8 -8 -8 -8 -8 -8 -8 -9 -9 -9 -9 -9 -9 -9 -9 -9 -9 -9 -9 -9 -9 -8 -8 -8 -8 -8 -8 -8 -8 -8 -8 -8 -8 -8 -8
-9 -9 -9 -9 -8 -8 -8 -8 -8 -8 -8 -8 -8 -8 -8 -8 -8 -8 -8 -9 -9 -9 -9 -8 -9 -9 -8 -8 -8 -8 -8 -8 -8 -8 -8 -8 -8 -8 -8 -8 -8 -9 -9
-10 -9 -9 -8 -8 -8 -8 -8 -8 -8 -8 -8 -8 -8 -8 -8 -8 -8 -8 -8 -8 -8 -8 -8 -8 -9 -8 -8 -8 -9 -9 -9 -9 -9 -9 -9 -9 -9 -9 -9 -9 -9 -9
-10 -10 -9 -8 -8 -8 -8 -8 -8 -8 -8 -8 -8 -7 -7 -8 -7 -7 -7 -7 -7 -8 -8 -8 -8 -8 -8 -9 -9 -9 -9 -9 -9 -9 -9 -9 -9 -9 -9 -9 -9 -9 -9
-10 -9 -9 -9 -8 -8 -8 -8 -8 -8 -8 -8 -8 -7 -7 -7 -7 -7 -7 -7 -7 -7 -7 -7 -7 -8 -8 -8 -9 -9 -9 -9 -10 -10 -9 -9 -9 -10 -10 -9 -10 -10 -10
-10 -10 -9 -9 -8 -8 -8 -8 -8 -7 -7 -7 -7 -7 -7 -7 -7 -7 -7 -7 -7 -7 -8 -8 -8 -8 -9 -9 -9 -9 -9 -9 -10 -10 -10 -10 -10 -10 -10 -10 -11 -11 -11
-10 -9 -9 -8 -8 -8 -8 -8 -8 -8 -7 -7 -7 -7 -7 -7 -7 -7 -7 -7 -8 -8 -7 -8 -8 -8 -9 -9 -10 -10 -10 -10 -10 -10 -10 -10 -10 -10 -10 -10 -11 -11 -11
-9 -9 -8 -8 -8 -8 -7 -8 -7 -8 -8 -8 -8 -8 -8 -8 -8 -8 -7 -7 -8 -8 -8 -8 -8 -8 -9 -10 -10 -11 -11 -11 -11 -11 -11 -11 -11 -11 -12 -12 -12 -12 -12
-9 -9 -8 -8 -8 -8 -8 -8 -8 -8 -8 -8 -8 -8 -8 -9 -8 -9 -9 -8 -8 -8 -8 -8 -9 -9 -10 -11 -11 -11 -12 -12 -12 -12 -12 -12 -12 -12 -12 -12 -12 -12 -12
-9 -8 -8 -8 -8 -8 -8 -8 -8 -8 -9 -9 -9 -9 -8 -9 -9 -9 -9 -9 -10 -9 -9 -9 -10 -10 -11 -12 -12 -12 -12 -13 -13 -13 -13 -12 -12 -13 -13 -13 -13 -13 -13
-8 -8 -8 -8 -8 -8 -8 -8 -8 -9 -9 -9 -9 -9 -10 -10 -10 -10 -10 -10 -11 -11 -11 -11 -11 -11 -12 -12 -13 -13 -13 -13 -13 -13 -13 -13 -13 -13 -13 -13 -13 -13 -13
-9 -8 -8 -8 -8 -8 -9 -8 -9 -9 -10 -10 -10 -10 -10 -10 -10 -11 -11 -11 -11 -12 -11 -12 -12 -13 -13 -13 -13 -13 -13 -13 -13 -13 -13 -13 -13 -13 -13 -13 -13 -13 -13
-9 -9 -9 -9 -8 -8 -9 -9 -10 -11 -11 -10 -11 -11 -10 -10 -11 -11 -11 -11 -12 -12 -12 -13 -13 -13 -13 -13 -13 -13 -13 -13 -13 -13 -13 -13 -13 -13 -13 -13 -13 -13 -14
-9 -9 -9 -9 -9 -10 -10 -10 -11 -11 -11 -11 -11 -11 -11 -11 -12 -12 -12 -12 -13 -13 -13 -13 -14 -14 -13 -13 -14 -14 -14 -14 -14 -14 -14 -14 -14 -14 -14 -14 -15 -16 -16
-9 -9 -9 -9 -11 -11 -11 -11 -11 -11 -11 -11 -12 -12 -12 -12 -12 -12 -13 -13 -14 -14 -14 -14 -14 -14 -14 -14 -14 -14 -14 -14 -14 -14 -14 -14 -14 -15 -15 -16 -16 -17 -18
-9 -9 -9 -10 -11 -12 -12 -12 -12 -11 -11 -12 -12 -13 -13 -13 -13 -14 -14 -14 -14 -14 -14 -14 -14 -14 -14 -15 -14 -15 -15 -15 -14 -15 -15 -15 -15 -16 -17 -17 -18 -18 -19
-10 -10 -11 -12 -12 -12 -12 -12 -12 -12 -13 -13 -13 -13 -13 -14 -14 -14 -15 -15 -15 -14 -14 -15 -15 -15 -15 -15 -15 -15 -15 -15 -15 -16 -16 -16 -17 -18 -18 -18 -18 -19 -19
-12 -12 -12 -12 -12 -12 -12 -13 -13 -13 -13 -13 -13 -14 -15 -15 -14 -15 -15 -15 -15 -16 -16 -15 -16 -15 -15 -15 -15 -15 -15 -16 -16 -16 -17 -17 -18 -19 -19 -19 -19 -20 -20
-13 -13 -12 -12 -12 -13 -13 -13 -14 -14 -15 -15 -15 -15 -15 -15 -15 -15 -16 -16 -16 -16 -16 -16 -16 -16 -15 -15 -16 -16 -16 -16 -17 -17 -18 -19 -19 -19 -19 -20 -20 -20 -20
-13 -13 -13 -13 -13 -13 -13 -14 -14 -15 -15 -15 -15 -15 -15 -15 -16 -16 -16 -17 -18 -17 -16 -16 -16 -16 -16 -16 -16 -16 -16 -17 -18 -18 -19 -20 -20 -20 -20 -20 -21 -21 -21
-14 -14 -14 -14 -14 -14 -15 -15 -15 -15 -15 -15 -15 -15 -16 -16 -17 -17 -18 -18 -17 -17 -17 -17 -16 -16 -16 -16 -16 -17 -17 -18 -19 -19 -20 -20 -20 -21 -21 -21 -21 -22 -22
-15 -15 -15 -15 -15 -15 -15 -16 -16 -16 -16 -16 -16 -17 -17 -18 -18 -18 -17 -17 -18 -17 -17 -16 -16 -16 -16 -17 -17 -18 -18 -19 -20 -20 -20 -21 -21 -21 -21 -22 -22 -22 -22
-16 -16 -16 -16 -16 -16 -16 -16 -16 -16 -17 -17 -17 -18 -18 -18 -18 -18 -18 -17 -17 -17 -17 -17 -17 -17 -17 -17 -18 -19 -20 -20 -20 -21 -21 -21 -21 -21 -22 -22 -22 -23 -23
-16 -16 -16 -16 -17 -17 -17 -17 -17 -17 -17 -17 -17 -17 -17 -17 -18 -17 -17 -17 -17 -17 -17 -17 -17 -17 -18 -18 -19 -20 -20 -21 -21 -21 -21 -21 -21 -22 -22 -22 -22 -23 -23

GFSGL_500_temp_018.txt.gz
Temp
-9 -8 -9 -9 -8 -8 -8 -8 -7 -7 -7 -7 -7 -7 -7 -8 -8 -8 -8 -8 -8 -9 -8 -8 -8 -8 -8 -8 -8 -9 -9 -8 -8 -8 -8 -8 -8 -8 -8 -8 -8 -8 -8
-9 -9 -9 -9 -9 -8 -8 -7 -7 -7 -7 -7 -7 -7 -7 -8 -8 -8 -8 -8 -8 -8 -8 -8 -8 -9 -8 -8 -8 -8 -8 -8 -8 -8 -8 -8 -8 -8 -8 -8 -8 -8 -8
-9 -9 -9 -9 -9 -8 -8 -8 -7 -7 -7 -7 -7 -7 -7 -7 -8 -8 -8 -8 -8 -8 -8 -8 -8 -8 -8 -8 -8 -8 -8 -8 -8 -8 -8 -8 -8 -8 -8 -8 -8 -8 -8
-9 -9 -9 -8 -8 -8 -8 -8 -7 -7 -7 -7 -7 -7 -7 -7 -7 -8 -8 -8 -8 -8 -8 -8 -8 -8 -8 -8 -8 -8 -8 -8 -8 -8 -9 -9 -8 -8 -8 -8 -9 -9 -9
-9 -9 -9 -8 -8 -8 -8 -8 -7 -7 -7 -7 -7 -7 -7 -7 -7 -7 -7 -7 -7 -7 -7 -7 -7 -7 -8 -8 -8 -8 -8 -8 -9 -9 -9 -9 -9 -9 -9 -9 -9 -9 -9
-10 -9 -9 -9 -8 -8 -8 -8 -7 -7 -7 -7 -7 -7 -7 -7 -7 -7 -7 -7 -7 -7 -7 -7 -7 -7 -7 -8 -8 -8 -8 -8 -8 -8 -9 -9 -9 -9 -9 -9 -9 -9 -9
-10 -10 -10 -9 -8 -8 -8 -8 -8 -7 -7 -7 -7 -7 -7 -7 -7 -7 -7 -7 -7 -7 -7 -7 -7 -8 -8 -8 -8 -8 -9 -9 -9 -9 -10 -10 -10 -10 -10 -10 -10 -10 -10
-10 -10 -9 -9 -8 -8 -7 -7 -7 -7 -7 -7 -7 -7 -7 -7 -7 -7 -7 -7 -7 -7 -7 -7 -7 -7 -7 -7 -8 -8 -9 -9 -9 -10 -10 -10 -10 -10 -10 -10 -10 -10 -10
-9 -9 -9 -9 -8 -8 -8 -7 -7 -7 -7 -7 -7 -7 -7 -7 -7 -8 -8 -7 -7 -8 -8 -8 -8 -7 -7 -8 -8 -8 -9 -10 -10 -10 -10 -10 -10 -10 -11 -10 -11 -11 -11
-9 -9 -9 -9 -9 -8 -8 -7 -7 -8 -8 -8 -7 -7 -7 -8 -8 -8 -8 -8 -9 -9 -8 -8 -8 -8 -8 -8 -8 -9 -10 -10 -11 -11 -11 -11 -11 -11 -12 -12 -12 -12 -12
-9 -9 -9 -9 -8 -8 -8 -8 -8 -8 -8 -8 -8 -8 -8 -8 -9 -9 -9 -9 -9 -10 -9 -9 -10 -10 -9 -9 -10 -10 -10 -11 -12 -12 -12 -12 -12 -12 -12 -12 -12 -12 -12
-9 -9 -8 -8 -8 -8 -8 -8 -8 -8 -8 -8 -8 -8 -9 -9 -9 -10 -10 -10 -10 -10 -10 -10 -10 -11 -10 -10 -11 -11 -12 -12 -12 -13 -13 -13 -13 -13 -13 -13 -13 -13 -13
-9 -9 -8 -8 -8 -8 -8 -8 -8 -8 -8 -8 -9 -9 -9 -10 -10 -10 -10 -10 -11 -11 -11 -11 -11 -11 -11 -11 -12 -12 -13 -13 -13 -13 -13 -13 -13 -13 -13 -13 -13 -13 -13
-9 -9 -8 -8 -8 -8 -8 -8 -9 -9 -9 -9 -10 -10 -11 -11 -10 -10 -10 -11 -12 -11 -11 -12 -12 -12 -12 -13 -13 -13 -13 -13 -13 -13 -13 -13 -13 -13 -13 -13 -13 -13 -13
-9 -9 -8 -8 -8 -8 -8 -8 -9 -10 -10 -10 -11 -11 -11 -11 -11 -11 -11 -11 -12 -12 -12 -12 -13 -13 -13 -14 -14 -14 -14 -14 -14 -14 -14 -14 -13 -13 -13 -13 -13 -13 -13
-10 -9 -9 -9 -9 -9 -9 -9 -9 -10 -11 -11 -11 -11 -11 -11 -11 -11 -11 -12 -12 -12 -13 -13 -13 -14 -14 -14 -14 -14 -14 -14 -14 -14 -14 -14 -14 -14 -14 -13 -14 -14 -15
-10 -10 -10 -10 -10 -9 -10 -10 -10 -11 -12 -12 -12 -12 -12 -12 -12 -13 -13 -13 -13 -13 -14 -14 -14 -14 -14 -14 -14 -14 -15 -15 -15 -14 -14 -14 -14 -14 -14 -14 -14 -15 -16
-11 -10 -10 -10 -10 -10 -10 -11 -11 -12 -12 -12 -13 -13 -13 -13 -13 -14 -14 -14 -14 -14 -14 -15 -15 -15 -15 -15 -15 -15 -15 -15 -15 -15 -15 -15 -15 -15 -15 -15 -16 -17 -17
-11 -11 -11 -11 -10 -10 -11 -12 -12 -12 -13 -13 -13 -13 -13 -13 -14 -14 -14 -15 -14 -15 -15 -15 -15 -15 -16 -15 -15 -15 -16 -15 -16 -15 -15 -15 -15 -15 -16 -17 -18 -18 -18
-11 -11 -11 -11 -12 -12 -12 -12 -13 -13 -13 -13 -13 -14 -14 -14 -14 -14 -15 -15 -15 -15 -16 -16 -16 -16 -17 -17 -16 -16 -16 -16 -16 -15 -16 -16 -16 -17 -17 -18 -18 -19 -19
-12 -12 -12 -12 -13 -13 -13 -13 -13 -13 -14 -14 -14 -15 -15 -15 -15 -15 -15 -15 -15 -16 -17 -17 -17 -18 -17 -17 -16 -16 -16 -16 -16 -16 -16 -16 -17 -18 -18 -19 -19 -19 -19
-13 -13 -13 -13 -14 -14 -14 -14 -14 -14 -14 -15 -15 -15 -15 -15 -15 -15 -15 -16 -17 -17 -17 -18 -18 -17 -17 -17 -17 -17 -16 -16 -16 -16 -17 -17 -18 -18 -19 -20 -20 -20 -20
-14 -14 -14 -14 -14 -14 -14 -14 -15 -15 -15 -15 -15 -15 -15 -16 -16 -16 -17 -18 -19 -18 -18 -18 -17 -17 -17 -17 -17 -17 -16 -17 -17 -17 -18 -18 -19 -19 -20 -20 -20 -21 -21
-15 -15 -15 -15 -15 -15 -15 -15 -15 -16 -16 -16 -16 -16 -16 -17 -17 -17 -17 -19 -19 -18 -18 -18 -18 -17 -17 -17 -17 -17 -17 -17 -17 -18 -18 -19 -20 -20 -21 -21 -21 -21 -21
-15 -16 -16 -16 -16 -16 -16 -16 -16 -16 -17 -17 -17 -17 -17 -17 -17 -17 -18 -18 -18 -18 -18 -17 -17 -17 -17 -17 -17 -17 -17 -18 -18 -19 -19 -20 -21 -21 -21 -21 -21 -21 -22
-16 -16 -17 -17 -17 -16 -16 -17 -17 -17 -17 -17 -17 -17 -17 -18 -18 -18 -18 -17 -17 -17 -17 -17 -17 -18 -18 -18 -18 -18 -18 -19 -19 -20 -21 -21 -22 -22 -22 -22 -22 -22 -22

GFSGL_500_temp_021.txt.gz
Temp
-9 -9 -9 -8 -8 -8 -8 -7 -7 -7 -7 -7 -6 -7 -7 -7 -7 -8 -8 -8 -8 -8 -8 -8 -8 -8 -8 -8 -8 -8 -8 -8 -8 -8 -8 -8 -8 -8 -8 -8 -8 -8 -8
-9 -9 -9 -9 -9 -8 -8 -8 -7 -7 -7 -7 -7 -7 -7 -7 -7 -8 -8 -8 -8 -8 -8 -8 -8 -8 -8 -8 -8 -8 -8 -8 -8 -8 -8 -8 -8 -9 -8 -8 -8 -8 -8
-9 -9 -9 -9 -8 -8 -8 -8 -7 -7 -7 -7 -7 -7 -7 -7 -7 -7 -7 -8 -8 -8 -7 -8 -8 -8 -8 -8 -8 -8 -8 -8 -7 -8 -8 -8 -8 -8 -8 -8 -8 -8 -8
-9 -9 -9 -9 -8 -8 -8 -7 -7 -7 -7 -7 -7 -7 -7 -7 -7 -7 -7 -7 -7 -7 -7 -7 -7 -7 -7 -8 -8 -7 -7 -8 -8 -8 -8 -8 -8 -8 -9 -9 -9 -9 -9
-9 -9 -9 -8 -8 -8 -8 -8 -7 -7 -7 -8 -8 -7 -7 -7 -7 -7 -7 -7 -7 -7 -6 -6 -6 -6 -7 -7 -7 -7 -7 -8 -8 -8 -8 -8 -8 -8 -9 -9 -9 -9 -9
-9 -9 -8 -8 -8 -8 -8 -8 -7 -7 -7 -7 -7 -7 -7 -7 -7 -6 -6 -6 -6 -7 -7 -7 -6 -6 -7 -7 -7 -7 -7 -7 -7 -8 -8 -8 -9 -9 -9 -9 -9 -9 -9
-9 -9 -9 -8 -9 -8 -8 -8 -7 -7 -7 -7 -7 -7 -7 -7 -6 -6 -6 -6 -6 -6 -6 -7 -7 -7 -7 -7 -7 -7 -8 -8 -8 -8 -8 -8 -9 -9 -9 -9 -9 -10 -10
-9 -9 -8 -8 -8 -8 -8 -7 -7 -8 -7 -7 -7 -7 -7 -7 -6 -6 -7 -7 -7 -7 -7 -7 -7 -7 -7 -8 -8 -8 -8 -8 -8 -9 -9 -9 -10 -10 -10 -10 -10 -10 -10
-9 -8 -8 -8 -8 -8 -8 -8 -7 -7 -7 -7 -7 -7 -7 -7 -7 -7 -8 -7 -8 -8 -8 -8 -8 -8 -8 -8 -8 -8 -9 -9 -9 -9 -10 -10 -11 -11 -11 -11 -11 -11 -11
-9 -9 -8 -8 -8 -8 -8 -8 -7 -7 -7 -7 -7 -7 -7 -8 -8 -8 -8 -9 -9 -9 -9 -9 -9 -9 -9 -9 -9 -9 -9 -9 -10 -10 -10 -11 -12 -12 -12 -12 -12 -12 -12
-9 -9 -9 -8 -8 -8 -8 -8 -8 -7 -8 -8 -8 -8 -8 -8 -8 -8 -9 -9 -9 -10 -10 -10 -10 -10 -10 -9 -10 -10 -10 -10 -11 -11 -12 -12 -12 -12 -13 -12 -12 -12 -12
-9 -9 -9 -9 -8 -8 -8 -8 -8 -8 -8 -8 -8 -8 -8 -8 -8 -9 -9 -10 -10 -10 -10 -10 -11 -10 -10 -10 -10 -10 -11 -11 -12 -12 -13 -13 -13 -13 -13 -13 -13 -13 -13
-9 -9 -9 -9 -8 -8 -8 -7 -7 -7 -7 -7 -8 -8 -8 -9 -9 -10 -10 -10 -10 -10 -10 -10 -11 -11 -10 -11 -11 -11 -12 -12 -13 -13 -13 -13 -13 -13 -13 -13 -13 -13 -13
-9 -9 -9 -9 -9 -8 -8 -8 -8 -8 -8 -8 -9 -9 -9 -10 -10 -10 -11 -11 -11 -11 -11 -11 -11 -12 -12 -12 -12 -12 -13 -13 -13 -13 -13 -14 -14 -14 -14 -14 -14 -13 -13
-9 -10 -9 -9 -9 -9 -9 -9 -9 -9 -9 -9 -9 -10 -10 -11 -11 -11 -11 -12 -12 -12 -12 -12 -12 -13 -13 -13 -13 -13 -14 -14 -14 -14 -14 -14 -14 -14 -14 -14 -14 -14 -13
-10 -10 -10 -10 -10 -10 -9 -9 -9 -10 -9 -9 -10 -11 -11 -12 -12 -12 -12 -12 -13 -13 -13 -13 -13 -13 -14 -14 -14 -14 -14 -14 -14 -14 -14 -15 -15 -15 -15 -15 -14 -14 -14
-10 -10 -10 -10 -10 -10 -10 -10 -10 -10 -10 -10 -11 -11 -12 -12 -12 -12 -13 -13 -13 -13 -13 -14 -14 -14 -14 -14 -14 -14 -14 -15 -15 -15 -15 -15 -15 -15 -16 -15 -15 -14 -14
-10 -11 -10 -10 -10 -10 -10 -10 -10 -10 -11 -11 -12 -12 -12 -13 -13 -13 -13 -13 -14 -14 -14 -14 -15 -15 -15 -15 -15 -15 -15 -15 -15 -16 -16 -16 -16 -16 -16 -15 -15 -15 -15
-11 -11 -11 -11 -11 -11 -11 -11 -11 -12 -12 -12 -12 -13 -13 -13 -13 -14 -14 -14 -14 -14 -15 -15 -15 -15 -15 -16 -16 -16 -16 -16 -17 -17 -16 -17 -16 -16 -16 -15 -16 -16 -16
-12 -12 -11 -11 -11 -12 -12 -12 -12 -13 -13 -13 -13 -13 -13 -13 -14 -14 -15 -15 -15 -15 -15 -15 -16 -16 -17 -17 -17 -17 -17 -17 -17 -17 -16 -16 -16 -16 -16 -16 -16 -17 -18
-12 -12 -12 -12 -13 -13 -13 -13 -13 -13 -13 -13 -14 -14 -14 -14 -14 -15 -15 -15 -15 -15 -16 -16 -16 -17 -17 -18 -18 -18 -19 -18 -17 -17 -17 -17 -16 -16 -16 -17 -17 -18 -19
-13 -13 -13 -13 -13 -14 -14 -14 -14 -14 -14 -14 -15 -15 -15 -15 -15 -15 -15 -15 -16 -16 -17 -18 -18 -19 -19 -19 -20 -19 -18 -18 -18 -17 -17 -17 -17 -17 -17 -17 -18 -19 -20
-13 -13 -14 -14 -14 -14 -14 -15 -15 -15 -15 -15 -15 -15 -15 -15 -15 -16 -16 -16 -17 -17 -17 -18 -19 -20 -20 -20 -19 -19 -19 -18 -18 -17 -17 -17 -17 -18 -18 -18 -19 -20 -20
-14 -14 -15 -14 -15 -15 -15 -16 -16 -16 -16 -15 -15 -16 -16 -16 -16 -16 -16 -17 -17 -18 -18 -18 -19 -19 -18 -19 -19 -19 -18 -18 -18 -18 -18 -18 -18 -18 -19 -19 -20 -21 -21
-15 -15 -15 -15 -16 -16 -16 -16 -16 -16 -16 -16 -16 -17 -17 -17 -17 -17 -17 -17 -17 -18 -18 -18 -18 -18 -19 -18 -18 -18 -18 -18 -18 -18 -18 -19 -19 -19 -20 -20 -21 -21 -21
-15 -16 -16 -16 -16 -16 -16 -17 -17 -17 -17 -17 -17 -17 -17 -17 -17 -17 -17 -17 -17 -18 -18 -18 -18 -18 -18 -18 -18 -19 -19 -19 -19 -19 -19 -20 -20 -20 -21 -21 -21 -22 -22

GFSGL_500_temp_024.txt.gz
Temp
-8 -9 -9 -9 -9 -8 -8 -8 -7 -7 -7 -7 -7 -7 -7 -7 -7 -7 -7 -8 -8 -8 -8 -8 -8 -8 -8 -8 -8 -8 -8 -8 -8 -8 -8 -8 -8 -8 -8 -8 -8 -8 -8
-8 -9 -9 -9 -9 -9 -9 -8 -7 -7 -7 -7 -7 -7 -7 -7 -7 -7 -7 -7 -8 -8 -7 -7 -8 -8 -8 -8 -8 -8 -8 -8 -8 -8 -7 -7 -7 -7 -7 -7 -8 -8 -8
-9 -9 -9 -9 -9 -9 -9 -8 -8 -7 -7 -7 -7 -7 -7 -7 -7 -6 -6 -6 -6 -6 -7 -7 -7 -7 -7 -7 -8 -8 -8 -8 -7 -7 -7 -7 -7 -7 -8 -7 -8 -8 -8
-9 -10 -9 -9 -9 -9 -9 -8 -8 -7 -7 -7 -7 -7 -7 -7 -7 -6 -6 -6 -6 -6 -6 -6 -5 -6 -7 -7 -7 -7 -7 -8 -8 -8 -8 -7 -7 -7 -8 -8 -8 -8 -8
-10 -10 -10 -10 -9 -9 -8 -8 -7 -7 -7 -7 -7 -7 -7 -7 -7 -7 -6 -6 -6 -6 -6 -6 -6 -6 -6 -6 -6 -6 -6 -6 -7 -7 -7 -7 -7 -8 -8 -8 -8 -8 -8
-10 -10 -10 -9 -9 -9 -8 -8 -8 -7 -7 -7 -7 -7 -7 -7 -7 -7 -6 -6 -7 -6 -6 -7 -7 -7 -7 -7 -7 -7 -7 -7 -7 -7 -7 -7 -7 -8 -8 -8 -8 -9 -9
-10 -10 -10 -9 -9 -8 -8 -8 -7 -7 -7 -7 -7 -7 -7 -7 -7 -7 -7 -7 -7 -7 -7 -7 -7 -7 -8 -8 -8 -8 -7 -8 -8 -8 -8 -8 -8 -8 -8 -8 -9 -9 -9
-10 -10 -9 -9 -8 -8 -8 -8 -7 -7 -7 -7 -7 -7 -7 -7 -7 -7 -7 -7 -7 -7 -8 -8 -8 -8 -8 -9 -9 -9 -8 -8 -8 -8 -8 -8 -9 -9 -9 -9 -10 -10 -10
-10 -10 -9 -9 -9 -8 -8 -8 -7 -7 -7 -7 -7 -7 -7 -7 -7 -7 -8 -8 -8 -8 -8 -8 -9 -9 -9 -9 -9 -9 -9 -9 -9 -9 -9 -9 -10 -10 -10 -11 -11 -11 -11
-10 -10 -9 -9 -8 -8 -8 -8 -7 -7 -7 -7 -7 -7 -7 -7 -7 -7 -8 -8 -8 -8 -9 -9 -9 -10 -10 -10 -10 -10 -10 -10 -10 -10 -10 -10 -11 -11 -11 -12 -12 -12 -12
-10 -10 -9 -9 -9 -8 -8 -8 -8 -7 -7 -7 -7 -7 -7 -7 -7 -8 -8 -8 -8 -9 -9 -9 -10 -10 -10 -11 -11 -10 -10 -10 -10 -11 -11 -11 -12 -12 -12 -13 -13 -13 -13
-9 -9 -9 -8 -9 -9 -9 -8 -8 -8 -8 -8 -8 -8 -8 -8 -8 -8 -8 -8 -9 -9 -9 -10 -10 -10 -10 -11 -11 -11 -11 -11 -11 -11 -12 -12 -13 -13 -13 -13 -13 -13 -13
-9 -9 -9 -10 -10 -9 -9 -9 -8 -8 -8 -8 -8 -8 -8 -8 -9 -9 -9 -9 -10 -10 -11 -11 -10 -11 -11 -11 -11 -12 -12 -12 -12 -13 -13 -13 -13 -13 -14 -14 -14 -14 -14
-10 -9 -9 -10 -9 -9 -9 -9 -9 -9 -9 -9 -9 -9 -9 -9 -9 -9 -10 -10 -11 -11 -11 -11 -11 -11 -12 -12 -12 -12 -13 -13 -13 -13 -14 -14 -14 -14 -14 -14 -14 -14 -15
-10 -10 -10 -10 -10 -10 -10 -10 -10 -9 -9 -9 -9 -9 -9 -9 -10 -10 -10 -11 -12 -12 -12 -12 -12 -12 -12 -13 -13 -13 -14 -14 -14 -14 -14 -14 -14 -14 -14 -15 -15 -15 -15
-11 -10 -10 -10 -10 -10 -10 -10 -10 -10 -10 -9 -9 -9 -10 -10 -11 -11 -11 -12 -12 -12 -12 -13 -13 -13 -13 -13 -14 -14 -14 -14 -14 -14 -14 -15 -15 -15 -15 -15 -16 -16 -15
-11 -11 -10 -10 -10 -10 -10 -10 -10 -10 -10 -10 -10 -10 -11 -11 -12 -12 -12 -12 -13 -13 -13 -13 -13 -14 -14 -14 -14 -14 -15 -15 -15 -15 -15 -15 -15 -15 -16 -16 -16 -16 -16
-11 -11 -11 -11 -11 -11 -11 -11 -11 -11 -11 -11 -11 -12 -12 -12 -13 -13 -13 -13 -13 -13 -14 -14 -14 -14 -14 -15 -15 -15 -15 -16 -16 -17 -16 -16 -16 -16 -17 -16 -17 -16 -16
-11 -11 -11 -11 -11 -11 -11 -11 -11 -11 -11 -12 -12 -12 -13 -13 -13 -13 -13 -14 -14 -14 -14 -15 -15 -15 -15 -15 -15 -15 -16 -17 -17 -17 -17 -17 -17 -18 -18 -18 -17 -16 -16
-12 -12 -12 -12 -12 -12 -12 -12 -12 -12 -12 -12 -13 -14 -14 -14 -14 -14 -14 -14 -14 -15 -15 -15 -15 -16 -16 -16 -16 -17 -17 -18 -18 -18 -18 -18 -18 -18 -17 -18 -17 -17 -17
-12 -12 -12 -12 -12 -12 -12 -12 -13 -13 -13 -14 -14 -14 -14 -15 -15 -15 -15 -15 -15 -16 -16 -16 -16 -16 -17 -17 -17 -18 -19 -20 -19 -20 -20 -19 -19 -19 -19 -18 -17 -17 -17
-13 -13 -13 -13 -13 -13 -13 -13 -13 -14 -14 -14 -15 -15 -15 -15 -15 -15 -15 -15 -16 -16 -16 -16 -17 -17 -17 -17 -18 -19 -18 -18 -19 -19 -19 -19 -19 -19 -18 -18 -18 -18 -18
-13 -13 -13 -13 -13 -14 -14 -14 -14 -15 -15 -15 -15 -15 -16 -16 -16 -16 -16 -16 -16 -16 -17 -17 -17 -17 -17 -17 -18 -18 -19 -19 -19 -19 -19 -19 -19 -18 -18 -18 -18 -19 -19
-14 -14 -14 -14 -15 -15 -15 -15 -15 -15 -16 -16 -16 -16 -16 -15 -16 -16 -16 -17 -17 -17 -17 -17 -17 -17 -17 -18 -18 -18 -19 -19 -18 -18 -19 -19 -19 -19 -19 -19 -19 -19 -20
-15 -15 -15 -15 -15 -15 -16 -16 -16 -16 -17 -17 -16 -17 -17 -17 -17 -17 -17 -17 -17 -17 -17 -17 -17 -18 -18 -19 -19 -18 -18 -19 -19 -19 -19 -20 -20 -20 -20 -20 -20 -20 -21
-15 -15 -15 -15 -16 -16 -16 -16 -17 -17 -17 -17 -17 -17 -17 -17 -17 -17 -17 -17 -17 -18 -18 -18 -18 -18 -18 -19 -19 -19 -19 -20 -20 -20 -20 -21 -21 -21 -21 -21 -21 -21 -22

GFSGL_500_temp_027.txt.gz
Temp
-9 -9 -9 -9 -8 -8 -8 -8 -7 -8 -7 -7 -7 -7 -7 -6 -7 -7 -7 -7 -7 -7 -7 -7 -7 -7 -8 -8 -8 -8 -8 -8 -8 -8 -8 -8 -8 -8 -8 -7 -8 -8 -8
-9 -9 -9 -9 -9 -8 -8 -8 -8 -8 -7 -7 -7 -7 -7 -7 -6 -6 -7 -6 -6 -6 -6 -6 -7 -7 -7 -7 -7 -7 -8 -8 -8 -8 -8 -8 -8 -8 -8 -8 -8 -8 -8
-9 -9 -8 -9 -9 -8 -8 -8 -8 -8 -7 -7 -7 -7 -7 -7 -7 -6 -6 -6 -6 -6 -6 -6 -5 -6 -6 -6 -6 -7 -7 -7 -7 -7 -8 -8 -8 -8 -8 -8 -8 -8 -8
-10 -9 -9 -9 -9 -9 -9 -8 -8 -8 -7 -7 -7 -7 -7 -7 -7 -7 -6 -6 -6 -6 -6 -6 -6 -6 -6 -6 -6 -6 -6 -6 -7 -7 -7 -7 -7 -7 -7 -7 -7 -8 -8
-10 -10 -9 -9 -9 -9 -9 -8 -8 -8 -7 -7 -7 -7 -7 -7 -7 -7 -7 -7 -7 -6 -7 -7 -7 -7 -7 -7 -7 -6 -6 -6 -6 -6 -7 -7 -7 -7 -7 -7 -8 -8 -8
-9 -9 -9 -10 -9 -10 -9 -8 -8 -8 -7 -7 -7 -7 -7 -7 -7 -7 -7 -7 -7 -7 -7 -7 -7 -8 -8 -8 -8 -8 -8 -8 -7 -7 -7 -7 -7 -7 -7 -7 -7 -8 -9
-10 -10 -9 -10 -10 -9 -9 -8 -8 -7 -7 -7 -7 -7 -7 -7 -7 -7 -7 -7 -7 -7 -7 -8 -8 -8 -8 -8 -8 -8 -9 -9 -9 -9 -9 -9 -9 -9 -9 -9 -9 -9 -9
-10 -10 -10 -10 -10 -9 -9 -9 -8 -8 -7 -7 -7 -7 -7 -7 -7 -7 -7 -7 -7 -7 -7 -7 -8 -8 -8 -8 -9 -9 -9 -10 -10 -9 -9 -9 -9 -9 -9 -9 -9 -10 -10
-11 -11 -10 -10 -9 -9 -8 -8 -8 -8 -8 -7 -7 -7 -7 -7 -7 -7 -7 -7 -7 -7 -7 -7 -7 -8 -8 -8 -9 -9 -9 -10 -10 -10 -10 -9 -9 -10 -10 -10 -10 -11 -12
-10 -10 -10 -10 -9 -9 -9 -8 -8 -8 -8 -8 -8 -7 -8 -8 -7 -7 -7 -7 -7 -7 -7 -8 -8 -8 -9 -9 -9 -10 -10 -10 -10 -10 -10 -10 -10 -10 -11 -11 -11 -12 -13
-10 -10 -10 -9 -9 -9 -9 -8 -8 -8 -8 -8 -8 -8 -8 -8 -8 -8 -8 -8 -8 -8 -8 -9 -9 -9 -10 -10 -10 -10 -10 -11 -11 -11 -11 -11 -11 -11 -12 -12 -13 -13 -13
-10 -10 -9 -9 -9 -9 -9 -9 -9 -9 -9 -9 -9 -9 -9 -8 -8 -8 -8 -8 -8 -8 -9 -9 -10 -10 -10 -11 -11 -11 -11 -11 -11 -12 -12 -12 -13 -12 -13 -13 -13 -13 -14
-10 -10 -10 -9 -10 -9 -9 -9 -9 -9 -9 -9 -9 -9 -9 -9 -9 -8 -8 -8 -8 -9 -9 -10 -10 -11 -11 -11 -11 -11 -11 -11 -12 -12 -13 -13 -13 -14 -14 -14 -14 -14 -14
-11 -10 -10 -10 -10 -9 -9 -9 -9 -9 -9 -9 -9 -9 -9 -9 -9 -9 -9 -9 -9 -10 -10 -11 -11 -11 -12 -12 -12 -12 -12 -12 -13 -13 -13 -14 -14 -14 -14 -14 -14 -15 -15
-10 -10 -10 -10 -10 -10 -10 -10 -10 -10 -9 -10 -10 -10 -10 -10 -9 -9 -10 -10 -10 -11 -11 -12 -12 -12 -12 -12 -13 -13 -13 -13 -14 -14 -14 -14 -14 -15 -15 -15 -15 -15 -15
-11 -10 -10 -10 -10 -10 -10 -10 -10 -10 -10 -10 -10 -10 -10 -10 -10 -10 -11 -11 -11 -12 -12 -12 -13 -13 -13 -13 -13 -14 -15 -14 -15 -15 -15 -15 -15 -15 -15 -15 -15 -16 -16
-11 -11 -11 -10 -10 -10 -10 -11 -11 -11 -11 -11 -11 -11 -11 -11 -11 -11 -12 -12 -12 -13 -13 -13 -14 -14 -14 -14 -14 -15 -15 -15 -15 -15 -15 -16 -16 -17 -16 -16 -16 -16 -16
-11 -11 -11 -11 -11 -11 -11 -11 -12 -11 -11 -11 -11 -11 -11 -12 -12 -12 -13 -13 -13 -14 -14 -14 -14 -14 -15 -15 -15 -15 -15 -16 -16 -16 -16 -17 -18 -18 -19 -18 -18 -17 -17
-11 -11 -11 -11 -12 -12 -12 -12 -12 -12 -12 -12 -12 -12 -12 -13 -13 -13 -14 -14 -14 -15 -15 -15 -15 -15 -15 -16 -16 -16 -16 -16 -17 -17 -18 -18 -19 -19 -19 -18 -19 -18 -19
-12 -12 -12 -12 -12 -12 -13 -12 -11 -12 -12 -12 -13 -13 -13 -14 -14 -14 -15 -15 -15 -15 -15 -15 -15 -16 -16 -16 -16 -16 -16 -16 -17 -18 -19 -18 -19 -20 -20 -20 -20 -20 -19
-12 -12 -13 -13 -13 -13 -13 -12 -13 -13 -13 -13 -14 -14 -14 -15 -15 -15 -15 -15 -15 -15 -16 -16 -16 -16 -16 -17 -17 -17 -17 -17 -17 -18 -19 -19 -19 -19 -19 -20 -20 -20 -19
-13 -13 -13 -13 -13 -13 -13 -13 -13 -13 -14 -14 -14 -15 -15 -15 -15 -15 -15 -15 -16 -17 -17 -17 -17 -17 -16 -17 -17 -17 -17 -17 -17 -18 -19 -19 -19 -19 -20 -20 -20 -20 -20
-13 -13 -14 -14 -14 -13 -14 -14 -14 -14 -15 -15 -15 -15 -16 -16 -16 -16 -17 -17 -18 -18 -18 -18 -17 -17 -17 -17 -17 -17 -18 -18 -18 -18 -18 -19 -19 -19 -19 -19 -19 -20 -20
-14 -15 -15 -14 -14 -15 -15 -15 -15 -15 -16 -16 -15 -16 -16 -16 -17 -17 -17 -17 -17 -17 -17 -17 -17 -18 -18 -19 -18 -18 -19 -19 -19 -19 -19 -19 -20 -20 -20 -20 -20 -20 -20
-15 -15 -15 -15 -15 -15 -15 -16 -16 -16 -16 -16 -17 -17 -17 -18 -17 -17 -18 -17 -18 -17 -17 -18 -18 -18 -19 -19 -19 -20 -20 -20 -21 -21 -21 -21 -21 -21 -21 -21 -21 -21 -21
-15 -15 -16 -16 -15 -16 -16 -16 -16 -16 -17 -17 -17 -18 -18 -18 -18 -18 -18 -18 -18 -18 -19 -20 -20 -21 -21 -21 -21 -21 -21 -21 -21 -21 -21 -22 -22 -22 -23 -23 -23 -22 -22

GFSGL_500_temp_030.txt.gz
Temp
-10 -10 -10 -9 -8 -9 -8 -7 -7 -7 -7 -6 -6 -6 -6 -6 -6 -6 -6 -7 -7 -7 -7 -7 -8 -8 -7 -8 -8 -8 -8 -8 -8 -8 -8 -8 -8 -8 -8 -8 -8 -8 -8
-9 -10 -10 -9 -9 -9 -8 -7 -7 -7 -7 -7 -7 -7 -6 -6 -6 -6 -6 -6 -6 -6 -6 -6 -6 -6 -7 -7 -7 -7 -8 -7 -7 -7 -7 -8 -8 -8 -8 -7 -7 -7 -8
-10 -10 -10 -10 -9 -9 -8 -8 -8 -7 -7 -7 -7 -7 -6 -7 -6 -6 -6 -6 -6 -6 -6 -6 -6 -6 -6 -6 -6 -7 -7 -7 -7 -7 -7 -8 -7 -7 -7 -7 -7 -7 -7
-10 -10 -10 -10 -9 -9 -9 -9 -8 -8 -8 -7 -7 -7 -7 -6 -6 -6 -6 -6 -6 -6 -6 -6 -6 -6 -6 -7 -7 -7 -7 -7 -7 -7 -7 -7 -7 -7 -7 -8 -8 -8 -8
-10 -10 -10 -10 -9 -9 -9 -9 -8 -8 -8 -7 -7 -7 -7 -7 -7 -7 -7 -7 -7 -7 -7 -7 -7 -7 -7 -7 -7 -7 -7 -7 -7 -7 -7 -7 -8 -8 -8 -8 -8 -8 -8
-10 -10 -10 -10 -9 -9 -9 -9 -9 -8 -8 -7 -7 -7 -7 -7 -7 -7 -7 -7 -7 -7 -7 -7 -7 -8 -8 -8 -8 -8 -8 -8 -8 -8 -8 -8 -8 -8 -8 -8 -8 -9 -8
-11 -11 -10 -10 -10 -9 -9 -9 -8 -8 -8 -8 -8 -7 -7 -7 -7 -7 -7 -7 -7 -7 -7 -7 -7 -7 -7 -8 -8 -8 -8 -9 -9 -9 -9 -9 -9 -9 -9 -9 -9 -9 -10
-10 -10 -10 -10 -10 -9 -9 -9 -9 -8 -8 -7 -8 -7 -7 -7 -7 -7 -7 -7 -7 -7 -7 -7 -7 -7 -7 -7 -8 -8 -9 -9 -10 -10 -10 -10 -10 -10 -10 -10 -10 -10 -10
-11 -11 -11 -10 -9 -9 -9 -9 -8 -8 -8 -8 -8 -8 -8 -8 -8 -8 -8 -7 -8 -8 -8 -8 -8 -8 -8 -8 -8 -9 -9 -10 -10 -10 -10 -11 -11 -11 -11 -11 -11 -11 -11
-10 -10 -10 -10 -9 -9 -9 -9 -9 -9 -8 -8 -8 -8 -8 -8 -8 -8 -8 -8 -8 -8 -8 -8 -8 -8 -8 -8 -9 -9 -10 -10 -11 -11 -11 -11 -11 -11 -11 -12 -12 -12 -13
-10 -10 -10 -10 -10 -10 -10 -9 -9 -9 -9 -9 -9 -9 -9 -8 -8 -9 -8 -8 -8 -8 -8 -8 -8 -8 -9 -9 -9 -10 -10 -11 -11 -11 -11 -11 -11 -12 -13 -13 -13 -14 -14
-10 -10 -10 -10 -10 -10 -10 -10 -10 -9 -9 -9 -9 -9 -9 -9 -9 -9 -9 -9 -8 -8 -8 -8 -9 -9 -10 -10 -10 -11 -11 -11 -11 -12 -12 -12 -12 -12 -13 -13 -14 -14 -14
-11 -11 -10 -10 -10 -10 -10 -10 -10 -9 -9 -9 -9 -9 -9 -9 -9 -9 -9 -9 -9 -9 -9 -9 -10 -10 -10 -11 -11 -11 -12 -12 -12 -12 -12 -13 -13 -14 -14 -14 -14 -14 -15
-11 -11 -11 -11 -10 -10 -10 -10 -10 -10 -10 -10 -10 -10 -10 -10 -10 -9 -9 -9 -9 -9 -9 -10 -11 -11 -11 -12 -12 -12 -13 -13 -13 -13 -13 -14 -14 -14 -15 -15 -15 -15 -15
-11 -11 -11 -11 -11 -11 -11 -10 -10 -10 -10 -10 -10 -10 -10 -10 -10 -10 -10 -10 -10 -10 -11 -11 -12 -12 -12 -13 -13 -13 -13 -13 -14 -14 -14 -14 -15 -15 -15 -15 -15 -15 -15
-11 -11 -11 -11 -11 -11 -10 -10 -10 -10 -10 -10 -10 -11 -11 -11 -11 -11 -11 -11 -11 -12 -12 -12 -13 -13 -13 -14 -14 -14 -14 -14 -14 -15 -15 -15 -15 -16 -16 -16 -16 -17 -17
-11 -11 -11 -11 -11 -11 -11 -10 -10 -10 -11 -11 -11 -11 -11 -11 -11 -11 -11 -12 -12 -13 -13 -13 -14 -14 -14 -14 -15 -15 -15 -15 -15 -15 -15 -16 -16 -16 -16 -17 -17 -18 -18
-11 -11 -11 -11 -11 -11 -11 -11 -11 -12 -12 -12 -12 -12 -11 -11 -12 -12 -12 -13 -13 -13 -14 -14 -14 -15 -15 -15 -15 -15 -16 -16 -16 -16 -16 -16 -17 -17 -17 -18 -19 -19 -19
-11 -11 -11 -12 -12 -12 -12 -12 -12 -12 -12 -12 -12 -12 -12 -12 -13 -13 -13 -14 -14 -15 -15 -15 -15 -15 -15 -16 -16 -16 -16 -16 -16 -16 -16 -17 -17 -17 -17 -18 -19 -20 -20
-12 -12 -12 -12 -12 -13 -13 -13 -13 -13 -13 -12 -12 -13 -13 -13 -14 -14 -14 -15 -15 -16 -16 -16 -16 -16 -16 -16 -16 -16 -16 -16 -16 -17 -17 -17 -17 -18 -18 -19 -19 -19 -20
-12 -13 -13 -13 -13 -13 -13 -13 -13 -13 -13 -13 -13 -14 -14 -14 -15 -15 -16 -16 -16 -16 -16 -16 -16 -16 -17 -17 -17 -17 -17 -17 -17 -17 -17 -18 -18 -18 -19 -19 -19 -19 -20
-13 -13 -13 -14 -13 -13 -13 -13 -14 -14 -14 -14 -14 -15 -15 -15 -16 -17 -17 -17 -17 -17 -17 -17 -17 -17 -17 -17 -17 -18 -18 -18 -18 -18 -18 -19 -19 -19 -19 -19 -20 -20 -20
-14 -14 -14 -14 -14 -13 -14 -15 -14 -14 -14 -15 -15 -16 -16 -17 -17 -17 -17 -17 -17 -17 -18 -18 -18 -18 -18 -18 -18 -18 -18 -19 -19 -19 -19 -19 -20 -20 -20 -20 -20 -20 -20
-14 -14 -14 -14 -15 -14 -15 -15 -15 -15 -15 -15 -16 -16 -16 -16 -17 -17 -17 -17 -18 -18 -18 -18 -18 -18 -19 -19 -19 -20 -20 -20 -20 -20 -20 -21 -21 -21 -22 -22 -22 -22 -22
-15 -14 -14 -16 -16 -15 -15 -15 -15 -15 -16 -16 -17 -16 -16 -16 -17 -17 -17 -17 -17 -18 -18 -19 -19 -19 -19 -20 -20 -21 -21 -21 -21 -22 -22 -22 -22 -22 -22 -23 -23 -23 -23
-15 -15 -16 -16 -16 -16 -16 -16 -16 -16 -17 -17 -17 -17 -17 -18 -18 -18 -18 -18 -19 -19 -19 -19 -19 -20 -20 -20 -21 -21 -22 -22 -22 -22 -22 -23 -23 -23 -23 -23 -23 -23 -23

GFSGL_500_temp_033.txt.gz
Temp
-9 -10 -9 -9 -9 -9 -8 -8 -8 -8 -7 -7 -7 -7 -6 -6 -6 -6 -6 -6 -6 -6 -7 -7 -7 -7 -7 -7 -7 -8 -8 -8 -8 -8 -8 -8 -8 -8 -9 -9 -8 -8 -8
-10 -9 -9 -9 -9 -9 -9 -8 -8 -8 -7 -7 -7 -7 -7 -6 -6 -6 -6 -6 -6 -6 -6 -6 -6 -6 -6 -6 -6 -7 -7 -7 -8 -8 -8 -8 -8 -8 -8 -8 -8 -8 -7
-10 -9 -9 -9 -9 -9 -9 -9 -8 -8 -8 -7 -7 -7 -7 -7 -6 -6 -6 -6 -6 -6 -6 -6 -6 -6 -6 -6 -6 -7 -7 -7 -7 -7 -7 -7 -7 -7 -7 -7 -7 -7 -7
-10 -10 -10 -10 -9 -9 -9 -9 -9 -8 -8 -8 -7 -7 -7 -7 -7 -6 -6 -6 -6 -6 -6 -7 -7 -7 -7 -7 -7 -7 -7 -7 -7 -7 -7 -7 -7 -7 -8 -8 -8 -8 -8
-10 -10 -10 -10 -10 -10 -10 -9 -9 -8 -8 -8 -7 -7 -7 -7 -7 -7 -7 -7 -7 -7 -7 -7 -7 -7 -7 -7 -7 -7 -7 -7 -7 -7 -7 -7 -7 -8 -8 -8 -8 -8 -8
-10 -11 -10 -9 -10 -10 -10 -10 -9 -9 -8 -8 -8 -7 -7 -7 -7 -7 -7 -7 -7 -7 -7 -7 -7 -7 -7 -7 -7 -7 -7 -7 -7 -7 -7 -7 -7 -8 -8 -8 -8 -8 -9
-11 -11 -10 -10 -10 -10 -10 -10 -9 -8 -8 -8 -8 -8 -7 -7 -7 -8 -7 -7 -7 -7 -7 -7 -7 -8 -7 -7 -7 -7 -8 -8 -8 -8 -8 -8 -8 -8 -9 -9 -10 -10 -10
-11 -10 -10 -10 -10 -10 -10 -10 -9 -9 -8 -8 -8 -8 -8 -8 -8 -8 -8 -8 -8 -8 -8 -8 -8 -8 -8 -8 -8 -8 -8 -8 -8 -9 -9 -9 -10 -10 -10 -11 -11 -11 -11
-10 -11 -11 -11 -11 -11 -10 -9 -9 -9 -8 -9 -9 -9 -9 -9 -9 -8 -8 -8 -8 -8 -9 -8 -8 -8 -8 -8 -8 -9 -9 -9 -9 -9 -10 -10 -11 -11 -11 -11 -12 -12 -11
-11 -10 -11 -11 -11 -10 -10 -10 -10 -9 -9 -9 -9 -9 -9 -9 -9 -9 -8 -9 -9 -9 -9 -9 -9 -9 -8 -9 -9 -9 -9 -10 -10 -10 -10 -11 -11 -11 -12 -12 -12 -12 -13
-10 -10 -11 -11 -10 -10 -10 -10 -10 -10 -10 -9 -9 -9 -9 -9 -9 -9 -9 -9 -9 -9 -9 -9 -9 -9 -9 -9 -10 -10 -10 -11 -11 -11 -12 -12 -12 -12 -12 -12 -13 -13 -13
-10 -10 -11 -11 -10 -10 -11 -11 -10 -10 -10 -10 -10 -10 -10 -10 -9 -9 -9 -9 -9 -9 -9 -9 -9 -9 -10 -10 -10 -11 -11 -12 -12 -12 -13 -13 -13 -13 -13 -13 -14 -14 -15
-11 -11 -11 -10 -10 -11 -10 -10 -10 -10 -10 -10 -10 -10 -10 -9 -9 -10 -10 -10 -10 -10 -10 -10 -10 -10 -10 -10 -11 -11 -12 -12 -13 -13 -13 -13 -13 -13 -14 -14 -15 -15 -15
-11 -11 -11 -11 -11 -11 -11 -10 -11 -10 -10 -10 -10 -10 -10 -10 -10 -10 -10 -10 -10 -10 -10 -10 -10 -10 -11 -12 -12 -12 -13 -13 -14 -14 -14 -14 -14 -15 -15 -15 -15 -16 -16
-11 -11 -11 -11 -11 -11 -11 -11 -11 -11 -10 -10 -10 -10 -10 -10 -11 -11 -11 -11 -11 -11 -11 -11 -11 -12 -12 -13 -13 -13 -14 -14 -14 -14 -15 -15 -15 -15 -15 -15 -15 -16 -16
-11 -11 -11 -11 -11 -11 -11 -11 -11 -11 -11 -10 -11 -11 -11 -11 -11 -11 -11 -11 -11 -11 -12 -12 -12 -13 -13 -14 -14 -14 -14 -15 -15 -15 -15 -15 -15 -16 -16 -16 -16 -16 -17
-11 -11 -11 -11 -11 -11 -11 -11 -11 -11 -11 -11 -11 -12 -12 -12 -12 -12 -12 -12 -12 -12 -13 -13 -13 -14 -14 -14 -15 -15 -15 -15 -15 -16 -16 -16 -16 -16 -16 -16 -17 -17 -17
-11 -11 -11 -11 -11 -12 -12 -11 -11 -12 -12 -12 -12 -12 -13 -13 -12 -12 -12 -12 -13 -13 -14 -14 -14 -15 -15 -15 -15 -15 -16 -16 -16 -16 -16 -16 -16 -17 -17 -17 -17 -17 -17
-11 -11 -11 -11 -11 -12 -12 -12 -12 -12 -12 -13 -13 -13 -13 -13 -13 -13 -13 -14 -14 -14 -15 -15 -15 -15 -16 -16 -16 -16 -16 -17 -17 -17 -17 -17 -17 -17 -17 -17 -17 -18 -18
-11 -11 -12 -12 -12 -12 -13 -12 -13 -13 -13 -13 -13 -13 -14 -14 -14 -14 -15 -15 -15 -15 -15 -15 -16 -16 -16 -16 -16 -16 -17 -17 -17 -17 -17 -18 -18 -18 -18 -18 -18 -19 -19
-11 -12 -12 -13 -13 -13 -13 -14 -14 -13 -13 -14 -14 -14 -15 -15 -15 -15 -15 -15 -15 -15 -16 -16 -17 -17 -16 -17 -17 -18 -18 -18 -18 -18 -18 -18 -18 -19 -19 -19 -19 -19 -20
-12 -13 -13 -14 -14 -15 -14 -14 -14 -14 -14 -15 -15 -15 -15 -15 -15 -15 -16 -16 -16 -17 -17 -17 -17 -18 -18 -18 -18 -18 -18 -18 -19 -19 -19 -19 -20 -20 -20 -20 -21 -21 -21
-13 -13 -14 -14 -14 -14 -14 -14 -15 -15 -16 -16 -16 -16 -16 -16 -16 -16 -17 -17 -18 -18 -18 -18 -18 -18 -18 -18 -19 -19 -19 -19 -20 -20 -20 -20 -21 -21 -21 -21 -22 -22 -22
-13 -14 -15 -14 -14 -14 -14 -15 -15 -16 -16 -16 -16 -16 -16 -16 -16 -17 -17 -18 -18 -18 -18 -18 -18 -19 -19 -19 -19 -20 -20 -20 -20 -21 -21 -21 -22 -22 -22 -22 -22 -22 -23
-14 -14 -14 -14 -15 -15 -15 -15 -15 -16 -17 -16 -16 -16 -16 -17 -17 -17 -18 -18 -18 -18 -18 -19 -19 -20 -20 -20 -20 -21 -21 -21 -21 -21 -22 -22 -22 -22 -23 -23 -23 -23 -23
-15 -14 -14 -15 -15 -16 -16 -16 -17 -16 -17 -17 -16 -16 -17 -17 -17 -17 -18 -18 -18 -19 -19 -19 -20 -20 -20 -21 -21 -21 -21 -21 -21 -22 -22 -22 -23 -23 -23 -23 -23 -23 -23

GFSGL_500_temp_036.txt.gz
Temp
-9 -10 -10 -9 -9 -9 -9 -9 -8 -8 -8 -7 -7 -7 -7 -7 -6 -6 -6 -6 -6 -6 -6 -6 -6 -7 -7 -7 -7 -7 -7 -7 -8 -8 -8 -8 -8 -8 -8 -8 -8 -8 -8
-9 -10 -10 -10 -10 -9 -9 -9 -8 -8 -8 -8 -7 -7 -7 -7 -7 -6 -6 -6 -6 -6 -6 -6 -6 -7 -7 -7 -7 -7 -7 -7 -7 -7 -7 -7 -7 -7 -8 -8 -8 -8 -7
-9 -10 -10 -10 -10 -10 -9 -9 -8 -8 -8 -8 -8 -7 -7 -7 -7 -7 -6 -6 -6 -6 -6 -7 -7 -7 -7 -7 -7 -7 -7 -7 -7 -7 -7 -7 -7 -7 -7 -7 -7 -7 -7
-10 -10 -10 -10 -10 -10 -9 -9 -9 -8 -8 -8 -8 -7 -8 -7 -7 -7 -7 -7 -7 -7 -7 -7 -7 -7 -7 -7 -7 -7 -7 -7 -7 -7 -7 -7 -7 -7 -8 -8 -8 -8 -8
-10 -10 -10 -10 -10 -10 -9 -10 -9 -9 -9 -8 -8 -8 -7 -7 -7 -7 -7 -7 -7 -7 -7 -7 -7 -7 -7 -7 -7 -7 -7 -7 -7 -7 -7 -7 -7 -7 -7 -7 -7 -8 -8
-10 -10 -9 -10 -10 -10 -10 -9 -9 -9 -8 -8 -8 -8 -8 -7 -7 -7 -8 -8 -7 -7 -7 -7 -7 -7 -7 -7 -7 -7 -7 -7 -7 -7 -7 -7 -7 -7 -7 -7 -8 -8 -8
-10 -10 -10 -10 -10 -10 -10 -9 -9 -9 -8 -8 -8 -8 -8 -8 -8 -8 -8 -8 -8 -8 -8 -8 -8 -8 -8 -8 -8 -8 -8 -7 -7 -7 -7 -8 -8 -8 -8 -8 -8 -9 -9
-10 -11 -11 -10 -10 -10 -10 -9 -10 -9 -9 -9 -8 -8 -8 -8 -9 -9 -9 -8 -8 -8 -8 -8 -8 -8 -8 -8 -8 -8 -8 -8 -8 -8 -8 -9 -9 -9 -9 -9 -9 -10 -10
-9 -10 -11 -11 -11 -11 -11 -10 -10 -10 -10 -9 -9 -9 -9 -9 -9 -9 -9 -8 -8 -9 -9 -9 -8 -8 -8 -8 -8 -8 -8 -8 -9 -9 -9 -10 -10 -10 -10 -11 -11 -11 -12
-9 -10 -11 -11 -11 -11 -10 -10 -10 -10 -10 -10 -10 -10 -9 -9 -9 -9 -9 -9 -9 -9 -9 -9 -9 -9 -9 -9 -9 -9 -9 -9 -10 -10 -10 -11 -11 -11 -12 -12 -12 -12 -12
-10 -11 -11 -11 -11 -11 -10 -10 -10 -10 -10 -10 -10 -10 -10 -10 -10 -9 -9 -9 -9 -10 -9 -10 -9 -9 -9 -9 -9 -10 -10 -10 -10 -11 -11 -12 -12 -12 -13 -13 -13 -13 -13
-11 -11 -11 -11 -11 -11 -11 -10 -11 -11 -10 -10 -10 -10 -10 -10 -10 -10 -10 -10 -10 -10 -10 -10 -10 -10 -10 -10 -10 -10 -10 -11 -12 -12 -12 -13 -13 -13 -14 -14 -14 -14 -14
-11 -11 -11 -11 -11 -11 -11 -11 -11 -11 -11 -11 -11 -11 -11 -10 -10 -10 -10 -10 -10 -10 -10 -10 -11 -11 -11 -11 -11 -11 -11 -12 -12 -13 -13 -13 -14 -14 -14 -14 -15 -15 -15
-11 -11 -11 -11 -11 -11 -11 -11 -11 -11 -11 -11 -11 -11 -10 -10 -10 -10 -10 -10 -11 -11 -11 -11 -11 -11 -11 -11 -11 -12 -12 -13 -13 -13 -14 -14 -14 -14 -15 -15 -15 -15 -15
-11 -11 -11 -11 -10 -10 -10 -10 -10 -11 -11 -11 -11 -11 -11 -11 -11 -11 -11 -11 -11 -11 -11 -11 -11 -11 -11 -12 -12 -13 -13 -13 -14 -14 -15 -15 -15 -15 -15 -15 -15 -15 -16
-10 -11 -10 -10 -10 -10 -10 -10 -10 -11 -11 -11 -11 -11 -12 -11 -12 -12 -12 -12 -12 -12 -12 -12 -12 -12 -13 -13 -14 -14 -14 -14 -15 -15 -15 -15 -15 -15 -16 -16 -16 -16 -16
-10 -10 -10 -10 -10 -11 -11 -11 -11 -11 -11 -12 -12 -12 -12 -12 -12 -13 -13 -13 -13 -13 -12 -13 -13 -14 -14 -14 -14 -15 -15 -15 -16 -16 -16 -16 -16 -17 -17 -17 -17 -17 -17
-11 -10 -10 -10 -11 -11 -11 -11 -11 -11 -12 -12 -12 -12 -13 -13 -13 -13 -13 -13 -13 -13 -13 -14 -14 -14 -15 -15 -15 -15 -16 -16 -16 -16 -16 -17 -17 -17 -17 -17 -17 -18 -18
-11 -11 -11 -11 -11 -11 -11 -11 -11 -12 -12 -13 -13 -13 -13 -13 -13 -14 -14 -14 -14 -14 -14 -15 -15 -15 -15 -16 -16 -16 -16 -16 -16 -17 -17 -18 -18 -18 -18 -18 -18 -18 -18
-11 -11 -11 -11 -11 -11 -11 -11 -12 -13 -13 -13 -13 -14 -14 -14 -14 -14 -14 -15 -15 -15 -15 -16 -16 -16 -16 -17 -17 -17 -17 -17 -18 -18 -18 -18 -18 -19 -19 -19 -19 -19 -20
-11 -11 -11 -12 -12 -12 -12 -12 -13 -13 -13 -13 -14 -14 -14 -15 -15 -15 -15 -15 -15 -16 -16 -16 -17 -17 -17 -17 -17 -18 -18 -18 -18 -19 -19 -19 -19 -20 -20 -20 -20 -20 -21
-12 -12 -12 -12 -13 -13 -13 -13 -14 -14 -14 -14 -14 -15 -15 -15 -15 -15 -16 -16 -16 -16 -17 -17 -17 -18 -18 -18 -18 -18 -19 -19 -19 -20 -20 -20 -20 -20 -20 -21 -21 -21 -22
-12 -12 -13 -13 -13 -13 -14 -15 -14 -14 -14 -14 -15 -15 -16 -16 -16 -16 -16 -17 -17 -18 -18 -18 -18 -18 -18 -18 -19 -19 -19 -20 -20 -20 -21 -21 -21 -21 -21 -22 -22 -22 -22
-13 -13 -14 -13 -13 -14 -15 -15 -15 -15 -15 -15 -16 -16 -16 -16 -17 -17 -17 -17 -17 -17 -18 -18 -18 -18 -19 -19 -19 -19 -20 -20 -21 -21 -21 -21 -22 -22 -22 -22 -22 -23 -23
-14 -14 -14 -15 -15 -15 -15 -15 -16 -16 -16 -16 -16 -17 -17 -17 -17 -17 -17 -18 -18 -18 -18 -19 -19 -19 -19 -19 -20 -20 -21 -21 -21 -21 -21 -22 -22 -22 -22 -23 -23 -23 -23
-15 -15 -15 -15 -15 -15 -15 -16 -16 -16 -16 -16 -16 -17 -17 -17 -17 -18 -18 -18 -18 -19 -19 -19 -19 -20 -20 -20 -20 -21 -21 -21 -21 -21 -22 -22 -22 -22 -23 -23 -23 -23 -24

GFSGL_500_temp_039.txt.gz
Temp
-8 -8 -9 -10 -10 -9 -9 -9 -8 -8 -7 -7 -7 -7 -7 -6 -6 -6 -6 -6 -6 -6 -6 -6 -6 -6 -7 -7 -7 -7 -7 -7 -7 -8 -9 -8 -8 -8 -9 -9 -8 -8 -8
-9 -9 -9 -9 -9 -9 -9 -9 -9 -8 -8 -7 -7 -7 -7 -7 -6 -6 -6 -6 -6 -6 -6 -7 -7 -7 -7 -7 -7 -7 -7 -7 -7 -7 -7 -9 -7 -8 -8 -8 -8 -8 -8
-9 -9 -9 -9 -9 -9 -9 -9 -9 -8 -8 -7 -7 -7 -7 -7 -7 -7 -6 -7 -7 -7 -7 -7 -7 -7 -7 -7 -7 -8 -8 -8 -8 -8 -8 -8 -8 -8 -8 -8 -8 -8 -8
-9 -9 -9 -9 -9 -9 -9 -9 -9 -8 -8 -8 -7 -7 -7 -7 -7 -7 -7 -7 -7 -7 -7 -7 -7 -7 -7 -7 -7 -7 -7 -8 -8 -8 -8 -8 -8 -8 -8 -8 -8 -8 -8
-9 -9 -9 -9 -9 -9 -9 -9 -9 -8 -8 -8 -7 -7 -7 -7 -7 -7 -7 -7 -8 -8 -8 -7 -7 -7 -7 -7 -7 -7 -8 -8 -8 -8 -8 -8 -8 -8 -8 -8 -8 -8 -8
-10 -10 -10 -9 -9 -9 -9 -9 -9 -9 -8 -8 -8 -7 -7 -7 -7 -7 -7 -7 -7 -7 -7 -8 -8 -8 -7 -8 -8 -8 -8 -8 -8 -7 -7 -7 -8 -8 -8 -8 -8 -8 -8
-10 -10 -10 -10 -9 -9 -9 -9 -9 -9 -8 -8 -8 -8 -8 -8 -8 -8 -8 -8 -8 -8 -8 -8 -8 -8 -8 -8 -8 -8 -8 -8 -8 -8 -8 -8 -8 -8 -8 -8 -8 -9 -9
-10 -10 -10 -9 -9 -10 -10 -9 -9 -10 -9 -9 -8 -8 -8 -8 -9 -9 -9 -8 -8 -8 -8 -8 -8 -8 -8 -8 -8 -8 -8 -8 -8 -8 -8 -8 -8 -9 -9 -9 -10 -10 -10
-10 -10 -10 -10 -9 -10 -9 -9 -10 -10 -10 -9 -9 -9 -9 -9 -9 -9 -9 -9 -9 -9 -9 -9 -9 -9 -9 -9 -9 -9 -9 -9 -9 -9 -9 -9 -9 -9 -10 -10 -11 -11 -11
-10 -9 -10 -10 -10 -10 -10 -10 -10 -10 -10 -10 -10 -9 -9 -9 -9 -9 -9 -9 -9 -9 -9 -9 -9 -9 -9 -9 -9 -9 -9 -9 -9 -9 -9 -9 -10 -10 -10 -11 -12 -12 -13
-10 -10 -10 -10 -10 -10 -10 -10 -11 -11 -10 -10 -10 -10 -10 -9 -9 -9 -9 -9 -9 -9 -9 -9 -9 -9 -10 -10 -10 -10 -10 -10 -10 -10 -10 -10 -11 -11 -12 -12 -13 -13 -13
-11 -10 -10 -10 -10 -10 -10 -11 -10 -11 -10 -10 -10 -10 -10 -10 -10 -10 -10 -10 -10 -10 -10 -10 -10 -10 -11 -11 -11 -11 -10 -10 -11 -11 -11 -12 -12 -12 -13 -13 -13 -14 -14
-10 -11 -10 -10 -11 -11 -10 -10 -10 -10 -10 -10 -10 -10 -10 -10 -10 -10 -10 -10 -10 -10 -10 -11 -11 -11 -11 -11 -11 -11 -11 -12 -12 -12 -13 -13 -13 -14 -14 -14 -14 -15 -15
-11 -10 -10 -10 -10 -11 -11 -10 -10 -10 -10 -10 -10 -10 -10 -10 -10 -10 -10 -10 -11 -11 -11 -11 -12 -12 -12 -12 -12 -12 -12 -13 -13 -13 -14 -14 -14 -15 -15 -15 -15 -15 -15
-10 -11 -11 -11 -11 -11 -11 -10 -10 -11 -10 -10 -10 -10 -10 -10 -10 -10 -11 -11 -11 -11 -12 -12 -12 -12 -12 -12 -13 -13 -13 -14 -14 -15 -15 -15 -15 -15 -15 -16 -16 -16 -16
-10 -11 -11 -11 -10 -11 -11 -11 -11 -11 -11 -11 -11 -11 -11 -11 -11 -11 -11 -12 -12 -12 -12 -12 -13 -13 -13 -13 -13 -14 -14 -14 -15 -15 -15 -15 -15 -15 -16 -16 -16 -17 -17
-10 -11 -11 -11 -11 -11 -11 -11 -11 -11 -11 -11 -11 -11 -11 -11 -12 -12 -12 -12 -12 -13 -13 -13 -13 -14 -14 -14 -14 -15 -15 -15 -15 -15 -16 -16 -16 -16 -16 -17 -17 -17 -17
-11 -11 -11 -11 -11 -11 -11 -11 -11 -11 -11 -11 -11 -12 -12 -12 -12 -13 -13 -13 -13 -14 -14 -14 -14 -15 -15 -15 -15 -15 -15 -16 -16 -16 -16 -17 -17 -17 -17 -17 -17 -18 -18
-10 -11 -11 -11 -11 -11 -11 -11 -11 -11 -12 -12 -12 -13 -13 -13 -13 -13 -13 -13 -14 -14 -14 -15 -15 -15 -15 -15 -15 -16 -16 -16 -16 -17 -17 -17 -17 -18 -18 -18 -19 -19 -19
-11 -11 -11 -11 -11 -11 -11 -12 -12 -12 -12 -13 -13 -13 -13 -14 -14 -14 -14 -14 -14 -15 -15 -15 -16 -15 -16 -16 -16 -16 -17 -17 -17 -17 -18 -18 -18 -19 -19 -20 -20 -20 -20
-11 -11 -11 -12 -12 -12 -12 -12 -13 -13 -13 -13 -13 -13 -14 -14 -14 -14 -14 -15 -15 -16 -16 -16 -16 -16 -17 -17 -17 -17 -17 -18 -18 -18 -18 -19 -19 -19 -20 -20 -20 -20 -21
-11 -12 -12 -12 -12 -12 -12 -13 -13 -13 -13 -13 -14 -14 -14 -14 -14 -14 -15 -15 -16 -16 -16 -16 -17 -17 -17 -17 -17 -18 -18 -18 -19 -19 -19 -19 -20 -20 -20 -20 -21 -21 -21
-12 -12 -12 -12 -12 -13 -13 -13 -13 -13 -14 -14 -15 -15 -15 -15 -15 -15 -16 -16 -16 -17 -17 -17 -17 -17 -17 -18 -18 -18 -19 -19 -19 -19 -20 -20 -20 -20 -21 -21 -21 -21 -21
-13 -13 -13 -13 -14 -14 -14 -14 -14 -14 -15 -15 -15 -15 -15 -15 -16 -16 -16 -16 -17 -17 -17 -17 -18 -18 -18 -19 -19 -19 -19 -19 -20 -20 -20 -20 -21 -21 -21 -21 -22 -22 -22
-14 -15 -15 -15 -15 -14 -14 -14 -15 -15 -15 -15 -15 -15 -16 -16 -16 -16 -17 -17 -17 -17 -18 -18 -18 -18 -19 -19 -19 -20 -20 -20 -20 -20 -20 -21 -21 -21 -21 -22 -22 -22 -22
-15 -15 -15 -15 -15 -15 -15 -15 -15 -15 -16 -16 -16 -16 -16 -17 -17 -17 -17 -17 -18 -18 -18 -18 -19 -19 -19 -20 -20 -20 -20 -20 -20 -21 -21 -21 -21 -21 -21 -22 -22 -22 -22

GFSGL_500_temp_042.txt.gz
Temp
-8 -9 -9 -9 -9 -8 -8 -8 -8 -8 -8 -8 -7 -7 -7 -7 -6 -6 -6 -6 -6 -6 -6 -6 -6 -7 -7 -7 -7 -7 -8 -8 -8 -8 -8 -8 -8 -8 -8 -8 -8 -8 -8
-8 -9 -9 -8 -8 -8 -8 -8 -8 -8 -8 -7 -7 -7 -7 -7 -7 -6 -6 -6 -6 -6 -6 -7 -7 -7 -7 -7 -7 -7 -7 -8 -7 -7 -8 -7 -8 -8 -8 -7 -7 -8 -8
-9 -9 -9 -8 -9 -9 -9 -8 -8 -8 -8 -7 -7 -7 -7 -7 -7 -7 -7 -7 -7 -7 -7 -7 -7 -7 -7 -7 -7 -7 -7 -7 -7 -7 -7 -7 -8 -8 -7 -7 -7 -8 -8
-10 -9 -9 -9 -9 -10 -9 -9 -9 -9 -8 -8 -8 -7 -7 -7 -7 -7 -7 -7 -7 -7 -7 -7 -7 -7 -7 -7 -7 -7 -7 -7 -7 -7 -7 -7 -7 -7 -7 -8 -8 -8 -8
-10 -10 -10 -9 -9 -9 -9 -9 -9 -9 -9 -8 -8 -7 -7 -7 -7 -7 -7 -7 -7 -7 -7 -7 -7 -7 -7 -7 -7 -7 -7 -7 -7 -8 -8 -7 -7 -7 -8 -8 -8 -7 -8
-10 -10 -9 -9 -9 -9 -9 -9 -9 -9 -9 -8 -8 -8 -7 -7 -7 -7 -7 -7 -7 -7 -7 -7 -7 -8 -8 -7 -7 -8 -8 -8 -8 -8 -8 -8 -8 -8 -8 -8 -8 -8 -8
-10 -9 -9 -10 -9 -10 -10 -9 -9 -9 -9 -9 -8 -8 -8 -7 -7 -7 -8 -8 -8 -8 -8 -8 -8 -8 -8 -8 -8 -8 -8 -8 -8 -8 -8 -8 -8 -8 -8 -8 -8 -8 -8
-9 -9 -9 -10 -10 -10 -10 -9 -9 -9 -10 -9 -9 -8 -8 -8 -8 -8 -8 -8 -8 -8 -8 -8 -8 -8 -8 -8 -8 -8 -8 -8 -8 -8 -8 -8 -8 -9 -8 -8 -8 -8 -9
-9 -10 -9 -9 -10 -10 -9 -9 -10 -10 -10 -9 -9 -9 -9 -9 -9 -9 -9 -9 -9 -8 -8 -8 -8 -8 -8 -8 -8 -8 -9 -9 -9 -9 -9 -9 -9 -9 -9 -9 -9 -10 -10
-10 -10 -10 -9 -9 -10 -9 -10 -10 -9 -9 -9 -10 -9 -9 -9 -9 -9 -9 -9 -9 -9 -8 -8 -9 -9 -9 -9 -9 -9 -9 -9 -9 -10 -10 -10 -10 -10 -10 -10 -10 -11 -11
-10 -10 -9 -9 -10 -10 -10 -10 -10 -10 -10 -10 -10 -10 -10 -9 -9 -9 -9 -9 -9 -9 -9 -9 -9 -10 -10 -10 -9 -10 -10 -10 -10 -11 -10 -10 -10 -10 -11 -11 -12 -12 -13
-10 -10 -10 -10 -10 -10 -11 -11 -10 -10 -10 -10 -10 -10 -10 -10 -10 -9 -9 -9 -9 -9 -9 -9 -9 -10 -10 -10 -10 -11 -11 -11 -11 -11 -11 -11 -11 -11 -12 -12 -13 -13 -14
-10 -10 -10 -10 -10 -10 -10 -11 -11 -10 -10 -10 -10 -10 -10 -10 -10 -10 -10 -10 -10 -10 -10 -10 -10 -11 -11 -11 -11 -11 -11 -11 -12 -12 -12 -12 -12 -13 -13 -14 -14 -14 -14
-11 -10 -10 -10 -11 -10 -10 -12 -11 -10 -10 -10 -10 -10 -10 -10 -10 -10 -10 -10 -10 -10 -11 -11 -11 -11 -12 -12 -12 -12 -12 -12 -12 -12 -13 -13 -13 -14 -14 -14 -15 -15 -15
-11 -10 -10 -10 -10 -11 -10 -10 -10 -10 -10 -10 -10 -10 -10 -10 -11 -11 -10 -10 -11 -11 -11 -12 -12 -12 -12 -12 -13 -13 -13 -13 -13 -14 -14 -14 -15 -15 -15 -15 -15 -16 -16
-11 -11 -10 -10 -10 -10 -10 -10 -11 -10 -10 -10 -10 -10 -11 -11 -11 -11 -11 -11 -11 -12 -12 -12 -12 -13 -13 -13 -13 -13 -14 -14 -14 -15 -15 -15 -15 -15 -16 -16 -16 -16 -17
-11 -11 -11 -11 -10 -10 -10 -11 -11 -11 -11 -11 -11 -11 -11 -11 -11 -11 -12 -12 -12 -12 -13 -13 -13 -13 -13 -14 -14 -14 -15 -15 -15 -15 -15 -16 -16 -16 -16 -17 -17 -17 -17
-11 -11 -11 -11 -11 -11 -11 -11 -11 -11 -11 -11 -11 -11 -11 -12 -12 -12 -12 -13 -13 -13 -13 -13 -14 -14 -14 -14 -15 -15 -15 -15 -16 -16 -16 -16 -16 -17 -17 -17 -18 -18 -18
-11 -11 -11 -11 -11 -11 -11 -11 -11 -11 -11 -11 -12 -12 -12 -12 -12 -13 -13 -14 -14 -14 -14 -14 -14 -15 -15 -15 -15 -16 -16 -16 -16 -16 -17 -17 -17 -18 -18 -18 -18 -18 -19
-11 -11 -11 -11 -11 -11 -11 -11 -11 -11 -11 -12 -12 -12 -12 -12 -13 -13 -14 -14 -14 -14 -14 -15 -15 -15 -15 -16 -16 -16 -16 -16 -17 -17 -17 -18 -18 -18 -19 -19 -19 -19 -19
-11 -11 -11 -11 -11 -11 -12 -12 -12 -12 -12 -12 -12 -12 -12 -13 -13 -14 -14 -14 -14 -14 -15 -15 -16 -16 -16 -16 -16 -16 -17 -17 -17 -18 -18 -18 -19 -19 -19 -19 -19 -20 -20
-12 -12 -11 -11 -12 -12 -12 -12 -12 -12 -13 -13 -13 -13 -13 -13 -15 -15 -15 -14 -15 -15 -16 -16 -16 -16 -16 -17 -17 -17 -17 -17 -18 -18 -19 -19 -19 -19 -19 -19 -20 -20 -20
-12 -12 -12 -12 -12 -12 -12 -13 -13 -13 -13 -14 -14 -13 -14 -14 -15 -15 -15 -15 -16 -16 -16 -16 -16 -17 -17 -17 -17 -18 -18 -18 -18 -19 -19 -19 -19 -19 -19 -20 -20 -20 -20
-12 -12 -12 -13 -13 -13 -13 -14 -14 -14 -14 -14 -14 -14 -15 -15 -16 -16 -16 -16 -16 -16 -16 -16 -17 -17 -17 -17 -18 -18 -18 -19 -19 -19 -19 -19 -20 -20 -20 -20 -20 -20 -21
-13 -14 -14 -14 -14 -14 -14 -14 -14 -15 -15 -15 -15 -15 -15 -16 -16 -16 -16 -16 -16 -17 -17 -17 -17 -18 -18 -18 -18 -19 -19 -19 -19 -19 -20 -20 -20 -20 -20 -20 -21 -21 -21
-15 -15 -15 -15 -15 -15 -15 -15 -15 -15 -15 -15 -15 -16 -16 -16 -16 -17 -16 -17 -17 -17 -17 -18 -18 -18 -18 -18 -19 -19 -19 -20 -19 -20 -20 -20 -20 -20 -21 -21 -21 -21 -21

GFSGL_500_temp_048.txt.gz
Temp
-9 -8 -8 -8 -8 -8 -8 -8 -9 -8 -8 -7 -7 -6 -6 -6 -6 -6 -6 -6 -6 -6 -6 -6 -6 -7 -7 -7 -7 -7 -7 -7 -7 -7 -7 -7 -7 -8 -7 -8 -8 -7 -7
-8 -8 -7 -8 -9 -8 -8 -8 -8 -8 -8 -7 -7 -7 -7 -6 -6 -6 -6 -6 -6 -6 -7 -7 -7 -7 -7 -7 -7 -7 -7 -7 -7 -7 -7 -7 -7 -7 -7 -7 -7 -7 -7
-9 -9 -8 -9 -9 -8 -8 -8 -8 -8 -8 -8 -7 -7 -7 -7 -7 -7 -7 -7 -7 -7 -7 -7 -7 -7 -7 -7 -7 -7 -7 -7 -7 -7 -7 -7 -7 -7 -7 -7 -7 -7 -7
-8 -9 -9 -9 -9 -9 -8 -8 -8 -9 -8 -7 -7 -8 -7 -7 -7 -7 -7 -7 -7 -7 -7 -7 -7 -7 -7 -7 -7 -7 -7 -7 -7 -7 -7 -7 -7 -7 -7 -7 -7 -7 -7
-8 -8 -9 -10 -9 -9 -9 -9 -9 -9 -8 -8 -8 -8 -8 -7 -7 -7 -7 -7 -7 -7 -7 -7 -7 -7 -7 -8 -8 -8 -8 -8 -8 -8 -8 -8 -8 -8 -8 -8 -8 -8 -8
-8 -8 -9 -9 -9 -9 -9 -9 -8 -8 -8 -8 -8 -8 -8 -8 -7 -7 -7 -7 -7 -7 -7 -7 -8 -8 -8 -8 -8 -8 -8 -8 -8 -8 -8 -8 -8 -8 -8 -8 -8 -8 -9
-9 -9 -9 -8 -8 -9 -9 -8 -8 -8 -8 -8 -9 -8 -8 -8 -8 -7 -7 -7 -8 -8 -8 -8 -8 -8 -8 -8 -8 -8 -8 -8 -8 -8 -8 -8 -8 -8 -9 -9 -9 -9 -9
-9 -9 -9 -8 -8 -8 -9 -9 -9 -9 -9 -9 -9 -9 -8 -8 -8 -8 -8 -8 -9 -9 -9 -9 -9 -9 -9 -9 -9 -9 -9 -9 -8 -9 -9 -9 -9 -9 -9 -9 -9 -9 -10
-9 -9 -9 -8 -8 -8 -9 -9 -9 -9 -9 -9 -10 -9 -9 -9 -9 -9 -9 -9 -9 -9 -9 -9 -9 -9 -9 -9 -9 -9 -9 -9 -9 -9 -9 -9 -9 -10 -10 -10 -10 -10 -11
-9 -9 -9 -8 -8 -8 -8 -9 -9 -9 -9 -9 -10 -10 -9 -9 -10 -10 -9 -9 -9 -9 -9 -9 -9 -9 -9 -9 -9 -9 -9 -9 -9 -10 -10 -10 -10 -10 -11 -11 -11 -11 -11
-10 -9 -9 -9 -8 -8 -8 -8 -9 -9 -9 -10 -10 -10 -10 -10 -10 -10 -9 -9 -9 -9 -9 -10 -10 -9 -9 -9 -9 -10 -10 -10 -10 -10 -10 -10 -11 -11 -11 -11 -12 -12 -12
-10 -10 -10 -10 -9 -9 -8 -9 -9 -9 -10 -10 -10 -10 -10 -10 -10 -10 -10 -10 -9 -10 -9 -9 -9 -9 -9 -9 -10 -10 -10 -10 -10 -10 -11 -11 -11 -12 -12 -12 -12 -13 -13
-10 -10 -10 -10 -10 -10 -10 -9 -10 -10 -10 -10 -10 -10 -10 -10 -10 -10 -10 -10 -10 -10 -10 -10 -10 -10 -10 -10 -10 -10 -10 -10 -11 -11 -11 -11 -12 -12 -12 -13 -13 -14 -14
-10 -10 -11 -11 -10 -10 -11 -11 -11 -10 -10 -10 -10 -11 -11 -11 -10 -10 -10 -10 -10 -10 -10 -10 -10 -10 -10 -10 -10 -10 -11 -11 -11 -11 -12 -12 -12 -13 -13 -14 -14 -14 -14
-10 -10 -11 -11 -11 -12 -12 -12 -12 -11 -11 -10 -11 -11 -11 -10 -10 -10 -10 -10 -10 -10 -10 -10 -10 -10 -10 -11 -11 -11 -12 -12 -12 -12 -13 -13 -13 -13 -14 -14 -14 -15 -15
-11 -11 -11 -11 -12 -11 -11 -10 -11 -10 -10 -10 -10 -10 -11 -10 -10 -10 -11 -11 -10 -10 -11 -11 -10 -11 -11 -11 -12 -12 -12 -12 -13 -13 -13 -13 -14 -14 -14 -14 -15 -15 -15
-11 -12 -12 -12 -11 -11 -10 -10 -10 -10 -10 -10 -10 -10 -11 -11 -11 -11 -11 -11 -11 -11 -11 -11 -11 -12 -12 -12 -12 -12 -13 -13 -13 -13 -14 -15 -15 -14 -15 -15 -15 -16 -16
-12 -11 -11 -11 -12 -12 -11 -11 -11 -11 -11 -11 -11 -11 -11 -11 -11 -11 -11 -11 -11 -11 -11 -12 -12 -12 -12 -13 -13 -13 -13 -13 -14 -14 -15 -15 -15 -15 -15 -16 -16 -16 -17
-11 -11 -12 -12 -11 -12 -12 -11 -11 -11 -11 -11 -11 -11 -11 -11 -12 -12 -12 -12 -12 -12 -12 -12 -12 -13 -13 -13 -14 -14 -14 -14 -14 -15 -15 -15 -16 -16 -16 -16 -17 -17 -17
-11 -11 -11 -11 -11 -11 -11 -12 -11 -11 -11 -11 -12 -11 -12 -12 -12 -12 -12 -12 -12 -12 -13 -13 -13 -13 -13 -14 -14 -15 -15 -15 -15 -15 -15 -16 -16 -16 -17 -17 -17 -18 -18
-11 -11 -11 -11 -11 -11 -11 -11 -11 -11 -11 -11 -12 -12 -12 -12 -12 -12 -13 -13 -13 -13 -13 -13 -13 -14 -14 -14 -15 -15 -15 -15 -15 -16 -16 -16 -17 -17 -17 -18 -18 -18 -18
-11 -11 -11 -11 -11 -11 -11 -11 -11 -12 -12 -11 -11 -12 -12 -12 -12 -13 -13 -13 -13 -14 -14 -14 -15 -14 -14 -15 -16 -16 -16 -16 -16 -16 -16 -17 -17 -17 -18 -18 -18 -19 -19
-11 -11 -11 -11 -11 -11 -11 -12 -12 -12 -12 -12 -12 -12 -13 -13 -13 -13 -14 -15 -15 -15 -15 -15 -15 -16 -15 -15 -16 -16 -16 -16 -17 -17 -17 -17 -18 -18 -18 -18 -19 -19 -19
-11 -11 -12 -12 -12 -12 -12 -13 -13 -13 -13 -13 -12 -13 -14 -14 -14 -15 -15 -15 -15 -15 -15 -16 -16 -16 -16 -16 -16 -16 -17 -17 -17 -17 -18 -18 -18 -18 -19 -19 -19 -19 -19
-13 -13 -13 -13 -13 -14 -14 -14 -14 -14 -14 -15 -14 -15 -14 -14 -14 -15 -15 -15 -15 -15 -15 -15 -16 -17 -17 -17 -17 -17 -17 -18 -18 -18 -18 -18 -18 -19 -19 -19 -20 -20 -20
-14 -14 -15 -15 -15 -15 -15 -15 -15 -15 -14 -15 -15 -15 -15 -15 -15 -15 -15 -16 -16 -16 -16 -16 -16 -17 -17 -17 -18 -18 -18 -18 -18 -18 -19 -19 -19 -19 -19 -20 -20 -20 -20

GFSGL_500_temp_051.txt.gz
Temp
-9 -8 -7 -8 -7 -8 -8 -8 -8 -8 -8 -8 -7 -7 -6 -6 -6 -6 -5 -6 -6 -6 -6 -6 -6 -7 -6 -6 -6 -7 -6 -6 -6 -6 -6 -7 -7 -7 -7 -8 -7 -7 -7
-8 -8 -8 -8 -8 -8 -8 -8 -8 -8 -8 -8 -7 -7 -7 -6 -6 -6 -6 -6 -6 -6 -6 -7 -7 -7 -7 -7 -7 -7 -7 -7 -7 -7 -7 -7 -7 -7 -7 -7 -8 -8 -8
-8 -8 -8 -8 -8 -8 -8 -8 -8 -8 -8 -8 -8 -7 -7 -7 -7 -6 -6 -6 -6 -6 -6 -7 -7 -7 -7 -7 -7 -7 -7 -7 -7 -7 -7 -7 -7 -7 -8 -8 -8 -8 -8
-8 -9 -9 -8 -8 -8 -8 -9 -9 -8 -8 -8 -8 -8 -7 -7 -7 -7 -6 -6 -7 -7 -7 -7 -7 -7 -7 -7 -7 -8 -8 -8 -8 -7 -7 -7 -8 -8 -8 -8 -8 -8 -8
-8 -8 -9 -9 -9 -9 -9 -8 -9 -8 -8 -8 -8 -8 -8 -7 -7 -7 -7 -7 -7 -7 -7 -7 -8 -8 -8 -8 -8 -8 -8 -8 -8 -8 -8 -8 -8 -8 -8 -8 -8 -8 -8
-8 -8 -9 -9 -9 -9 -9 -9 -9 -8 -8 -9 -8 -8 -8 -7 -7 -7 -7 -7 -7 -7 -7 -8 -8 -8 -8 -8 -8 -8 -8 -9 -9 -8 -8 -8 -8 -8 -8 -9 -9 -9 -9
-8 -8 -9 -8 -9 -8 -8 -8 -8 -8 -9 -9 -8 -8 -8 -8 -8 -8 -8 -8 -8 -8 -8 -8 -8 -8 -8 -8 -9 -9 -9 -9 -9 -9 -9 -9 -9 -9 -9 -9 -9 -9 -9
-9 -9 -9 -9 -9 -8 -8 -8 -8 -9 -9 -9 -8 -9 -9 -9 -8 -8 -8 -9 -9 -9 -9 -9 -9 -9 -9 -9 -9 -9 -9 -9 -9 -9 -9 -9 -9 -9 -9 -9 -10 -10 -10
-9 -9 -9 -9 -9 -8 -8 -8 -8 -8 -9 -9 -9 -9 -9 -9 -9 -9 -9 -9 -9 -9 -9 -9 -9 -9 -9 -9 -9 -9 -9 -9 -9 -9 -9 -9 -9 -10 -10 -10 -10 -10 -11
-9 -9 -9 -9 -9 -8 -8 -8 -8 -9 -9 -9 -10 -10 -10 -10 -10 -10 -9 -9 -9 -9 -9 -9 -9 -9 -9 -9 -9 -9 -9 -9 -9 -9 -9 -10 -10 -10 -10 -10 -10 -11 -11
-9 -10 -10 -9 -9 -9 -9 -8 -8 -8 -9 -9 -9 -10 -10 -10 -10 -10 -9 -9 -9 -9 -9 -9 -9 -9 -9 -9 -9 -9 -9 -9 -9 -10 -10 -10 -11 -10 -10 -11 -11 -12 -12
-10 -9 -9 -9 -8 -9 -10 -9 -9 -9 -9 -9 -9 -10 -11 -10 -10 -10 -10 -10 -10 -10 -9 -9 -9 -9 -10 -10 -10 -10 -10 -10 -10 -10 -10 -11 -11 -11 -11 -12 -12 -12 -13
-10 -10 -10 -9 -9 -9 -10 -10 -9 -9 -9 -10 -10 -10 -10 -10 -10 -11 -10 -10 -10 -10 -10 -9 -10 -10 -10 -10 -10 -10 -10 -10 -10 -11 -11 -11 -11 -12 -12 -12 -13 -13 -13
-10 -10 -10 -10 -10 -11 -10 -10 -10 -10 -10 -10 -11 -11 -11 -11 -11 -11 -11 -10 -10 -10 -10 -10 -10 -10 -10 -10 -10 -10 -10 -10 -11 -11 -11 -12 -12 -12 -13 -13 -13 -14 -14
-10 -10 -10 -10 -11 -11 -11 -11 -11 -12 -12 -12 -12 -12 -11 -11 -11 -10 -10 -10 -10 -10 -10 -10 -10 -11 -11 -11 -10 -10 -11 -11 -11 -12 -12 -13 -13 -13 -13 -14 -14 -14 -14
-11 -11 -10 -11 -11 -11 -11 -11 -11 -12 -12 -12 -11 -11 -11 -11 -11 -11 -10 -10 -10 -10 -10 -11 -11 -11 -11 -11 -11 -11 -12 -12 -12 -13 -13 -13 -13 -13 -14 -14 -14 -15 -15
-11 -11 -11 -11 -11 -12 -12 -12 -11 -11 -11 -11 -11 -11 -11 -11 -11 -11 -11 -11 -11 -11 -11 -11 -11 -11 -11 -11 -11 -12 -12 -13 -13 -13 -13 -14 -14 -14 -14 -14 -15 -15 -16
-11 -11 -11 -11 -11 -11 -11 -11 -11 -11 -11 -11 -11 -11 -11 -11 -11 -11 -11 -11 -11 -11 -11 -11 -11 -11 -12 -12 -12 -12 -13 -13 -14 -14 -14 -14 -14 -15 -15 -15 -15 -16 -16
-12 -11 -11 -11 -11 -11 -11 -11 -11 -11 -11 -11 -11 -11 -11 -11 -11 -11 -11 -11 -11 -11 -11 -12 -11 -12 -12 -12 -13 -13 -13 -13 -14 -14 -14 -15 -15 -15 -16 -16 -16 -16 -16
-11 -11 -11 -11 -10 -10 -10 -10 -11 -11 -11 -11 -11 -11 -11 -11 -11 -11 -11 -11 -12 -12 -12 -12 -12 -12 -13 -13 -14 -14 -14 -14 -14 -15 -15 -15 -15 -16 -16 -16 -16 -17 -17
-11 -11 -11 -11 -11 -11 -11 -11 -11 -11 -11 -11 -11 -11 -11 -11 -12 -12 -12 -12 -12 -12 -13 -13 -13 -14 -14 -14 -14 -15 -15 -15 -15 -16 -16 -15 -16 -16 -16 -17 -17 -17 -17
-12 -11 -11 -11 -11 -11 -11 -11 -11 -11 -11 -11 -11 -11 -12 -12 -12 -12 -12 -13 -13 -13 -14 -14 -15 -15 -14 -14 -15 -16 -16 -16 -16 -17 -16 -16 -17 -16 -17 -17 -17 -18 -18
-12 -11 -11 -11 -11 -11 -11 -11 -11 -11 -11 -11 -12 -12 -13 -13 -13 -13 -13 -14 -14 -14 -14 -15 -15 -14 -14 -14 -15 -15 -16 -17 -16 -16 -16 -17 -17 -17 -17 -17 -18 -18 -18
-12 -12 -11 -12 -12 -12 -12 -12 -12 -12 -12 -12 -13 -13 -13 -14 -14 -14 -15 -15 -15 -15 -15 -15 -15 -15 -15 -15 -15 -15 -16 -17 -16 -16 -17 -17 -17 -17 -18 -18 -18 -18 -18
-12 -13 -13 -13 -14 -14 -14 -14 -15 -15 -14 -15 -15 -15 -14 -15 -15 -15 -16 -16 -16 -16 -16 -16 -16 -16 -16 -16 -16 -16 -17 -17 -17 -17 -17 -17 -18 -18 -18 -18 -19 -19 -19
-14 -14 -14 -14 -14 -14 -14 -15 -15 -15 -15 -16 -16 -16 -16 -16 -16 -16 -17 -16 -16 -16 -16 -16 -16 -17 -17 -17 -17 -17 -17 -17 -18 -18 -18 -18 -18 -18 -18 -19 -19 -19 -19

GFSGL_500_temp_054.txt.gz
Temp
-8 -7 -7 -8 -7 -8 -8 -8 -9 -8 -8 -8 -8 -8 -7 -7 -7 -7 -6 -6 -6 -6 -6 -6 -6 -7 -7 -7 -7 -7 -7 -7 -7 -7 -7 -7 -7 -7 -8 -7 -8 -7 -7
-8 -8 -7 -8 -8 -8 -8 -8 -8 -9 -8 -8 -8 -8 -8 -8 -7 -7 -7 -6 -6 -6 -7 -7 -7 -6 -7 -7 -7 -7 -7 -7 -7 -7 -7 -7 -7 -7 -7 -7 -7 -8 -8
-8 -8 -8 -8 -8 -8 -8 -8 -9 -9 -8 -8 -8 -8 -8 -8 -7 -7 -7 -7 -7 -7 -7 -7 -7 -7 -7 -7 -7 -7 -7 -7 -7 -7 -7 -7 -7 -8 -8 -8 -8 -8 -8
-9 -8 -8 -8 -8 -8 -8 -8 -9 -9 -9 -9 -8 -8 -8 -8 -7 -7 -7 -7 -7 -7 -7 -7 -7 -7 -7 -7 -7 -7 -7 -8 -8 -8 -8 -8 -8 -8 -8 -8 -8 -8 -8
-9 -9 -8 -9 -9 -9 -9 -9 -8 -9 -9 -9 -9 -9 -8 -8 -8 -7 -7 -7 -7 -7 -7 -7 -7 -7 -7 -7 -8 -8 -8 -8 -8 -8 -8 -8 -8 -8 -8 -8 -8 -8 -9
-9 -9 -9 -9 -8 -9 -9 -9 -9 -9 -9 -9 -9 -9 -9 -8 -8 -7 -7 -7 -7 -7 -7 -7 -7 -7 -8 -8 -8 -8 -8 -8 -8 -8 -8 -8 -8 -8 -8 -9 -9 -9 -9
-9 -9 -9 -9 -8 -9 -8 -8 -8 -9 -9 -8 -9 -8 -9 -8 -8 -8 -8 -8 -8 -8 -8 -8 -8 -8 -8 -8 -8 -8 -8 -8 -8 -8 -8 -9 -9 -9 -9 -9 -9 -9 -9
-9 -9 -9 -9 -9 -8 -9 -8 -8 -8 -9 -9 -9 -9 -8 -8 -8 -8 -8 -8 -8 -8 -8 -9 -9 -9 -9 -9 -9 -9 -9 -9 -9 -9 -9 -9 -9 -9 -9 -9 -9 -10 -10
-9 -9 -9 -9 -9 -9 -9 -8 -8 -8 -8 -9 -10 -9 -9 -9 -9 -9 -9 -8 -9 -9 -9 -9 -9 -9 -9 -9 -9 -9 -9 -9 -9 -9 -9 -9 -9 -10 -10 -10 -10 -10 -10
-10 -9 -9 -9 -9 -9 -9 -9 -9 -8 -8 -9 -9 -9 -9 -10 -10 -9 -9 -9 -9 -9 -9 -9 -9 -9 -9 -9 -9 -9 -9 -9 -9 -9 -9 -9 -10 -10 -10 -10 -10 -11 -11
-9 -10 -10 -9 -9 -8 -9 -8 -9 -8 -8 -9 -9 -9 -10 -10 -10 -10 -10 -10 -10 -9 -10 -10 -9 -9 -9 -9 -9 -9 -9 -9 -10 -10 -10 -10 -10 -10 -11 -11 -11 -11 -12
-9 -10 -10 -10 -10 -9 -8 -9 -8 -8 -9 -9 -9 -9 -9 -10 -10 -10 -10 -10 -10 -10 -10 -10 -10 -10 -10 -9 -10 -10 -10 -10 -10 -10 -10 -10 -11 -11 -11 -11 -11 -12 -12
-10 -10 -10 -10 -10 -10 -10 -9 -9 -9 -9 -9 -9 -10 -10 -10 -10 -10 -10 -11 -12 -11 -10 -10 -10 -10 -10 -10 -10 -10 -10 -10 -10 -10 -10 -11 -11 -12 -11 -12 -12 -12 -13
-11 -11 -10 -10 -10 -10 -10 -11 -11 -10 -10 -10 -10 -10 -10 -10 -10 -10 -11 -11 -12 -11 -11 -10 -10 -10 -10 -10 -10 -10 -10 -10 -11 -11 -11 -11 -12 -12 -12 -13 -13 -13 -13
-11 -12 -11 -11 -11 -10 -11 -11 -11 -11 -11 -11 -11 -11 -11 -11 -11 -11 -11 -12 -11 -11 -11 -10 -10 -10 -11 -11 -11 -11 -11 -11 -11 -11 -12 -12 -12 -13 -13 -13 -13 -13 -14
-12 -12 -12 -11 -11 -11 -11 -11 -11 -11 -12 -11 -12 -12 -12 -12 -11 -11 -11 -11 -11 -10 -10 -10 -10 -11 -11 -11 -11 -11 -11 -11 -11 -12 -12 -13 -13 -13 -14 -14 -14 -14 -15
-12 -12 -12 -12 -12 -12 -11 -11 -11 -11 -11 -11 -11 -11 -11 -11 -11 -11 -11 -11 -11 -11 -11 -11 -11 -11 -11 -12 -12 -12 -12 -12 -12 -12 -13 -13 -14 -14 -14 -14 -14 -15 -15
-12 -12 -12 -12 -12 -12 -11 -11 -11 -11 -11 -11 -11 -11 -11 -11 -11 -11 -11 -11 -11 -11 -11 -11 -11 -11 -11 -12 -12 -12 -12 -13 -13 -13 -14 -14 -14 -14 -14 -15 -15 -15 -15
-12 -12 -12 -12 -11 -11 -11 -11 -11 -11 -11 -11 -11 -11 -11 -11 -11 -11 -11 -11 -11 -11 -12 -12 -12 -12 -12 -12 -13 -13 -13 -13 -14 -14 -14 -14 -15 -15 -15 -15 -15 -16 -16
-11 -11 -12 -11 -11 -11 -11 -11 -11 -11 -11 -11 -11 -11 -11 -11 -11 -11 -11 -11 -11 -12 -12 -12 -12 -12 -12 -12 -13 -14 -14 -14 -14 -14 -15 -15 -15 -16 -16 -16 -16 -16 -16
-12 -11 -11 -11 -11 -11 -11 -11 -11 -11 -11 -11 -11 -11 -11 -11 -11 -11 -11 -11 -12 -12 -12 -12 -13 -13 -13 -13 -14 -14 -15 -15 -14 -14 -15 -15 -16 -16 -16 -16 -17 -17 -17
-12 -11 -11 -11 -11 -11 -11 -11 -11 -11 -11 -11 -11 -11 -11 -11 -12 -12 -12 -12 -12 -13 -13 -13 -14 -14 -14 -14 -14 -15 -15 -15 -15 -15 -15 -15 -15 -16 -17 -17 -17 -17 -17
-11 -11 -11 -11 -11 -11 -11 -11 -11 -11 -11 -12 -12 -12 -12 -12 -12 -13 -13 -14 -14 -14 -14 -14 -14 -15 -15 -15 -15 -15 -15 -15 -16 -15 -16 -16 -16 -17 -17 -17 -17 -17 -18
-12 -12 -12 -12 -12 -12 -12 -12 -12 -12 -13 -13 -13 -13 -14 -14 -14 -15 -15 -15 -15 -15 -15 -16 -16 -15 -15 -15 -15 -16 -16 -16 -16 -16 -16 -17 -17 -17 -17 -18 -18 -18 -18
-12 -12 -12 -12 -13 -13 -14 -14 -14 -14 -14 -14 -15 -15 -15 -15 -15 -16 -16 -16 -16 -16 -16 -17 -17 -17 -17 -16 -16 -17 -17 -16 -16 -16 -17 -17 -18 -18 -18 -18 -18 -18 -18
-13 -13 -13 -14 -14 -14 -14 -15 -15 -15 -15 -16 -15 -15 -16 -15 -16 -16 -16 -16 -16 -17 -17 -16 -16 -16 -17 -17 -17 -17 -17 -17 -17 -17 -18 -18 -18 -18 -19 -20 -19 -19 -19

GFSGL_500_temp_057.txt.gz
Temp
-8 -8 -8 -8 -9 -8 -8 -8 -8 -8 -8 -9 -8 -8 -8 -7 -7 -7 -7 -6 -6 -7 -7 -7 -7 -7 -7 -7 -7 -7 -7 -7 -7 -7 -7 -7 -7 -7 -7 -7 -7 -7 -7
-8 -8 -8 -8 -8 -8 -8 -8 -8 -8 -8 -8 -8 -8 -8 -8 -8 -8 -7 -7 -7 -7 -7 -7 -6 -7 -7 -7 -7 -7 -7 -7 -7 -7 -7 -7 -7 -8 -8 -8 -8 -8 -8
-7 -8 -8 -9 -9 -9 -8 -8 -9 -8 -8 -8 -8 -8 -8 -8 -8 -8 -7 -7 -7 -7 -7 -7 -7 -7 -7 -7 -7 -7 -7 -7 -7 -8 -8 -8 -8 -8 -8 -8 -8 -8 -8
-7 -8 -8 -8 -9 -9 -9 -9 -9 -9 -9 -8 -9 -8 -8 -8 -8 -8 -8 -7 -7 -7 -7 -7 -7 -7 -7 -7 -7 -7 -7 -7 -7 -8 -8 -8 -8 -8 -8 -8 -8 -8 -8
-9 -9 -8 -8 -9 -9 -9 -9 -9 -9 -9 -9 -9 -9 -8 -8 -8 -8 -8 -8 -8 -7 -7 -7 -7 -7 -7 -7 -7 -7 -7 -7 -8 -8 -8 -8 -8 -8 -8 -8 -8 -8 -8
-9 -9 -9 -9 -9 -9 -9 -9 -8 -9 -9 -9 -9 -9 -9 -9 -8 -8 -8 -8 -8 -7 -7 -7 -7 -7 -7 -7 -7 -7 -8 -8 -8 -8 -8 -8 -8 -8 -8 -8 -8 -8 -9
-10 -9 -9 -9 -9 -9 -9 -9 -9 -9 -8 -9 -9 -9 -9 -9 -9 -9 -8 -8 -8 -8 -8 -8 -8 -8 -8 -8 -8 -8 -8 -8 -8 -8 -8 -8 -9 -9 -9 -9 -9 -9 -9
-9 -9 -9 -9 -9 -9 -10 -10 -9 -8 -9 -9 -9 -9 -9 -9 -9 -9 -8 -8 -9 -8 -8 -8 -8 -8 -8 -8 -8 -8 -9 -9 -9 -9 -9 -9 -9 -9 -9 -9 -9 -9 -10
-9 -10 -9 -9 -10 -10 -10 -9 -9 -9 -8 -9 -9 -9 -9 -9 -9 -9 -9 -9 -9 -9 -9 -9 -9 -9 -9 -9 -9 -9 -9 -9 -9 -9 -9 -9 -9 -9 -9 -9 -10 -10 -10
-10 -10 -10 -10 -9 -9 -9 -9 -8 -9 -9 -8 -9 -9 -9 -9 -9 -10 -10 -9 -9 -9 -9 -9 -9 -9 -9 -9 -9 -9 -9 -9 -9 -9 -9 -9 -9 -9 -10 -10 -10 -10 -11
-10 -10 -10 -10 -9 -9 -9 -9 -9 -9 -9 -9 -9 -9 -9 -10 -10 -10 -10 -10 -10 -10 -10 -10 -10 -10 -10 -10 -10 -10 -10 -10 -10 -10 -10 -10 -10 -10 -10 -10 -10 -11 -11
-11 -11 -10 -10 -10 -9 -9 -9 -9 -9 -9 -9 -9 -9 -9 -10 -10 -9 -11 -11 -11 -11 -10 -10 -10 -10 -10 -10 -10 -10 -10 -10 -10 -10 -10 -10 -10 -10 -10 -11 -11 -11 -11
-11 -11 -11 -11 -11 -11 -10 -10 -10 -9 -9 -10 -10 -9 -9 -10 -10 -10 -10 -11 -11 -10 -11 -11 -11 -11 -10 -10 -10 -10 -10 -10 -10 -10 -10 -10 -10 -10 -11 -11 -12 -12 -12
-11 -11 -11 -12 -12 -11 -11 -10 -10 -11 -10 -10 -10 -10 -10 -10 -10 -10 -11 -10 -11 -10 -11 -12 -12 -12 -11 -11 -10 -10 -10 -10 -10 -11 -11 -11 -11 -11 -11 -12 -12 -12 -13
-11 -11 -11 -12 -12 -12 -12 -12 -11 -11 -11 -11 -11 -11 -10 -11 -10 -10 -10 -11 -11 -12 -12 -11 -11 -11 -11 -11 -11 -11 -11 -11 -11 -11 -11 -11 -11 -11 -12 -13 -13 -13 -14
-11 -12 -12 -12 -12 -12 -12 -12 -12 -11 -11 -11 -11 -12 -12 -11 -11 -11 -11 -10 -11 -11 -12 -12 -11 -11 -11 -11 -11 -11 -11 -11 -11 -12 -12 -12 -12 -12 -13 -13 -13 -14 -14
-12 -12 -12 -12 -12 -12 -12 -12 -12 -11 -11 -11 -11 -11 -11 -11 -12 -11 -11 -11 -11 -12 -12 -11 -11 -11 -11 -11 -11 -11 -11 -11 -12 -12 -12 -12 -13 -13 -13 -14 -14 -15 -15
-12 -12 -12 -12 -12 -12 -12 -12 -12 -12 -11 -11 -11 -11 -11 -11 -11 -11 -11 -11 -11 -12 -12 -11 -11 -11 -11 -12 -12 -12 -12 -12 -12 -12 -12 -13 -13 -14 -14 -15 -15 -15 -15
-11 -11 -11 -11 -11 -12 -12 -11 -11 -11 -11 -11 -11 -11 -11 -11 -11 -11 -11 -11 -11 -12 -12 -12 -12 -11 -12 -12 -12 -13 -13 -13 -13 -13 -13 -13 -14 -15 -15 -15 -15 -15 -16
-11 -11 -12 -12 -12 -11 -11 -11 -11 -11 -11 -11 -11 -11 -11 -11 -11 -11 -11 -11 -11 -12 -12 -13 -12 -13 -13 -12 -13 -14 -14 -14 -14 -14 -14 -15 -15 -16 -16 -15 -15 -16 -16
-12 -11 -12 -11 -11 -11 -11 -11 -11 -11 -11 -11 -11 -10 -10 -11 -11 -11 -11 -11 -11 -11 -12 -12 -12 -13 -13 -13 -14 -15 -15 -15 -15 -15 -16 -15 -16 -16 -16 -16 -16 -16 -16
-12 -12 -12 -12 -11 -11 -11 -11 -11 -11 -11 -11 -11 -11 -11 -11 -11 -12 -11 -12 -12 -12 -12 -13 -13 -13 -14 -14 -14 -15 -15 -15 -16 -16 -16 -16 -16 -15 -16 -16 -16 -16 -17
-12 -12 -12 -12 -11 -11 -11 -11 -11 -11 -12 -12 -11 -12 -12 -12 -12 -13 -12 -13 -13 -13 -13 -14 -15 -15 -15 -15 -15 -16 -16 -16 -16 -16 -16 -16 -16 -16 -16 -16 -17 -17 -17
-12 -12 -12 -12 -12 -11 -11 -12 -12 -12 -12 -12 -13 -13 -14 -14 -14 -14 -15 -15 -15 -15 -15 -15 -15 -16 -16 -16 -16 -16 -17 -17 -17 -17 -16 -16 -17 -17 -17 -17 -17 -17 -18
-13 -13 -12 -13 -12 -13 -13 -13 -13 -14 -14 -15 -15 -15 -16 -16 -16 -16 -15 -16 -15 -15 -15 -16 -16 -17 -16 -16 -17 -17 -17 -17 -17 -17 -17 -17 -17 -17 -17 -17 -18 -18 -18
-14 -14 -14 -14 -14 -15 -15 -15 -15 -15 -15 -15 -15 -16 -16 -16 -16 -16 -16 -16 -16 -16 -16 -16 -17 -17 -17 -17 -17 -17 -17 -17 -17 -17 -17 -18 -18 -18 -18 -18 -19 -19 -19

GFSGL_500_temp_060.txt.gz
Temp
-8 -7 -7 -8 -8 -9 -9 -8 -9 -9 -8 -8 -8 -9 -10 -10 -9 -8 -9 -8 -7 -7 -7 -7 -7 -7 -7 -7 -7 -7 -7 -7 -7 -7 -7 -7 -7 -7 -7 -7 -7 -7 -7
-8 -7 -8 -8 -8 -9 -9 -9 -9 -9 -8 -9 -9 -8 -8 -8 -8 -7 -7 -7 -7 -7 -7 -7 -7 -7 -7 -7 -7 -7 -7 -7 -7 -7 -7 -7 -7 -7 -7 -7 -7 -7 -7
-8 -8 -8 -8 -9 -9 -9 -9 -9 -9 -9 -9 -8 -8 -8 -8 -8 -7 -7 -7 -7 -7 -7 -7 -7 -7 -7 -7 -7 -7 -7 -7 -7 -7 -7 -7 -8 -8 -8 -8 -8 -8 -8
-8 -9 -8 -8 -9 -9 -9 -9 -9 -9 -9 -9 -8 -8 -8 -8 -8 -8 -8 -7 -7 -7 -7 -7 -7 -7 -7 -7 -7 -7 -7 -7 -8 -8 -8 -8 -8 -8 -8 -8 -8 -8 -8
-8 -9 -9 -8 -9 -9 -9 -9 -9 -9 -9 -9 -9 -8 -8 -8 -8 -8 -8 -8 -8 -8 -7 -7 -7 -7 -7 -7 -8 -8 -7 -7 -8 -8 -8 -8 -8 -8 -8 -8 -8 -8 -8
-9 -9 -9 -8 -8 -9 -9 -9 -9 -9 -9 -9 -9 -9 -9 -8 -8 -8 -8 -8 -8 -8 -7 -7 -7 -8 -8 -8 -8 -8 -8 -8 -8 -8 -8 -8 -8 -8 -8 -8 -8 -8 -9
-9 -9 -9 -9 -8 -9 -9 -9 -9 -9 -9 -9 -9 -9 -9 -9 -9 -8 -8 -8 -8 -8 -8 -8 -8 -8 -8 -8 -8 -8 -8 -8 -8 -8 -8 -8 -8 -8 -8 -8 -9 -9 -9
-9 -9 -9 -9 -9 -9 -9 -9 -8 -9 -8 -9 -9 -9 -9 -9 -9 -9 -9 -8 -8 -8 -8 -8 -8 -8 -8 -8 -8 -8 -8 -9 -9 -9 -9 -9 -9 -9 -9 -9 -9 -9 -9
-9 -9 -8 -8 -8 -9 -9 -9 -9 -9 -8 -8 -9 -9 -9 -9 -9 -9 -9 -9 -9 -9 -9 -9 -9 -9 -8 -8 -9 -9 -9 -9 -9 -9 -9 -9 -9 -9 -9 -9 -9 -9 -9
-9 -9 -9 -9 -9 -9 -9 -9 -8 -9 -8 -8 -9 -9 -9 -9 -9 -9 -10 -9 -9 -9 -9 -9 -9 -9 -9 -9 -9 -9 -9 -9 -9 -9 -9 -9 -9 -9 -10 -10 -10 -10 -10
-10 -9 -9 -9 -9 -10 -9 -9 -8 -9 -9 -9 -9 -8 -9 -9 -9 -9 -10 -10 -10 -10 -10 -10 -10 -10 -10 -10 -10 -10 -10 -10 -10 -10 -9 -10 -10 -10 -10 -10 -10 -10 -10
-10 -10 -9 -9 -10 -10 -10 -9 -9 -9 -9 -9 -9 -9 -9 -9 -9 -10 -10 -10 -10 -11 -12 -11 -11 -10 -10 -10 -10 -10 -10 -10 -10 -10 -10 -10 -10 -10 -10 -10 -10 -11 -11
-10 -10 -10 -10 -10 -11 -10 -10 -10 -10 -9 -9 -9 -9 -10 -10 -10 -10 -10 -10 -10 -10 -10 -13 -11 -11 -11 -11 -11 -11 -11 -11 -11 -11 -11 -10 -10 -11 -11 -11 -11 -11 -11
-11 -11 -11 -10 -11 -11 -12 -12 -12 -11 -11 -10 -10 -10 -10 -10 -10 -10 -10 -10 -10 -10 -11 -11 -12 -12 -12 -12 -12 -12 -12 -11 -11 -11 -11 -11 -11 -11 -11 -11 -11 -12 -12
-11 -11 -11 -10 -11 -12 -12 -12 -12 -12 -12 -11 -11 -11 -10 -11 -10 -10 -10 -10 -11 -10 -11 -11 -11 -12 -13 -13 -12 -12 -12 -12 -11 -11 -12 -12 -12 -12 -12 -12 -12 -12 -12
-12 -11 -11 -11 -11 -12 -12 -13 -12 -12 -12 -12 -12 -11 -11 -11 -11 -11 -11 -10 -11 -11 -11 -11 -12 -12 -12 -12 -12 -12 -13 -12 -11 -11 -12 -12 -12 -12 -13 -13 -13 -13 -13
-12 -12 -11 -12 -12 -12 -12 -12 -12 -12 -12 -12 -11 -11 -11 -10 -11 -11 -11 -11 -11 -11 -11 -12 -12 -12 -12 -12 -12 -12 -11 -11 -11 -12 -12 -12 -13 -13 -13 -13 -13 -14 -14
-12 -11 -11 -11 -11 -11 -12 -12 -12 -12 -12 -11 -11 -11 -11 -11 -11 -11 -11 -10 -11 -11 -11 -12 -12 -12 -12 -12 -12 -12 -12 -12 -12 -12 -13 -13 -13 -14 -14 -14 -14 -14 -15
-11 -11 -11 -11 -11 -11 -11 -12 -12 -12 -12 -12 -11 -11 -11 -11 -11 -11 -11 -11 -11 -11 -11 -12 -11 -12 -12 -12 -13 -12 -12 -13 -13 -13 -13 -13 -13 -14 -14 -14 -15 -15 -15
-10 -10 -11 -11 -11 -11 -11 -12 -12 -12 -12 -12 -11 -11 -11 -11 -11 -11 -11 -11 -11 -11 -11 -12 -12 -12 -12 -13 -14 -13 -13 -14 -14 -14 -14 -14 -14 -15 -15 -15 -15 -16 -16
-11 -11 -11 -11 -11 -12 -12 -12 -12 -12 -11 -11 -11 -11 -11 -11 -11 -11 -11 -11 -11 -11 -11 -12 -13 -12 -13 -14 -15 -15 -14 -16 -14 -14 -15 -16 -15 -15 -15 -16 -16 -16 -16
-12 -12 -12 -11 -12 -12 -12 -12 -12 -12 -12 -12 -12 -12 -12 -12 -12 -12 -12 -12 -12 -13 -13 -13 -13 -13 -13 -14 -14 -15 -15 -15 -16 -16 -16 -16 -16 -16 -17 -16 -16 -16 -17
-13 -12 -12 -12 -12 -12 -12 -12 -12 -12 -12 -12 -12 -12 -12 -12 -13 -13 -14 -14 -15 -15 -15 -15 -15 -15 -15 -15 -15 -16 -16 -16 -16 -16 -16 -17 -17 -17 -17 -16 -17 -16 -17
-13 -13 -12 -12 -12 -12 -12 -12 -12 -13 -13 -13 -13 -14 -14 -14 -14 -15 -15 -15 -16 -16 -16 -16 -16 -16 -16 -16 -16 -16 -16 -16 -17 -16 -17 -17 -17 -17 -17 -17 -17 -17 -17
-13 -13 -13 -13 -13 -13 -13 -14 -14 -15 -15 -15 -15 -15 -15 -15 -15 -16 -16 -16 -16 -17 -17 -16 -16 -16 -16 -16 -17 -17 -17 -17 -17 -17 -17 -17 -17 -17 -18 -18 -18 -18 -18
-13 -14 -14 -14 -14 -15 -15 -15 -15 -15 -15 -15 -16 -16 -16 -16 -16 -16 -16 -17 -17 -17 -17 -17 -17 -17 -17 -17 -17 -17 -17 -18 -18 -18 -17 -17 -17 -17 -18 -18 -18 -18 -19

GFSGL_500_temp_063.txt.gz
Temp
-8 -8 -7 -8 -8 -8 -8 -8 -8 -8 -8 -8 -8 -8 -9 -9 -9 -9 -9 -10 -9 -8 -8 -7 -7 -7 -7 -7 -7 -7 -7 -7 -7 -7 -7 -7 -7 -7 -7 -7 -7 -7 -7
-8 -8 -7 -7 -8 -8 -8 -8 -8 -9 -9 -9 -8 -9 -8 -9 -9 -9 -8 -8 -8 -9 -7 -7 -7 -7 -7 -7 -7 -7 -7 -7 -7 -7 -7 -7 -7 -7 -7 -7 -7 -7 -7
-9 -8 -8 -8 -8 -9 -9 -9 -9 -9 -9 -9 -9 -9 -9 -8 -9 -9 -8 -8 -8 -7 -7 -7 -8 -8 -8 -7 -7 -7 -7 -7 -7 -7 -7 -7 -8 -8 -8 -8 -8 -8 -8
-9 -8 -8 -8 -8 -9 -9 -9 -9 -9 -9 -9 -9 -9 -9 -9 -9 -8 -8 -8 -8 -8 -7 -7 -7 -8 -8 -7 -7 -8 -7 -7 -7 -7 -7 -7 -8 -8 -8 -8 -8 -8 -8
-9 -9 -8 -8 -8 -8 -9 -9 -9 -9 -9 -9 -9 -9 -9 -9 -9 -9 -8 -8 -8 -8 -7 -7 -7 -7 -7 -7 -8 -8 -8 -8 -8 -8 -8 -8 -8 -8 -8 -8 -8 -9 -8
-9 -9 -8 -8 -8 -9 -9 -9 -8 -9 -9 -9 -10 -9 -8 -9 -9 -9 -9 -8 -8 -8 -7 -7 -7 -7 -7 -8 -8 -8 -8 -8 -8 -8 -8 -8 -8 -9 -9 -9 -9 -9 -9
-9 -9 -9 -9 -9 -9 -9 -9 -8 -8 -8 -8 -8 -9 -9 -8 -8 -9 -9 -9 -8 -8 -8 -8 -8 -8 -8 -8 -8 -8 -8 -8 -8 -8 -8 -8 -8 -9 -9 -9 -9 -9 -9
-10 -9 -9 -9 -9 -9 -8 -8 -9 -8 -8 -8 -8 -9 -9 -9 -9 -8 -8 -8 -9 -9 -8 -8 -8 -8 -8 -8 -8 -8 -8 -8 -8 -9 -8 -8 -9 -9 -9 -9 -9 -9 -9
-11 -10 -10 -10 -10 -9 -9 -9 -9 -9 -9 -8 -8 -8 -9 -9 -9 -9 -9 -9 -9 -9 -9 -8 -8 -8 -8 -8 -8 -9 -9 -9 -9 -9 -9 -9 -9 -9 -9 -9 -9 -9 -9
-11 -10 -10 -10 -10 -10 -9 -9 -9 -9 -9 -8 -8 -8 -8 -9 -9 -9 -9 -9 -9 -9 -9 -9 -9 -9 -9 -9 -9 -9 -9 -9 -9 -9 -10 -10 -10 -10 -10 -10 -10 -10 -10
-11 -12 -11 -10 -10 -10 -10 -9 -9 -9 -9 -9 -9 -9 -8 -8 -9 -9 -9 -9 -9 -10 -10 -10 -10 -10 -10 -10 -10 -10 -10 -10 -10 -10 -10 -10 -10 -10 -10 -10 -10 -10 -10
-11 -11 -11 -11 -10 -10 -10 -10 -10 -10 -10 -10 -9 -10 -9 -9 -9 -9 -9 -9 -9 -9 -9 -10 -10 -11 -11 -11 -11 -11 -10 -10 -10 -11 -10 -10 -10 -10 -10 -10 -10 -10 -11
-12 -12 -12 -12 -10 -11 -11 -11 -10 -10 -10 -10 -10 -10 -10 -10 -10 -10 -10 -10 -10 -10 -10 -10 -11 -11 -12 -12 -12 -11 -12 -11 -11 -11 -11 -11 -11 -11 -11 -11 -11 -11 -11
-10 -11 -12 -12 -10 -11 -11 -11 -11 -11 -11 -10 -10 -10 -10 -11 -10 -10 -10 -10 -10 -10 -10 -10 -10 -11 -11 -12 -12 -12 -12 -12 -13 -12 -12 -12 -12 -11 -11 -11 -11 -11 -12
-10 -11 -11 -11 -11 -11 -11 -12 -12 -12 -11 -11 -11 -11 -10 -10 -10 -10 -10 -10 -10 -10 -11 -11 -11 -11 -11 -11 -12 -12 -12 -13 -14 -14 -13 -13 -13 -13 -12 -12 -12 -12 -12
-10 -11 -11 -11 -11 -11 -11 -12 -12 -11 -11 -11 -11 -11 -11 -11 -11 -11 -10 -10 -11 -11 -11 -11 -11 -11 -11 -11 -11 -11 -12 -12 -13 -12 -13 -13 -13 -12 -12 -13 -12 -13 -13
-11 -11 -10 -11 -11 -11 -11 -11 -12 -11 -11 -10 -10 -11 -11 -10 -10 -11 -10 -10 -10 -11 -11 -11 -12 -12 -12 -12 -12 -12 -12 -13 -12 -12 -12 -13 -12 -12 -13 -13 -13 -13 -13
-11 -11 -11 -11 -11 -11 -12 -12 -11 -10 -10 -9 -10 -10 -10 -11 -11 -11 -11 -10 -10 -10 -10 -11 -11 -12 -12 -12 -11 -12 -12 -12 -12 -13 -13 -13 -13 -14 -13 -14 -14 -14 -14
-11 -11 -11 -11 -11 -12 -12 -11 -11 -10 -10 -10 -10 -10 -10 -10 -11 -11 -11 -11 -11 -11 -11 -11 -11 -11 -12 -13 -12 -12 -12 -12 -12 -13 -13 -13 -14 -14 -14 -15 -14 -15 -15
-12 -12 -12 -11 -11 -11 -11 -11 -11 -11 -10 -10 -10 -11 -11 -11 -11 -11 -11 -11 -11 -11 -11 -12 -12 -12 -12 -12 -12 -12 -12 -13 -13 -13 -14 -13 -14 -14 -14 -15 -15 -16 -16
-11 -10 -10 -11 -11 -11 -11 -11 -11 -11 -11 -11 -11 -11 -11 -11 -11 -11 -11 -11 -11 -12 -12 -12 -12 -12 -13 -13 -14 -13 -13 -14 -14 -14 -14 -16 -15 -15 -15 -15 -15 -16 -16
-11 -11 -11 -11 -12 -12 -11 -11 -11 -11 -11 -11 -11 -11 -12 -12 -12 -12 -12 -12 -13 -13 -13 -13 -14 -14 -14 -14 -15 -15 -15 -15 -15 -15 -15 -16 -16 -16 -16 -16 -16 -16 -16
-12 -12 -12 -11 -11 -11 -11 -11 -11 -12 -12 -12 -12 -13 -13 -13 -13 -13 -13 -14 -14 -14 -15 -15 -15 -15 -15 -16 -16 -16 -16 -16 -16 -16 -16 -16 -17 -17 -16 -17 -16 -16 -17
-12 -12 -12 -13 -12 -12 -12 -13 -13 -13 -13 -13 -13 -14 -14 -14 -14 -14 -15 -15 -15 -15 -15 -16 -16 -16 -16 -16 -16 -16 -16 -16 -17 -17 -17 -17 -16 -16 -16 -17 -16 -17 -17
-14 -14 -13 -13 -13 -13 -13 -13 -13 -13 -13 -14 -14 -14 -15 -15 -15 -15 -15 -16 -16 -16 -16 -16 -17 -16 -17 -17 -17 -17 -17 -17 -17 -17 -17 -17 -17 -17 -17 -17 -17 -17 -17
-13 -14 -14 -14 -14 -14 -14 -14 -14 -14 -15 -15 -15 -15 -15 -15 -15 -15 -15 -16 -16 -16 -16 -17 -17 -17 -17 -18 -18 -18 -18 -18 -17 -17 -17 -18 -17 -18 -18 -18 -17 -17 -17

GFSGL_500_temp_066.txt.gz
Temp
-8 -7 -7 -8 -8 -8 -8 -8 -8 -8 -8 -8 -8 -8 -9 -9 -9 -9 -9 -9 -8 -9 -10 -10 -9 -8 -8 -8 -8 -8 -7 -7 -7 -6 -6 -7 -7 -7 -7 -7 -7 -7 -7
-8 -8 -8 -8 -8 -8 -8 -8 -8 -8 -8 -8 -8 -8 -8 -8 -8 -9 -9 -9 -9 -9 -9 -9 -8 -8 -8 -7 -8 -8 -8 -7 -7 -7 -7 -7 -7 -7 -7 -7 -7 -7 -7
-8 -8 -8 -8 -8 -8 -8 -8 -8 -8 -9 -9 -8 -9 -9 -9 -9 -9 -9 -8 -9 -8 -9 -8 -8 -7 -7 -8 -8 -8 -8 -7 -7 -7 -7 -7 -7 -7 -7 -7 -7 -8 -8
-9 -8 -8 -8 -8 -8 -8 -8 -8 -8 -8 -8 -8 -8 -8 -9 -8 -9 -9 -8 -9 -9 -8 -8 -8 -7 -8 -8 -8 -8 -7 -7 -7 -7 -7 -7 -7 -7 -7 -7 -7 -8 -8
-9 -9 -9 -8 -8 -8 -8 -9 -9 -8 -8 -9 -8 -8 -9 -8 -9 -8 -9 -8 -8 -9 -9 -9 -8 -8 -8 -8 -8 -8 -8 -7 -8 -8 -8 -7 -8 -7 -7 -8 -8 -8 -8
-10 -9 -9 -9 -9 -8 -8 -8 -9 -9 -8 -9 -8 -8 -8 -8 -9 -9 -9 -9 -9 -9 -9 -9 -8 -8 -8 -8 -8 -8 -8 -8 -8 -8 -8 -7 -7 -8 -8 -8 -8 -8 -9
-10 -10 -10 -10 -9 -9 -9 -9 -9 -9 -9 -8 -8 -9 -8 -8 -8 -8 -9 -9 -9 -9 -8 -9 -8 -8 -8 -8 -8 -8 -8 -8 -8 -8 -8 -8 -8 -8 -9 -9 -9 -9 -9
-10 -10 -10 -10 -10 -9 -9 -9 -9 -9 -9 -9 -9 -9 -9 -8 -8 -8 -9 -9 -9 -9 -9 -9 -8 -8 -8 -8 -8 -8 -8 -8 -8 -8 -8 -9 -9 -9 -9 -9 -9 -9 -9
-10 -10 -11 -11 -11 -10 -9 -9 -9 -9 -9 -9 -9 -8 -9 -8 -8 -8 -8 -8 -9 -9 -9 -9 -9 -9 -9 -8 -8 -8 -8 -8 -8 -8 -9 -9 -9 -9 -10 -9 -10 -10 -10
-10 -10 -11 -11 -11 -11 -10 -10 -9 -9 -10 -9 -9 -9 -8 -8 -8 -8 -9 -9 -9 -9 -9 -9 -9 -9 -9 -9 -9 -9 -9 -9 -9 -9 -9 -10 -10 -10 -10 -10 -10 -10 -10
-10 -9 -10 -11 -11 -11 -11 -10 -10 -10 -10 -10 -9 -9 -9 -9 -9 -8 -8 -9 -9 -9 -9 -9 -9 -10 -10 -11 -10 -10 -10 -10 -10 -10 -10 -10 -10 -10 -10 -11 -11 -11 -11
-10 -11 -10 -11 -11 -11 -11 -11 -10 -10 -10 -10 -9 -9 -10 -10 -9 -9 -8 -9 -9 -9 -9 -9 -9 -9 -9 -10 -10 -11 -11 -11 -10 -11 -11 -11 -11 -11 -11 -11 -11 -11 -11
-10 -10 -11 -11 -11 -11 -11 -11 -11 -10 -10 -11 -10 -10 -10 -10 -10 -10 -10 -9 -9 -9 -10 -10 -10 -10 -10 -10 -11 -11 -11 -12 -12 -12 -12 -12 -12 -13 -13 -13 -12 -13 -12
-10 -10 -12 -10 -10 -11 -11 -11 -11 -11 -11 -11 -11 -11 -11 -11 -11 -10 -10 -10 -10 -10 -10 -10 -10 -10 -10 -10 -11 -11 -11 -12 -13 -13 -12 -12 -12 -13 -13 -14 -14 -14 -14
-11 -11 -12 -10 -10 -11 -10 -10 -11 -11 -11 -11 -12 -12 -12 -11 -11 -11 -10 -10 -10 -10 -10 -11 -11 -11 -10 -11 -11 -11 -11 -11 -12 -12 -13 -12 -12 -13 -14 -14 -13 -13 -14
-11 -11 -11 -10 -10 -11 -11 -11 -11 -11 -11 -11 -11 -12 -12 -11 -11 -11 -10 -10 -10 -10 -10 -10 -10 -10 -11 -11 -11 -11 -11 -12 -12 -12 -12 -12 -12 -12 -12 -13 -13 -13 -14
-11 -11 -11 -11 -11 -11 -11 -11 -11 -11 -11 -10 -10 -11 -11 -11 -11 -11 -11 -10 -10 -10 -10 -10 -10 -11 -11 -12 -11 -12 -12 -12 -12 -11 -11 -12 -12 -12 -12 -13 -13 -13 -13
-12 -11 -12 -11 -11 -11 -12 -12 -12 -11 -11 -10 -11 -11 -11 -11 -10 -10 -10 -10 -10 -10 -10 -10 -11 -11 -11 -12 -12 -12 -12 -12 -12 -12 -12 -12 -12 -12 -12 -13 -13 -14 -13
-11 -11 -12 -11 -11 -11 -11 -12 -12 -11 -11 -10 -11 -11 -11 -11 -10 -10 -11 -11 -11 -10 -10 -10 -11 -11 -12 -12 -12 -12 -12 -12 -12 -12 -13 -13 -13 -13 -13 -13 -14 -14 -14
-11 -12 -11 -11 -12 -12 -12 -12 -12 -12 -11 -11 -11 -11 -11 -11 -11 -11 -11 -11 -11 -11 -12 -12 -12 -12 -12 -12 -12 -12 -12 -12 -12 -12 -12 -13 -13 -13 -14 -14 -14 -14 -14
-11 -11 -12 -12 -12 -12 -13 -12 -12 -12 -12 -12 -12 -11 -11 -11 -11 -12 -12 -12 -12 -12 -12 -12 -12 -12 -12 -12 -12 -12 -12 -12 -12 -12 -12 -13 -14 -15 -15 -15 -15 -15 -15
-12 -12 -12 -13 -13 -13 -12 -13 -13 -13 -13 -13 -13 -13 -13 -13 -13 -13 -13 -13 -12 -12 -13 -13 -13 -13 -12 -13 -13 -14 -14 -14 -14 -15 -15 -15 -15 -15 -16 -16 -16 -16 -16
-13 -12 -13 -13 -13 -13 -13 -13 -13 -13 -13 -13 -13 -13 -13 -13 -13 -13 -13 -13 -13 -14 -14 -14 -14 -14 -14 -14 -14 -15 -15 -15 -15 -16 -16 -16 -16 -16 -16 -16 -16 -16 -16
-14 -14 -14 -14 -14 -14 -13 -13 -13 -13 -13 -13 -14 -14 -14 -14 -14 -14 -14 -14 -14 -14 -14 -14 -15 -15 -15 -15 -16 -16 -16 -16 -16 -16 -16 -16 -17 -17 -17 -17 -16 -16 -17
-14 -14 -14 -14 -14 -14 -14 -14 -14 -14 -14 -14 -14 -14 -14 -14 -15 -15 -15 -15 -15 -15 -15 -15 -15 -16 -16 -16 -16 -17 -17 -17 -17 -17 -17 -17 -17 -17 -17 -17 -17 -17 -17
-15 -15 -15 -14 -14 -14 -14 -14 -14 -14 -14 -15 -15 -15 -15 -15 -15 -15 -15 -15 -16 -16 -16 -17 -17 -17 -17 -17 -18 -18 -18 -18 -18 -18 -18 -18 -18 -18 -18 -18 -18 -18 -18

GFSGL_500_temp_069.txt.gz
Temp
-8 -8 -7 -7 -7 -7 -8 -8 -8 -8 -8 -8 -8 -8 -8 -8 -8 -8 -8 -8 -7 -7 -7 -7 -8 -8 -9 -8 -9 -7 -7 -8 -8 -7 -7 -7 -7 -7 -6 -6 -7 -7 -7
-9 -8 -8 -8 -8 -8 -8 -8 -8 -8 -8 -8 -8 -8 -8 -8 -8 -8 -8 -8 -8 -9 -9 -9 -10 -10 -10 -9 -8 -8 -7 -8 -8 -7 -7 -7 -7 -7 -7 -7 -7 -7 -7
-9 -9 -8 -8 -8 -8 -8 -8 -8 -8 -9 -9 -8 -8 -9 -8 -8 -8 -8 -8 -8 -8 -8 -9 -9 -9 -9 -8 -8 -8 -7 -8 -8 -7 -8 -7 -7 -7 -7 -7 -7 -7 -7
-9 -9 -9 -9 -8 -8 -8 -8 -8 -8 -8 -8 -9 -9 -9 -9 -8 -8 -8 -8 -8 -8 -8 -8 -8 -8 -8 -8 -8 -8 -8 -8 -8 -8 -8 -7 -7 -7 -7 -7 -7 -7 -7
-9 -9 -9 -9 -9 -9 -8 -8 -8 -8 -8 -8 -8 -8 -8 -8 -8 -8 -8 -8 -8 -8 -8 -8 -8 -8 -8 -8 -8 -8 -8 -8 -8 -8 -8 -8 -8 -7 -7 -7 -7 -8 -8
-9 -9 -9 -9 -9 -9 -9 -9 -8 -8 -8 -8 -8 -8 -8 -8 -8 -8 -8 -8 -9 -8 -8 -8 -8 -8 -8 -8 -8 -8 -8 -8 -8 -8 -8 -8 -8 -8 -8 -8 -8 -8 -8
-9 -9 -9 -9 -9 -9 -9 -9 -9 -9 -8 -8 -8 -9 -8 -8 -8 -8 -8 -8 -8 -8 -8 -9 -8 -8 -8 -8 -8 -8 -8 -8 -8 -8 -8 -8 -8 -8 -8 -8 -8 -8 -9
-10 -9 -9 -9 -9 -9 -9 -9 -9 -9 -9 -9 -8 -8 -8 -8 -8 -8 -8 -8 -9 -8 -9 -9 -9 -9 -9 -9 -8 -8 -8 -8 -8 -8 -8 -8 -8 -8 -8 -8 -9 -9 -9
-9 -10 -10 -10 -10 -10 -10 -9 -9 -9 -9 -9 -9 -8 -8 -8 -8 -8 -7 -7 -9 -9 -9 -9 -9 -9 -9 -9 -9 -9 -9 -9 -9 -8 -9 -9 -9 -9 -9 -9 -9 -9 -10
-10 -10 -10 -10 -10 -10 -10 -10 -9 -9 -10 -9 -9 -9 -9 -9 -8 -8 -8 -8 -8 -9 -9 -9 -9 -9 -9 -9 -10 -10 -9 -9 -9 -9 -9 -9 -9 -10 -10 -10 -10 -10 -10
-10 -10 -10 -10 -10 -10 -10 -11 -10 -10 -10 -9 -10 -10 -9 -9 -9 -9 -9 -8 -8 -9 -9 -9 -9 -9 -9 -9 -10 -10 -10 -10 -10 -10 -10 -10 -10 -10 -10 -10 -11 -11 -11
-10 -10 -10 -10 -10 -11 -10 -11 -11 -10 -10 -9 -9 -10 -10 -10 -10 -10 -10 -9 -9 -10 -9 -9 -9 -9 -10 -10 -10 -10 -11 -11 -11 -12 -12 -11 -11 -11 -11 -11 -12 -12 -11
-9 -10 -10 -10 -10 -10 -11 -12 -11 -11 -10 -10 -9 -10 -10 -10 -10 -11 -11 -10 -10 -9 -10 -10 -9 -9 -10 -9 -9 -9 -10 -10 -10 -11 -11 -11 -12 -12 -13 -13 -13 -12 -12
-10 -9 -9 -10 -10 -10 -11 -12 -12 -13 -11 -10 -10 -10 -10 -9 -9 -10 -11 -11 -10 -10 -10 -10 -10 -10 -10 -10 -10 -10 -10 -10 -10 -11 -11 -11 -12 -12 -12 -12 -11 -12 -12
-9 -10 -11 -10 -11 -11 -11 -12 -11 -13 -11 -10 -10 -11 -11 -10 -9 -10 -11 -11 -11 -11 -11 -11 -11 -11 -11 -11 -11 -11 -11 -11 -11 -11 -11 -11 -11 -11 -12 -12 -12 -12 -12
-10 -10 -10 -10 -10 -11 -11 -11 -10 -11 -12 -11 -11 -11 -11 -11 -9 -10 -10 -11 -11 -11 -11 -11 -11 -11 -11 -11 -11 -11 -11 -11 -12 -12 -12 -11 -11 -12 -11 -11 -12 -12 -12
-10 -10 -11 -11 -11 -11 -11 -11 -11 -11 -12 -12 -12 -12 -11 -11 -10 -10 -10 -10 -11 -11 -11 -11 -11 -11 -11 -12 -11 -11 -11 -11 -12 -12 -11 -11 -11 -12 -12 -12 -12 -12 -12
-11 -11 -11 -11 -11 -11 -11 -12 -12 -11 -12 -11 -12 -13 -12 -12 -11 -11 -10 -10 -11 -11 -11 -11 -11 -11 -11 -11 -12 -12 -12 -12 -12 -11 -11 -12 -11 -12 -12 -13 -13 -12 -12
-10 -10 -11 -11 -12 -12 -12 -12 -12 -11 -12 -12 -12 -13 -13 -12 -12 -11 -11 -11 -11 -12 -12 -12 -12 -12 -12 -12 -12 -12 -12 -12 -12 -12 -12 -11 -11 -11 -13 -12 -13 -13 -13
-10 -10 -10 -11 -11 -11 -11 -11 -12 -12 -12 -12 -12 -12 -12 -13 -12 -12 -12 -12 -12 -12 -12 -12 -12 -12 -12 -12 -12 -12 -12 -12 -12 -12 -12 -12 -12 -13 -13 -14 -14 -14 -15
-11 -11 -11 -11 -11 -11 -11 -12 -12 -13 -13 -13 -12 -12 -13 -13 -13 -13 -13 -12 -12 -12 -12 -12 -12 -12 -12 -12 -13 -13 -13 -13 -14 -14 -14 -14 -14 -15 -15 -15 -15 -16 -16
-12 -12 -12 -12 -12 -12 -12 -13 -13 -13 -14 -13 -13 -13 -13 -13 -13 -13 -13 -13 -13 -13 -13 -13 -13 -13 -14 -14 -14 -14 -15 -15 -15 -15 -15 -16 -16 -16 -16 -16 -16 -16 -17
-12 -12 -12 -12 -12 -12 -12 -13 -13 -13 -13 -13 -13 -13 -13 -13 -13 -13 -13 -13 -13 -14 -14 -14 -14 -14 -15 -15 -15 -15 -15 -15 -15 -15 -16 -16 -16 -17 -16 -16 -17 -17 -17
-14 -13 -14 -14 -14 -13 -13 -13 -14 -13 -13 -13 -13 -13 -14 -14 -14 -14 -14 -14 -15 -14 -15 -15 -15 -15 -15 -15 -15 -16 -16 -16 -16 -17 -17 -17 -17 -17 -17 -17 -17 -18 -18
-14 -13 -14 -14 -14 -14 -14 -14 -14 -14 -14 -14 -14 -14 -14 -15 -15 -15 -15 -15 -15 -15 -15 -15 -15 -15 -16 -17 -17 -17 -17 -18 -18 -18 -18 -18 -18 -18 -18 -18 -18 -18 -18
-14 -14 -14 -14 -14 -14 -14 -14 -14 -15 -15 -15 -15 -15 -15 -15 -15 -15 -15 -15 -15 -15 -15 -16 -16 -17 -17 -17 -17 -17 -17 -17 -17 -18 -18 -18 -18 -18 -18 -18 -18 -18 -18

GFSGL_500_temp_072.txt.gz
Temp
-8 -7 -8 -7 -7 -8 -8 -8 -7 -8 -8 -8 -8 -8 -8 -8 -7 -7 -7 -8 -8 -8 -7 -7 -7 -7 -7 -7 -7 -7 -8 -7 -8 -8 -7 -7 -7 -7 -7 -7 -6 -7 -7
-8 -8 -8 -8 -8 -8 -8 -8 -8 -8 -8 -8 -8 -8 -8 -8 -8 -8 -8 -8 -8 -8 -8 -8 -8 -7 -8 -8 -8 -8 -8 -7 -7 -9 -8 -8 -7 -7 -7 -7 -7 -7 -7
-9 -8 -8 -8 -8 -8 -8 -8 -8 -8 -8 -8 -8 -8 -8 -8 -8 -8 -8 -8 -8 -8 -8 -8 -8 -8 -8 -9 -9 -9 -8 -8 -8 -8 -8 -8 -8 -8 -8 -7 -7 -7 -7
-9 -9 -9 -8 -8 -8 -8 -8 -9 -9 -8 -8 -8 -8 -8 -7 -8 -8 -8 -8 -8 -8 -8 -8 -8 -8 -8 -8 -8 -9 -8 -8 -8 -8 -8 -8 -8 -8 -8 -8 -8 -8 -8
-9 -9 -9 -9 -9 -9 -8 -8 -8 -8 -8 -8 -8 -8 -8 -8 -8 -8 -8 -8 -8 -8 -8 -8 -9 -8 -8 -8 -8 -8 -8 -8 -8 -8 -9 -8 -8 -8 -8 -8 -8 -8 -8
-9 -9 -9 -9 -9 -9 -9 -9 -9 -9 -9 -9 -9 -8 -8 -8 -8 -7 -7 -8 -8 -7 -8 -8 -8 -8 -8 -8 -8 -8 -8 -8 -8 -8 -9 -9 -8 -8 -8 -8 -8 -8 -8
-9 -9 -9 -9 -9 -9 -9 -9 -9 -9 -10 -9 -9 -9 -9 -8 -8 -8 -7 -7 -7 -8 -8 -8 -9 -9 -9 -9 -9 -9 -8 -9 -9 -9 -9 -9 -9 -8 -8 -8 -8 -8 -8
-9 -9 -9 -9 -10 -9 -9 -9 -9 -9 -9 -10 -9 -9 -9 -9 -8 -8 -8 -7 -8 -8 -8 -9 -9 -9 -9 -9 -9 -9 -9 -9 -9 -9 -9 -9 -9 -9 -9 -9 -9 -9 -9
-9 -9 -9 -9 -9 -9 -9 -9 -9 -9 -9 -10 -10 -10 -9 -9 -9 -8 -8 -8 -8 -8 -9 -9 -9 -9 -9 -9 -9 -9 -9 -9 -9 -9 -9 -9 -9 -9 -9 -9 -9 -9 -9
-9 -10 -9 -9 -9 -9 -9 -9 -8 -9 -10 -10 -10 -10 -10 -9 -9 -8 -8 -8 -8 -8 -8 -9 -9 -9 -9 -9 -9 -10 -10 -10 -9 -9 -9 -9 -9 -10 -10 -10 -10 -10 -10
-10 -10 -10 -8 -10 -9 -9 -9 -9 -10 -10 -10 -10 -10 -10 -10 -10 -9 -8 -9 -9 -8 -8 -9 -9 -9 -9 -9 -9 -9 -9 -10 -10 -10 -10 -10 -10 -10 -11 -11 -11 -11 -11
-10 -10 -10 -8 -10 -9 -9 -9 -9 -10 -10 -10 -9 -9 -10 -10 -10 -10 -9 -9 -10 -10 -9 -9 -9 -9 -9 -9 -10 -9 -9 -10 -10 -10 -10 -11 -11 -11 -12 -12 -12 -12 -12
-10 -6 -9 -8 -8 -9 -10 -10 -10 -10 -10 -10 -10 -10 -10 -11 -11 -10 -10 -9 -10 -10 -10 -10 -10 -10 -10 -9 -9 -10 -10 -10 -10 -10 -10 -11 -11 -12 -12 -12 -12 -11 -11
-9 -9 -8 -8 -9 -10 -11 -11 -10 -11 -10 -10 -10 -10 -11 -11 -11 -10 -10 -10 -10 -11 -11 -10 -10 -10 -10 -10 -10 -10 -10 -11 -11 -11 -11 -11 -11 -11 -11 -11 -12 -12 -11
-10 -11 -9 -10 -10 -10 -9 -10 -10 -10 -10 -10 -10 -11 -11 -12 -11 -10 -10 -10 -10 -11 -11 -11 -11 -11 -10 -10 -10 -10 -10 -11 -11 -11 -11 -11 -12 -12 -11 -12 -12 -12 -11
-9 -10 -10 -10 -10 -10 -10 -10 -10 -10 -10 -11 -11 -11 -10 -12 -11 -11 -10 -9 -9 -10 -11 -11 -10 -11 -11 -11 -11 -11 -11 -12 -11 -11 -11 -11 -11 -12 -11 -11 -11 -11 -11
-11 -10 -10 -10 -10 -10 -10 -10 -10 -10 -11 -11 -11 -10 -11 -11 -11 -11 -10 -10 -10 -10 -10 -10 -10 -10 -10 -11 -11 -12 -12 -12 -12 -12 -11 -11 -11 -11 -12 -12 -12 -11 -11
-10 -10 -10 -10 -10 -10 -11 -11 -11 -12 -12 -11 -11 -11 -11 -12 -11 -11 -10 -11 -11 -10 -11 -11 -11 -11 -11 -11 -12 -12 -12 -12 -12 -12 -12 -12 -11 -11 -12 -11 -11 -12 -12
-10 -10 -10 -10 -10 -10 -10 -11 -11 -11 -12 -12 -12 -12 -11 -11 -11 -12 -11 -11 -12 -12 -12 -12 -12 -12 -12 -12 -12 -12 -12 -12 -11 -11 -11 -11 -12 -12 -12 -12 -12 -13 -14
-9 -11 -11 -10 -11 -10 -12 -11 -11 -11 -11 -12 -12 -12 -12 -12 -12 -12 -12 -13 -13 -13 -12 -12 -12 -12 -12 -12 -12 -12 -12 -12 -13 -13 -13 -13 -13 -13 -13 -14 -14 -14 -15
-11 -12 -11 -11 -11 -11 -11 -11 -11 -11 -11 -12 -12 -12 -12 -12 -12 -13 -14 -14 -14 -14 -13 -12 -12 -12 -12 -12 -13 -13 -14 -14 -14 -14 -14 -14 -14 -14 -15 -15 -15 -15 -16
-11 -12 -11 -12 -11 -11 -12 -12 -12 -12 -12 -12 -13 -13 -14 -13 -13 -13 -13 -13 -13 -13 -13 -13 -13 -13 -13 -14 -14 -14 -14 -14 -14 -15 -15 -15 -16 -16 -16 -16 -16 -16 -17
-12 -12 -12 -13 -12 -12 -13 -12 -13 -12 -12 -12 -12 -13 -13 -13 -13 -13 -14 -13 -13 -13 -14 -14 -14 -14 -14 -14 -14 -14 -14 -15 -15 -16 -16 -17 -17 -17 -17 -17 -17 -17 -17
-13 -14 -14 -13 -12 -13 -13 -13 -13 -13 -13 -13 -13 -13 -14 -14 -14 -14 -14 -14 -15 -15 -15 -15 -15 -15 -15 -14 -14 -15 -15 -16 -16 -16 -16 -17 -17 -16 -16 -16 -17 -17 -17
-14 -14 -14 -14 -14 -14 -13 -13 -13 -13 -13 -14 -14 -14 -14 -14 -14 -15 -15 -15 -15 -15 -15 -15 -15 -15 -15 -15 -15 -16 -16 -16 -16 -16 -16 -16 -17 -16 -17 -17 -17 -17 -17
-14 -14 -14 -14 -14 -14 -14 -14 -14 -14 -15 -15 -15 -15 -15 -15 -16 -16 -16 -16 -16 -16 -15 -15 -16 -15 -16 -16 -16 -17 -17 -17 -17 -17 -17 -17 -17 -17 -17 -18 -18 -18 -18

GFSGL_500_temp_075.txt.gz
Temp
-8 -8 -8 -8 -8 -8 -8 -8 -8 -8 -8 -8 -8 -8 -8 -7 -7 -7 -7 -7 -7 -8 -7 -7 -7 -8 -7 -7 -7 -7 -7 -7 -7 -7 -8 -8 -8 -7 -7 -7 -7 -7 -7
-8 -8 -8 -8 -8 -8 -8 -8 -8 -8 -8 -8 -7 -7 -8 -8 -8 -8 -7 -7 -7 -7 -8 -8 -8 -8 -7 -7 -7 -7 -7 -8 -8 -7 -7 -9 -8 -7 -8 -7 -7 -7 -7
-8 -8 -8 -8 -8 -8 -8 -8 -8 -8 -8 -8 -8 -7 -7 -7 -7 -8 -8 -8 -8 -7 -8 -8 -8 -8 -8 -9 -8 -8 -9 -8 -7 -7 -8 -9 -8 -8 -8 -8 -8 -8 -8
-9 -9 -9 -8 -8 -9 -9 -8 -8 -8 -8 -8 -8 -8 -7 -7 -7 -8 -7 -7 -8 -8 -8 -8 -8 -8 -8 -8 -9 -9 -8 -8 -8 -7 -8 -8 -8 -8 -8 -8 -8 -8 -8
-9 -9 -9 -9 -9 -9 -9 -9 -9 -9 -8 -8 -8 -8 -8 -7 -7 -8 -8 -8 -8 -8 -8 -8 -8 -8 -8 -8 -8 -9 -9 -8 -8 -9 -10 -9 -9 -9 -8 -8 -8 -8 -8
-9 -9 -9 -9 -9 -9 -10 -10 -10 -9 -9 -9 -8 -8 -8 -8 -8 -8 -8 -7 -7 -7 -8 -8 -8 -8 -8 -8 -8 -8 -8 -8 -8 -8 -8 -9 -8 -8 -9 -9 -8 -8 -8
-9 -10 -9 -9 -9 -9 -9 -10 -10 -10 -10 -9 -9 -8 -8 -8 -8 -8 -8 -8 -8 -7 -7 -8 -8 -8 -8 -8 -9 -9 -8 -9 -9 -8 -9 -9 -9 -9 -9 -9 -9 -8 -9
-10 -10 -10 -9 -9 -9 -9 -9 -10 -10 -10 -10 -10 -9 -9 -8 -9 -8 -8 -7 -8 -8 -8 -7 -8 -9 -8 -9 -9 -9 -9 -9 -9 -9 -9 -9 -9 -9 -9 -9 -9 -9 -9
-10 -9 -9 -10 -10 -9 -9 -9 -10 -10 -10 -11 -10 -11 -11 -9 -8 -8 -8 -8 -8 -7 -8 -8 -8 -8 -8 -9 -10 -10 -9 -9 -9 -9 -9 -9 -9 -9 -9 -9 -9 -9 -9
-10 -10 -9 -10 -9 -10 -9 -9 -9 -10 -10 -10 -11 -11 -11 -10 -10 -9 -7 -8 -8 -8 -8 -8 -8 -8 -8 -8 -9 -10 -10 -10 -10 -10 -10 -10 -10 -10 -10 -9 -10 -10 -10
-10 -10 -10 -9 -7 -5 -8 -9 -9 -10 -11 -11 -10 -11 -11 -11 -11 -10 -10 -8 -8 -9 -9 -9 -9 -9 -9 -8 -9 -9 -9 -10 -9 -10 -10 -10 -10 -10 -10 -10 -10 -11 -11
-10 -10 -10 -9 -9 -10 -8 -9 -10 -10 -11 -11 -11 -10 -11 -10 -11 -11 -10 -11 -9 -9 -10 -9 -9 -9 -9 -9 -10 -9 -9 -9 -9 -10 -10 -10 -10 -10 -11 -11 -11 -11 -12
-10 -9 -9 -10 -9 -10 -8 -9 -10 -10 -10 -10 -11 -11 -10 -11 -11 -11 -12 -12 -10 -10 -10 -10 -9 -9 -10 -10 -10 -10 -9 -9 -10 -10 -10 -10 -10 -10 -11 -11 -11 -11 -11
-9 -9 -9 -9 -9 -10 -9 -9 -9 -10 -9 -9 -11 -11 -10 -11 -11 -11 -12 -12 -12 -10 -10 -10 -11 -10 -10 -10 -10 -10 -10 -10 -10 -11 -11 -10 -10 -11 -10 -10 -10 -11 -11
-9 -9 -8 -8 -9 -9 -8 -9 -10 -11 -10 -10 -10 -11 -10 -11 -11 -11 -11 -12 -12 -11 -10 -10 -10 -10 -10 -10 -10 -10 -10 -10 -10 -10 -11 -11 -11 -11 -11 -11 -11 -11 -11
-9 -10 -9 -9 -9 -9 -10 -9 -10 -10 -11 -11 -11 -11 -11 -11 -11 -11 -11 -12 -11 -11 -11 -10 -10 -10 -10 -10 -10 -10 -10 -11 -11 -11 -11 -11 -11 -11 -11 -11 -11 -11 -11
-9 -9 -10 -10 -9 -9 -10 -10 -11 -10 -11 -11 -11 -11 -11 -11 -10 -11 -11 -12 -11 -11 -11 -10 -10 -10 -10 -10 -10 -10 -11 -11 -11 -11 -11 -11 -11 -11 -11 -11 -11 -11 -11
-10 -10 -9 -9 -10 -10 -10 -10 -10 -9 -10 -11 -10 -11 -12 -12 -12 -12 -12 -12 -12 -12 -11 -11 -11 -11 -11 -11 -11 -11 -11 -11 -11 -11 -11 -11 -12 -12 -12 -12 -12 -13 -13
-9 -10 -9 -9 -9 -10 -10 -9 -10 -10 -11 -11 -11 -11 -11 -12 -12 -12 -12 -12 -12 -12 -12 -12 -12 -12 -12 -11 -11 -11 -12 -12 -12 -12 -12 -12 -12 -12 -13 -13 -13 -13 -13
-10 -10 -10 -9 -10 -9 -10 -11 -10 -10 -11 -12 -11 -11 -11 -12 -12 -12 -12 -12 -12 -12 -12 -13 -13 -13 -12 -12 -12 -12 -12 -12 -12 -13 -13 -13 -13 -13 -13 -13 -14 -14 -14
-12 -11 -11 -12 -10 -11 -11 -10 -11 -11 -11 -12 -12 -12 -12 -12 -12 -13 -12 -13 -13 -13 -13 -12 -12 -12 -13 -12 -12 -13 -13 -13 -13 -14 -14 -14 -14 -14 -14 -15 -15 -16 -16
-12 -12 -11 -12 -12 -11 -12 -12 -12 -12 -12 -12 -12 -12 -12 -12 -12 -12 -13 -14 -13 -13 -13 -13 -13 -13 -13 -13 -13 -14 -14 -14 -14 -14 -14 -14 -15 -15 -16 -16 -16 -16 -16
-12 -12 -13 -12 -13 -13 -13 -13 -12 -12 -12 -12 -12 -12 -13 -13 -13 -13 -14 -13 -13 -13 -13 -13 -13 -14 -14 -14 -14 -14 -14 -14 -14 -14 -14 -15 -16 -16 -16 -16 -16 -16 -16
-13 -13 -12 -12 -13 -13 -13 -13 -13 -13 -13 -13 -13 -13 -13 -13 -13 -14 -14 -14 -14 -14 -14 -14 -14 -14 -15 -15 -15 -15 -15 -15 -15 -15 -16 -16 -16 -17 -17 -16 -16 -17 -17
-14 -13 -13 -13 -13 -14 -14 -14 -13 -13 -14 -14 -14 -14 -14 -14 -14 -14 -15 -14 -15 -15 -15 -16 -15 -15 -15 -15 -15 -15 -15 -15 -16 -16 -16 -16 -17 -17 -17 -17 -17 -17 -17
-14 -15 -14 -14 -14 -14 -14 -14 -14 -14 -14 -15 -15 -15 -15 -15 -15 -15 -15 -15 -15 -15 -16 -16 -16 -15 -16 -16 -16 -16 -16 -16 -16 -17 -17 -17 -17 -17 -17 -17 -18 -18 -18

GFSGL_500_temp_078.txt.gz
Temp
-8 -8 -8 -8 -8 -8 -8 -8 -8 -8 -8 -8 -8 -7 -7 -7 -7 -7 -7 -7 -7 -7 -7 -7 -6 -6 -7 -7 -7 -7 -7 -7 -7 -7 -7 -7 -8 -8 -8 -7 -7 -7 -7
-8 -8 -9 -9 -8 -8 -8 -8 -8 -8 -8 -8 -8 -7 -7 -7 -7 -7 -7 -7 -7 -7 -7 -7 -7 -7 -7 -7 -7 -7 -7 -7 -7 -7 -7 -7 -8 -7 -9 -8 -7 -7 -8
-9 -9 -9 -9 -9 -9 -9 -9 -9 -9 -8 -8 -7 -7 -7 -7 -7 -7 -7 -7 -7 -7 -7 -7 -7 -7 -7 -7 -7 -7 -8 -8 -7 -8 -8 -8 -8 -8 -9 -8 -8 -8 -8
-9 -9 -9 -10 -9 -9 -9 -9 -9 -10 -9 -9 -8 -8 -8 -7 -7 -7 -7 -8 -8 -7 -7 -8 -8 -8 -8 -8 -8 -8 -8 -8 -8 -8 -7 -8 -8 -10 -10 -8 -8 -8 -8
-9 -9 -9 -10 -9 -9 -10 -10 -10 -10 -10 -10 -10 -9 -9 -9 -8 -8 -7 -7 -7 -8 -8 -8 -8 -8 -8 -8 -8 -8 -8 -8 -8 -8 -7 -8 -8 -9 -9 -8 -8 -8 -8
-10 -9 -9 -10 -10 -10 -10 -10 -10 -10 -10 -10 -10 -10 -10 -9 -9 -9 -9 -8 -8 -7 -7 -7 -8 -8 -8 -9 -8 -8 -8 -8 -8 -8 -8 -9 -9 -8 -10 -10 -8 -8 -8
-10 -10 -10 -10 -10 -9 -10 -10 -10 -10 -10 -11 -11 -11 -10 -10 -10 -9 -10 -9 -8 -8 -7 -7 -7 -8 -8 -9 -9 -9 -9 -9 -8 -8 -8 -8 -9 -9 -9 -9 -9 -9 -9
-10 -10 -10 -10 -10 -10 -9 -10 -10 -11 -10 -10 -10 -10 -11 -10 -10 -9 -9 -9 -9 -9 -8 -7 -7 -7 -8 -9 -9 -9 -9 -9 -9 -9 -9 -9 -9 -9 -9 -9 -9 -9 -9
-10 -10 -10 -10 -10 -10 -8 -9 -6 -10 -11 -11 -11 -11 -11 -11 -10 -10 -10 -10 -10 -9 -8 -8 -8 -8 -8 -8 -8 -8 -9 -9 -9 -9 -9 -9 -9 -9 -9 -9 -9 -9 -9
-11 -11 -10 -10 -10 -8 -9 -11 -10 -11 -10 -9 -10 -11 -11 -11 -11 -10 -10 -10 -11 -10 -8 -8 -9 -9 -10 -10 -9 -9 -9 -9 -10 -9 -9 -9 -9 -9 -9 -9 -9 -9 -9
-11 -10 -10 -10 -10 -10 -9 -8 -8 -9 -9 -9 -10 -10 -11 -11 -11 -10 -10 -11 -11 -10 -10 -9 -9 -9 -9 -10 -10 -9 -9 -9 -9 -10 -10 -10 -10 -10 -10 -10 -10 -10 -10
-11 -10 -10 -10 -10 -10 -9 -9 -9 -8 -9 -10 -10 -10 -11 -11 -10 -10 -10 -11 -11 -11 -10 -11 -10 -10 -10 -10 -10 -10 -10 -10 -10 -10 -9 -9 -9 -10 -10 -10 -10 -10 -10
-10 -10 -10 -10 -9 -9 -9 -9 -9 -8 -8 -8 -9 -9 -10 -10 -10 -9 -10 -11 -11 -12 -11 -11 -11 -10 -10 -11 -10 -11 -11 -10 -10 -9 -10 -10 -10 -10 -10 -10 -10 -10 -10
-10 -10 -9 -9 -9 -8 -8 -9 -8 -8 -9 -9 -9 -9 -10 -10 -9 -10 -11 -11 -11 -12 -12 -12 -12 -11 -11 -11 -11 -11 -11 -10 -10 -10 -10 -10 -10 -10 -10 -10 -10 -11 -11
-10 -9 -9 -10 -10 -9 -9 -10 -9 -9 -9 -9 -9 -9 -9 -10 -10 -10 -11 -11 -11 -11 -11 -12 -11 -12 -11 -11 -11 -11 -11 -11 -11 -11 -11 -11 -11 -11 -11 -11 -11 -10 -10
-10 -10 -10 -10 -10 -10 -10 -10 -10 -10 -9 -10 -9 -9 -10 -10 -10 -11 -11 -11 -10 -11 -11 -12 -12 -11 -11 -11 -11 -11 -11 -11 -11 -11 -11 -11 -11 -11 -11 -11 -11 -11 -11
-9 -10 -10 -9 -10 -10 -10 -10 -10 -10 -10 -9 -10 -10 -10 -10 -11 -11 -11 -11 -12 -11 -11 -12 -13 -12 -12 -12 -12 -12 -12 -11 -11 -11 -11 -11 -11 -11 -11 -11 -11 -11 -11
-10 -9 -9 -9 -10 -10 -10 -10 -9 -10 -9 -10 -10 -11 -10 -11 -11 -11 -11 -12 -12 -12 -12 -12 -12 -12 -12 -12 -12 -12 -12 -12 -12 -12 -12 -12 -12 -12 -12 -12 -12 -12 -12
-10 -9 -9 -9 -9 -9 -9 -10 -10 -10 -10 -10 -10 -10 -11 -11 -11 -12 -12 -12 -12 -12 -12 -12 -12 -12 -13 -13 -13 -13 -12 -12 -12 -13 -12 -12 -12 -12 -12 -12 -12 -12 -13
-10 -10 -10 -9 -10 -10 -10 -10 -10 -10 -11 -10 -10 -11 -10 -11 -11 -11 -11 -12 -12 -12 -13 -12 -12 -12 -13 -14 -13 -13 -13 -13 -13 -13 -13 -13 -13 -13 -13 -13 -13 -13 -13
-11 -11 -11 -11 -11 -11 -11 -10 -11 -10 -10 -10 -11 -12 -12 -12 -12 -12 -12 -12 -13 -13 -13 -13 -13 -13 -13 -13 -14 -13 -13 -13 -13 -13 -13 -14 -14 -14 -14 -14 -14 -14 -14
-12 -11 -11 -11 -11 -11 -11 -12 -11 -11 -12 -12 -12 -12 -12 -12 -12 -13 -13 -13 -13 -13 -13 -13 -13 -13 -13 -13 -13 -13 -14 -14 -15 -14 -14 -14 -14 -14 -14 -14 -14 -15 -15
-12 -12 -12 -12 -11 -11 -12 -12 -12 -12 -12 -12 -12 -12 -12 -12 -12 -12 -13 -14 -14 -14 -14 -14 -14 -14 -14 -14 -14 -15 -15 -15 -15 -15 -15 -15 -15 -15 -15 -15 -16 -16 -16
-13 -13 -13 -13 -13 -13 -13 -13 -12 -12 -13 -13 -13 -13 -13 -14 -14 -14 -14 -14 -14 -14 -14 -14 -14 -14 -15 -15 -15 -15 -15 -15 -15 -15 -15 -15 -15 -16 -16 -16 -17 -17 -17
-13 -13 -13 -13 -14 -14 -15 -14 -14 -14 -14 -14 -14 -14 -14 -14 -14 -14 -15 -15 -15 -15 -15 -15 -15 -15 -15 -15 -15 -15 -15 -16 -16 -16 -16 -16 -16 -17 -17 -17 -17 -17 -17
-14 -14 -14 -14 -14 -15 -15 -15 -15 -15 -15 -15 -15 -15 -15 -15 -15 -15 -15 -15 -16 -16 -15 -15 -15 -15 -16 -16 -16 -16 -17 -17 -17 -17 -18 -18 -18 -18 -19 -18 -18 -18 -18

GFSGL_500_temp_081.txt.gz
Temp
-8 -8 -9 -9 -9 -9 -9 -9 -9 -9 -8 -8 -8 -8 -8 -8 -8 -8 -8 -8 -8 -8 -7 -7 -8 -8 -8 -7 -8 -8 -7 -8 -7 -7 -7 -7 -7 -7 -8 -8 -8 -7 -7
-9 -9 -9 -9 -9 -9 -9 -9 -9 -9 -9 -9 -9 -9 -9 -8 -8 -8 -8 -8 -8 -8 -9 -8 -8 -8 -8 -8 -8 -8 -7 -7 -8 -7 -7 -7 -8 -7 -8 -7 -9 -8 -8
-9 -9 -9 -9 -9 -9 -10 -10 -10 -9 -9 -9 -9 -10 -10 -9 -9 -8 -8 -8 -8 -8 -9 -9 -9 -8 -8 -8 -8 -8 -8 -8 -8 -8 -8 -8 -8 -8 -8 -8 -8 -10 -8
-9 -9 -9 -9 -10 -10 -10 -10 -10 -9 -9 -9 -9 -9 -9 -9 -9 -9 -8 -8 -8 -8 -8 -8 -9 -9 -8 -8 -8 -8 -9 -9 -9 -8 -8 -8 -8 -8 -8 -8 -9 -10 -8
-10 -10 -9 -9 -10 -10 -10 -10 -10 -10 -10 -10 -9 -9 -10 -10 -10 -10 -10 -9 -9 -8 -8 -8 -8 -8 -8 -9 -9 -9 -9 -9 -9 -9 -9 -9 -8 -8 -8 -9 -11 -10 -9
-10 -10 -9 -10 -10 -10 -10 -9 -9 -9 -9 -10 -11 -10 -9 -10 -10 -10 -10 -10 -9 -9 -8 -8 -8 -7 -8 -8 -8 -9 -9 -9 -9 -9 -9 -9 -9 -9 -10 -9 -9 -12 -9
-10 -10 -10 -10 -10 -10 -10 -10 -9 -9 -10 -9 -9 -8 -9 -9 -10 -10 -10 -10 -9 -9 -9 -8 -8 -8 -7 -9 -9 -9 -9 -9 -9 -9 -9 -9 -9 -9 -9 -9 -10 -11 -11
-10 -11 -10 -10 -11 -10 -10 -10 -10 -10 -10 -10 -10 -10 -9 -9 -10 -9 -10 -10 -10 -10 -9 -9 -8 -8 -8 -8 -8 -9 -9 -9 -9 -10 -10 -9 -9 -9 -9 -10 -10 -10 -10
-11 -11 -10 -11 -10 -10 -10 -10 -10 -9 -9 -10 -10 -10 -9 -9 -9 -9 -10 -10 -10 -10 -9 -9 -9 -8 -8 -8 -8 -8 -9 -9 -9 -10 -10 -10 -10 -10 -10 -10 -10 -10 -10
-11 -10 -10 -10 -10 -10 -10 -10 -10 -9 -8 -8 -8 -8 -7 -9 -9 -9 -10 -10 -10 -10 -9 -9 -9 -9 -8 -8 -8 -8 -9 -9 -10 -10 -10 -11 -11 -10 -10 -10 -10 -10 -10
-11 -11 -11 -10 -10 -11 -10 -10 -10 -9 -9 -8 -8 -8 -9 -9 -11 -9 -9 -10 -10 -9 -9 -9 -9 -9 -9 -9 -9 -9 -9 -9 -10 -9 -10 -10 -11 -10 -10 -11 -11 -11 -11
-11 -11 -11 -11 -11 -10 -10 -10 -9 -9 -9 -9 -9 -9 -8 -9 -9 -10 -10 -10 -10 -9 -9 -9 -10 -9 -9 -9 -8 -10 -10 -10 -10 -10 -9 -9 -9 -10 -10 -10 -11 -10 -11
-11 -11 -10 -10 -10 -10 -10 -9 -9 -9 -9 -9 -8 -8 -10 -10 -9 -9 -10 -10 -10 -10 -10 -10 -11 -10 -9 -10 -10 -10 -10 -10 -10 -10 -10 -10 -10 -10 -10 -10 -11 -11 -11
-11 -10 -10 -9 -9 -9 -9 -10 -9 -9 -9 -9 -9 -9 -9 -9 -9 -9 -10 -10 -10 -10 -10 -10 -11 -10 -10 -9 -10 -10 -10 -10 -10 -10 -10 -10 -10 -10 -10 -11 -11 -11 -11
-10 -10 -10 -9 -9 -9 -9 -9 -9 -9 -9 -9 -10 -9 -9 -9 -9 -9 -9 -10 -10 -10 -10 -11 -11 -11 -10 -10 -10 -10 -10 -10 -11 -11 -11 -11 -11 -11 -11 -11 -11 -11 -11
-10 -10 -9 -9 -9 -9 -9 -9 -10 -10 -9 -10 -9 -9 -9 -9 -9 -9 -10 -10 -11 -10 -10 -11 -11 -11 -12 -12 -11 -11 -11 -11 -11 -11 -11 -11 -11 -11 -11 -11 -12 -12 -12
-10 -10 -10 -9 -9 -9 -9 -9 -10 -9 -9 -10 -10 -10 -9 -10 -9 -10 -10 -11 -11 -11 -12 -12 -12 -12 -12 -12 -11 -11 -11 -11 -11 -11 -11 -11 -12 -12 -11 -12 -12 -12 -12
-11 -10 -10 -9 -9 -9 -9 -9 -9 -9 -9 -10 -10 -11 -9 -10 -10 -10 -11 -11 -11 -11 -12 -13 -13 -13 -13 -12 -12 -12 -12 -12 -12 -12 -12 -12 -12 -12 -12 -12 -12 -12 -12
-10 -10 -10 -10 -10 -9 -9 -9 -10 -10 -10 -10 -10 -10 -10 -10 -11 -11 -11 -11 -11 -12 -12 -12 -13 -13 -12 -12 -12 -12 -12 -13 -13 -13 -13 -12 -12 -12 -12 -12 -13 -13 -13
-11 -11 -11 -11 -10 -10 -9 -10 -10 -10 -10 -10 -10 -10 -9 -10 -10 -11 -11 -11 -12 -12 -12 -12 -12 -12 -12 -12 -12 -13 -13 -14 -14 -13 -13 -13 -13 -13 -13 -13 -13 -14 -14
-12 -11 -11 -11 -11 -11 -11 -11 -11 -11 -11 -11 -10 -10 -10 -10 -11 -11 -12 -12 -12 -12 -12 -12 -13 -13 -13 -13 -13 -14 -14 -14 -14 -14 -14 -14 -14 -14 -14 -15 -15 -15 -15
-13 -12 -12 -12 -11 -12 -12 -11 -11 -12 -11 -11 -11 -11 -11 -12 -12 -12 -12 -12 -12 -12 -13 -13 -13 -13 -13 -13 -14 -14 -14 -14 -14 -14 -14 -15 -15 -15 -15 -15 -15 -15 -15
-13 -13 -13 -13 -13 -13 -13 -13 -12 -12 -12 -12 -11 -12 -12 -13 -13 -13 -12 -13 -13 -14 -14 -14 -14 -14 -14 -14 -14 -14 -14 -14 -15 -15 -15 -15 -15 -15 -15 -15 -16 -16 -16
-14 -13 -13 -13 -14 -14 -14 -13 -13 -14 -14 -13 -12 -13 -13 -13 -13 -13 -13 -13 -13 -14 -14 -15 -15 -14 -14 -14 -15 -15 -15 -15 -15 -15 -15 -15 -16 -16 -17 -17 -17 -17 -18
-15 -14 -14 -14 -14 -14 -14 -14 -14 -14 -15 -15 -14 -14 -14 -14 -14 -14 -15 -15 -15 -15 -15 -15 -15 -15 -15 -16 -16 -15 -15 -15 -15 -16 -16 -16 -17 -17 -18 -18 -18 -18 -19
-15 -15 -15 -15 -15 -15 -15 -15 -15 -15 -15 -15 -15 -15 -15 -15 -15 -15 -15 -15 -15 -15 -15 -16 -16 -16 -15 -15 -15 -15 -15 -16 -16 -16 -17 -18 -19 -19 -19 -19 -19 -20 -20

GFSGL_500_temp_084.txt.gz
Temp
-8 -9 -9 -9 -9 -9 -9 -9 -9 -9 -9 -9 -9 -8 -8 -8 -8 -8 -8 -8 -8 -8 -8 -8 -7 -7 -8 -8 -7 -7 -7 -7 -7 -7 -7 -7 -7 -7 -7 -7 -7 -7 -7
-8 -9 -9 -9 -10 -10 -9 -9 -9 -9 -9 -9 -8 -8 -9 -9 -8 -8 -8 -8 -8 -8 -8 -8 -8 -8 -8 -8 -8 -8 -7 -7 -7 -8 -7 -7 -7 -8 -8 -7 -7 -7 -8
-9 -10 -10 -10 -10 -10 -10 -10 -9 -10 -10 -9 -9 -9 -8 -8 -8 -8 -8 -8 -8 -8 -8 -8 -8 -8 -8 -8 -8 -8 -8 -8 -8 -8 -8 -8 -8 -8 -8 -7 -8 -8 -8
-9 -10 -10 -10 -10 -10 -10 -10 -9 -9 -9 -9 -9 -8 -8 -9 -9 -9 -8 -8 -8 -8 -8 -7 -7 -8 -8 -8 -8 -8 -8 -8 -8 -8 -8 -8 -8 -8 -8 -8 -8 -9 -8
-11 -9 -9 -10 -10 -10 -10 -10 -10 -10 -10 -10 -10 -9 -9 -8 -8 -8 -8 -8 -7 -7 -8 -8 -7 -7 -8 -8 -7 -7 -8 -8 -8 -7 -7 -8 -8 -8 -8 -8 -8 -8 -8
-11 -10 -10 -9 -10 -10 -10 -10 -10 -10 -10 -10 -10 -9 -10 -10 -10 -9 -8 -8 -9 -9 -8 -8 -8 -8 -7 -7 -7 -7 -8 -8 -8 -8 -8 -8 -8 -8 -9 -9 -9 -9 -9
-9 -10 -9 -8 -9 -10 -10 -10 -9 -10 -10 -10 -10 -11 -10 -11 -10 -10 -9 -9 -8 -9 -9 -9 -8 -8 -8 -8 -8 -8 -8 -8 -8 -9 -8 -8 -9 -9 -9 -9 -9 -10 -10
-9 -10 -9 -8 -10 -10 -10 -10 -10 -10 -9 -9 -9 -9 -9 -9 -9 -9 -9 -10 -9 -9 -9 -9 -9 -9 -8 -8 -7 -8 -7 -8 -8 -9 -9 -9 -9 -9 -10 -10 -10 -10 -10
-9 -9 -9 -9 -10 -11 -11 -10 -10 -10 -9 -9 -9 -9 -9 -9 -9 -9 -8 -9 -11 -8 -9 -9 -9 -9 -8 -8 -8 -8 -8 -8 -8 -8 -9 -9 -10 -10 -9 -10 -10 -10 -10
-9 -10 -10 -10 -10 -10 -10 -10 -10 -10 -10 -9 -9 -8 -9 -8 -8 -8 -8 -10 -12 -9 -10 -9 -9 -9 -9 -9 -8 -8 -7 -8 -8 -8 -9 -9 -9 -10 -10 -10 -10 -10 -10
-11 -11 -11 -11 -11 -10 -10 -10 -10 -10 -10 -9 -8 -8 -8 -8 -9 -8 -9 -10 -11 -10 -9 -10 -9 -10 -9 -9 -8 -8 -8 -8 -10 -9 -9 -9 -9 -10 -10 -10 -10 -10 -10
-11 -11 -11 -11 -10 -10 -10 -10 -10 -10 -9 -8 -8 -8 -8 -8 -8 -8 -9 -10 -9 -10 -10 -10 -9 -9 -10 -10 -9 -8 -9 -9 -9 -10 -10 -9 -9 -9 -10 -10 -10 -10 -10
-11 -10 -10 -10 -10 -10 -10 -9 -9 -9 -9 -9 -8 -8 -9 -9 -8 -8 -9 -10 -10 -10 -10 -10 -10 -9 -10 -10 -10 -9 -8 -9 -9 -10 -10 -10 -10 -9 -9 -9 -10 -10 -10
-11 -11 -11 -11 -10 -9 -9 -9 -9 -9 -9 -8 -9 -8 -9 -9 -8 -10 -9 -10 -9 -10 -10 -10 -10 -10 -10 -10 -11 -10 -10 -10 -9 -10 -10 -11 -11 -11 -10 -10 -10 -10 -11
-11 -11 -11 -10 -10 -9 -9 -9 -8 -8 -9 -9 -9 -9 -9 -9 -7 -9 -9 -9 -10 -9 -10 -10 -10 -10 -9 -10 -11 -11 -10 -10 -10 -10 -10 -10 -11 -11 -11 -11 -11 -11 -11
-11 -11 -11 -10 -10 -9 -9 -9 -8 -9 -9 -9 -9 -9 -9 -9 -8 -9 -9 -9 -9 -9 -10 -11 -10 -10 -10 -10 -11 -11 -11 -10 -10 -10 -10 -10 -11 -11 -11 -11 -12 -12 -12
-11 -10 -10 -10 -10 -9 -9 -9 -9 -9 -9 -9 -9 -9 -9 -10 -10 -10 -9 -9 -10 -10 -10 -11 -11 -10 -10 -10 -11 -11 -11 -11 -11 -11 -11 -11 -11 -11 -12 -12 -12 -12 -12
-11 -11 -10 -10 -10 -9 -9 -9 -9 -9 -9 -9 -9 -9 -9 -9 -10 -10 -10 -9 -10 -10 -11 -11 -11 -11 -11 -12 -12 -12 -12 -12 -12 -12 -12 -12 -13 -13 -13 -13 -13 -13 -13
-11 -11 -11 -10 -10 -10 -10 -9 -9 -9 -9 -9 -9 -9 -10 -10 -10 -10 -10 -10 -10 -10 -10 -11 -11 -11 -12 -12 -13 -13 -13 -13 -13 -13 -13 -13 -14 -14 -14 -14 -13 -13 -13
-12 -12 -11 -11 -10 -10 -10 -11 -10 -10 -10 -10 -10 -10 -11 -11 -10 -10 -10 -10 -11 -11 -11 -12 -12 -12 -12 -12 -12 -13 -13 -13 -13 -13 -13 -13 -14 -14 -14 -14 -14 -14 -14
-13 -13 -12 -12 -11 -12 -12 -11 -11 -11 -11 -11 -10 -10 -11 -11 -11 -10 -10 -10 -11 -11 -12 -12 -12 -12 -12 -12 -13 -13 -13 -13 -13 -13 -14 -14 -14 -14 -14 -14 -14 -14 -15
-14 -14 -14 -13 -12 -12 -12 -12 -12 -12 -12 -12 -11 -11 -11 -11 -12 -11 -11 -11 -12 -12 -12 -12 -13 -13 -13 -13 -13 -14 -14 -14 -14 -14 -14 -14 -14 -14 -14 -15 -15 -15 -15
-14 -14 -14 -14 -14 -13 -13 -13 -13 -13 -13 -12 -12 -12 -12 -12 -12 -12 -12 -13 -13 -13 -13 -13 -13 -14 -14 -14 -14 -14 -14 -14 -14 -14 -14 -14 -14 -15 -15 -15 -16 -16 -16
-14 -14 -14 -14 -14 -14 -14 -14 -14 -14 -13 -13 -13 -13 -13 -13 -13 -13 -13 -13 -13 -14 -14 -14 -14 -15 -15 -14 -14 -14 -14 -14 -15 -15 -15 -15 -15 -16 -16 -16 -16 -16 -17
-14 -14 -14 -15 -15 -14 -14 -14 -14 -14 -15 -14 -14 -14 -14 -14 -14 -14 -14 -14 -13 -13 -15 -15 -15 -15 -15 -15 -15 -15 -15 -16 -16 -16 -16 -16 -16 -15 -15 -15 -16 -17 -18
-15 -15 -15 -15 -15 -15 -15 -15 -15 -15 -15 -15 -15 -15 -15 -15 -15 -15 -15 -15 -15 -15 -15 -15 -15 -15 -16 -16 -16 -16 -16 -16 -16 -16 -16 -16 -16 -16 -16 -17 -17 -18 -18

GFSGL_500_temp_087.txt.gz
Temp
-9 -9 -9 -9 -9 -10 -9 -9 -8 -8 -9 -8 -8 -8 -8 -8 -7 -7 -7 -7 -7 -7 -8 -8 -7 -7 -7 -7 -7 -7 -7 -7 -7 -8 -7 -7 -7 -7 -7 -7 -7 -7 -7
-9 -9 -9 -9 -9 -9 -10 -10 -9 -9 -9 -9 -9 -9 -8 -8 -8 -7 -7 -7 -7 -7 -7 -6 -7 -7 -7 -7 -7 -7 -7 -7 -7 -7 -7 -7 -6 -7 -7 -7 -7 -7 -7
-9 -10 -9 -9 -10 -10 -10 -10 -9 -9 -9 -10 -10 -9 -9 -9 -8 -8 -8 -7 -7 -7 -7 -7 -7 -6 -7 -7 -7 -8 -7 -7 -7 -7 -6 -7 -7 -7 -7 -7 -8 -7 -7
-9 -9 -9 -9 -8 -9 -10 -10 -10 -10 -10 -10 -10 -10 -10 -10 -10 -9 -8 -8 -7 -7 -7 -7 -7 -7 -7 -7 -7 -7 -7 -7 -7 -7 -7 -7 -8 -7 -8 -8 -8 -7 -7
-9 -9 -10 -10 -9 -9 -10 -10 -10 -11 -11 -10 -10 -10 -10 -10 -10 -10 -10 -9 -9 -8 -8 -7 -7 -7 -7 -8 -7 -7 -7 -7 -7 -7 -8 -8 -8 -8 -9 -9 -8 -8 -8
-9 -9 -9 -9 -9 -10 -11 -11 -10 -10 -11 -11 -11 -10 -11 -10 -10 -10 -10 -10 -10 -9 -9 -8 -8 -7 -7 -7 -7 -7 -7 -7 -7 -8 -8 -8 -8 -8 -9 -9 -9 -9 -8
-8 -9 -9 -10 -9 -10 -10 -11 -10 -9 -10 -11 -10 -10 -10 -10 -10 -9 -9 -9 -9 -10 -10 -9 -9 -8 -8 -8 -7 -7 -7 -7 -7 -8 -8 -8 -9 -9 -8 -8 -8 -9 -9
-9 -9 -9 -9 -9 -9 -10 -10 -10 -10 -10 -10 -10 -10 -10 -9 -9 -9 -8 -8 -9 -8 -8 -9 -10 -9 -8 -8 -8 -8 -7 -7 -7 -8 -8 -8 -9 -9 -9 -9 -9 -9 -9
-9 -10 -9 -9 -9 -9 -9 -9 -9 -10 -10 -10 -11 -10 -9 -9 -9 -9 -8 -8 -9 -9 -8 -9 -9 -10 -9 -8 -8 -8 -8 -8 -8 -8 -8 -8 -8 -9 -9 -9 -10 -10 -10
-10 -10 -9 -10 -9 -9 -10 -10 -9 -10 -9 -9 -10 -9 -9 -9 -9 -9 -9 -9 -8 -9 -9 -9 -9 -9 -10 -9 -9 -8 -8 -8 -8 -8 -8 -8 -9 -9 -10 -10 -10 -10 -10
-10 -10 -10 -9 -9 -9 -10 -10 -10 -10 -9 -10 -9 -9 -9 -9 -9 -9 -9 -9 -9 -9 -9 -10 -10 -10 -10 -10 -9 -9 -9 -9 -8 -8 -8 -9 -10 -9 -10 -10 -10 -10 -10
-11 -11 -11 -10 -10 -10 -9 -9 -9 -9 -9 -9 -9 -9 -8 -9 -9 -9 -9 -8 -9 -9 -9 -10 -10 -10 -10 -10 -9 -9 -9 -10 -9 -9 -9 -9 -10 -10 -10 -10 -10 -10 -10
-11 -11 -11 -10 -10 -9 -10 -10 -10 -10 -9 -8 -8 -8 -8 -8 -8 -9 -9 -8 -9 -9 -9 -10 -10 -10 -10 -10 -10 -10 -10 -11 -10 -10 -9 -10 -11 -11 -10 -10 -10 -10 -10
-11 -11 -11 -10 -10 -10 -9 -9 -8 -9 -9 -8 -8 -8 -8 -8 -9 -9 -9 -9 -9 -10 -10 -10 -10 -10 -10 -10 -10 -9 -10 -11 -11 -11 -11 -11 -11 -11 -11 -11 -11 -11 -11
-11 -10 -10 -10 -9 -9 -9 -9 -9 -9 -8 -8 -8 -8 -8 -8 -9 -8 -8 -9 -9 -9 -10 -10 -10 -10 -10 -10 -10 -10 -11 -12 -11 -11 -11 -11 -11 -11 -11 -11 -11 -11 -11
-10 -10 -9 -9 -9 -9 -9 -9 -9 -8 -8 -8 -8 -8 -8 -8 -9 -9 -9 -9 -8 -9 -9 -10 -10 -10 -10 -10 -10 -10 -10 -11 -11 -11 -11 -11 -12 -12 -12 -12 -12 -12 -12
-10 -10 -10 -10 -10 -10 -9 -9 -9 -9 -8 -8 -8 -8 -9 -9 -9 -9 -9 -9 -10 -9 -10 -10 -10 -10 -9 -10 -11 -11 -11 -11 -11 -11 -12 -12 -12 -12 -12 -12 -12 -12 -12
-10 -10 -10 -10 -10 -10 -10 -10 -9 -9 -9 -9 -9 -8 -9 -9 -9 -9 -9 -9 -9 -10 -10 -10 -10 -10 -10 -11 -11 -11 -11 -11 -12 -12 -12 -12 -12 -12 -12 -12 -12 -13 -13
-10 -10 -10 -10 -10 -10 -10 -10 -10 -9 -10 -9 -9 -9 -9 -10 -9 -10 -10 -10 -9 -9 -10 -10 -10 -11 -11 -11 -11 -11 -12 -12 -13 -13 -13 -12 -12 -13 -13 -12 -12 -13 -13
-12 -11 -11 -11 -11 -11 -11 -10 -10 -10 -10 -10 -10 -10 -10 -10 -10 -10 -11 -10 -10 -10 -10 -10 -10 -11 -11 -11 -11 -12 -12 -12 -13 -13 -13 -13 -13 -13 -13 -14 -14 -14 -14
-14 -13 -13 -13 -13 -12 -11 -11 -11 -10 -11 -11 -10 -10 -10 -11 -10 -10 -10 -10 -11 -10 -10 -10 -10 -11 -12 -12 -12 -12 -13 -13 -13 -13 -13 -13 -13 -14 -14 -14 -14 -14 -14
-14 -14 -14 -14 -14 -14 -13 -13 -12 -12 -12 -12 -12 -11 -11 -12 -11 -11 -11 -11 -11 -11 -11 -11 -11 -11 -12 -12 -13 -13 -13 -13 -14 -14 -13 -13 -14 -14 -14 -14 -14 -15 -15
-15 -15 -15 -14 -14 -14 -14 -14 -13 -13 -12 -13 -13 -12 -12 -12 -12 -12 -12 -12 -12 -11 -12 -13 -13 -13 -13 -13 -13 -14 -14 -14 -14 -14 -14 -14 -14 -15 -15 -15 -15 -15 -15
-15 -15 -15 -15 -15 -14 -15 -14 -14 -14 -13 -14 -13 -13 -13 -13 -13 -13 -12 -13 -13 -13 -13 -14 -14 -14 -14 -14 -14 -14 -15 -15 -14 -14 -14 -15 -15 -15 -15 -15 -15 -15 -15
-15 -15 -15 -14 -14 -15 -15 -15 -15 -15 -14 -14 -14 -14 -14 -14 -14 -14 -13 -14 -14 -14 -14 -14 -14 -14 -14 -15 -16 -16 -15 -15 -15 -15 -15 -15 -15 -15 -15 -15 -15 -15 -15
-15 -15 -15 -15 -15 -15 -15 -15 -15 -15 -15 -15 -14 -14 -15 -15 -15 -15 -15 -14 -14 -14 -15 -15 -15 -15 -15 -15 -15 -15 -16 -16 -16 -16 -16 -16 -15 -15 -15 -15 -16 -16 -17

GFSGL_500_temp_090.txt.gz
Temp
-8 -8 -8 -8 -8 -8 -8 -8 -8 -8 -9 -9 -9 -9 -9 -9 -9 -9 -9 -9 -8 -8 -7 -7 -7 -7 -7 -7 -6 -6 -6 -7 -6 -7 -7 -7 -7 -7 -7 -6 -6 -6 -7
-8 -8 -8 -8 -8 -8 -8 -9 -8 -8 -9 -9 -9 -9 -9 -9 -10 -10 -9 -8 -8 -8 -8 -7 -7 -7 -7 -7 -7 -7 -7 -7 -7 -7 -7 -6 -6 -7 -7 -7 -7 -7 -7
-7 -8 -8 -8 -10 -10 -8 -9 -8 -9 -9 -9 -9 -9 -9 -10 -9 -10 -10 -10 -9 -9 -9 -8 -8 -7 -7 -7 -7 -7 -7 -7 -7 -7 -7 -7 -7 -8 -7 -7 -7 -7 -7
-8 -8 -9 -10 -9 -10 -10 -10 -9 -9 -9 -9 -9 -9 -9 -9 -9 -9 -10 -10 -10 -10 -10 -9 -9 -8 -8 -8 -8 -8 -8 -7 -7 -7 -7 -8 -8 -8 -8 -8 -7 -7 -8
-8 -7 -9 -10 -10 -10 -11 -10 -10 -10 -9 -9 -10 -9 -8 -9 -10 -10 -9 -9 -9 -9 -9 -9 -9 -9 -9 -9 -8 -8 -8 -7 -8 -8 -7 -8 -8 -8 -8 -8 -8 -8 -8
-8 -8 -8 -9 -9 -10 -12 -10 -10 -10 -10 -10 -9 -9 -8 -9 -9 -9 -9 -10 -9 -9 -9 -8 -9 -9 -9 -9 -9 -8 -8 -8 -8 -7 -7 -7 -8 -8 -8 -8 -8 -8 -8
-10 -9 -9 -9 -8 -9 -11 -11 -11 -11 -11 -10 -10 -10 -9 -9 -10 -10 -9 -9 -8 -8 -9 -9 -9 -8 -8 -9 -9 -9 -9 -8 -8 -8 -8 -8 -8 -8 -9 -9 -9 -9 -9
-7 -7 -7 -9 -8 -9 -9 -9 -9 -10 -11 -10 -10 -9 -9 -9 -9 -9 -9 -9 -8 -8 -8 -8 -9 -9 -8 -8 -8 -8 -8 -9 -8 -8 -8 -8 -8 -8 -9 -9 -9 -9 -10
-7 -7 -7 -7 -7 -8 -9 -9 -9 -9 -10 -10 -10 -10 -8 -8 -8 -8 -8 -8 -8 -8 -8 -8 -8 -8 -9 -9 -9 -8 -8 -8 -8 -8 -8 -7 -8 -8 -9 -9 -9 -9 -10
-9 -9 -8 -9 -8 -8 -8 -8 -9 -9 -10 -11 -11 -10 -10 -9 -9 -8 -8 -8 -8 -8 -8 -8 -8 -8 -9 -9 -11 -9 -8 -9 -9 -8 -8 -8 -8 -8 -8 -9 -9 -10 -10
-9 -9 -9 -10 -9 -9 -9 -9 -9 -9 -10 -11 -10 -10 -9 -9 -8 -8 -8 -8 -8 -9 -8 -8 -8 -8 -9 -9 -9 -11 -9 -9 -9 -9 -9 -8 -8 -8 -9 -9 -9 -10 -10
-10 -10 -10 -10 -10 -10 -10 -10 -10 -10 -10 -10 -10 -9 -9 -9 -8 -8 -8 -8 -8 -8 -9 -9 -8 -9 -9 -9 -9 -10 -10 -9 -9 -10 -9 -9 -9 -9 -9 -9 -10 -10 -10
-10 -10 -10 -11 -10 -10 -9 -10 -10 -10 -9 -9 -9 -9 -9 -8 -8 -7 -8 -8 -8 -8 -8 -8 -9 -9 -9 -9 -9 -10 -10 -9 -9 -9 -10 -9 -10 -10 -10 -10 -10 -10 -10
-11 -11 -11 -11 -10 -9 -9 -10 -10 -9 -8 -8 -8 -8 -8 -7 -7 -7 -7 -8 -8 -9 -8 -8 -9 -9 -10 -10 -10 -10 -10 -10 -9 -10 -10 -10 -10 -10 -10 -10 -11 -11 -11
-11 -11 -11 -11 -11 -10 -10 -10 -9 -9 -9 -9 -8 -8 -8 -8 -8 -8 -8 -8 -8 -9 -8 -8 -8 -9 -9 -9 -10 -10 -10 -11 -10 -10 -11 -11 -11 -11 -10 -11 -11 -11 -11
-12 -11 -11 -11 -11 -10 -9 -9 -9 -8 -8 -8 -8 -8 -8 -8 -8 -8 -8 -8 -8 -8 -8 -7 -8 -8 -9 -10 -10 -10 -10 -11 -11 -11 -11 -12 -12 -11 -11 -11 -11 -11 -11
-11 -11 -10 -10 -10 -10 -10 -9 -9 -9 -8 -8 -8 -8 -8 -8 -8 -8 -8 -8 -9 -9 -9 -8 -8 -9 -9 -9 -10 -10 -11 -11 -11 -11 -11 -12 -12 -12 -12 -12 -12 -11 -11
-10 -10 -10 -10 -10 -10 -10 -9 -9 -9 -9 -9 -8 -8 -8 -8 -8 -8 -8 -8 -9 -9 -9 -10 -10 -10 -10 -10 -10 -10 -10 -11 -12 -12 -12 -12 -12 -12 -12 -12 -12 -12 -12
-10 -10 -11 -10 -10 -11 -10 -10 -10 -9 -9 -9 -9 -9 -9 -8 -8 -9 -9 -9 -9 -9 -9 -9 -10 -9 -10 -10 -10 -10 -10 -11 -12 -12 -12 -12 -13 -13 -13 -13 -13 -13 -13
-12 -12 -12 -12 -12 -12 -12 -12 -11 -11 -10 -10 -10 -10 -9 -9 -10 -10 -9 -10 -10 -9 -9 -10 -10 -10 -10 -10 -11 -11 -11 -12 -12 -12 -13 -13 -13 -13 -13 -13 -13 -13 -13
-13 -14 -14 -14 -13 -13 -13 -13 -13 -13 -12 -12 -11 -10 -10 -10 -10 -10 -10 -10 -11 -10 -10 -10 -9 -10 -10 -11 -11 -11 -12 -12 -12 -12 -13 -13 -13 -13 -13 -13 -14 -14 -14
-14 -14 -14 -14 -14 -14 -14 -14 -14 -14 -13 -13 -12 -12 -11 -11 -11 -10 -10 -11 -11 -11 -11 -11 -11 -11 -11 -11 -11 -12 -12 -12 -13 -13 -13 -13 -13 -13 -14 -14 -14 -14 -14
-14 -14 -14 -14 -14 -14 -14 -14 -14 -14 -14 -14 -13 -13 -12 -12 -12 -12 -11 -12 -12 -11 -11 -11 -11 -12 -12 -12 -12 -12 -12 -13 -13 -13 -13 -14 -14 -15 -15 -14 -14 -14 -14
-14 -14 -14 -14 -15 -14 -14 -14 -14 -14 -15 -14 -14 -14 -14 -13 -13 -12 -13 -13 -12 -12 -12 -12 -12 -12 -13 -13 -13 -13 -13 -13 -14 -14 -15 -15 -15 -15 -15 -15 -15 -15 -15
-15 -15 -15 -15 -15 -15 -15 -15 -15 -15 -15 -14 -14 -14 -14 -13 -14 -13 -13 -14 -13 -13 -13 -13 -13 -13 -13 -13 -13 -13 -14 -14 -16 -17 -16 -15 -15 -16 -16 -15 -15 -15 -15
-16 -15 -15 -15 -16 -16 -16 -16 -16 -15 -15 -15 -15 -15 -14 -14 -15 -16 -15 -15 -14 -14 -14 -14 -14 -14 -14 -15 -15 -16 -16 -16 -16 -16 -16 -16 -16 -16 -16 -16 -16 -16 -16

GFSGL_500_temp_096.txt.gz
Temp
-7 -7 -7 -8 -8 -8 -8 -8 -8 -9 -8 -8 -8 -8 -7 -8 -8 -8 -7 -8 -8 -8 -8 -7 -8 -8 -8 -8 -7 -7 -7 -7 -6 -6 -7 -7 -6 -6 -6 -6 -6 -7 -7
-7 -7 -8 -8 -7 -7 -8 -9 -8 -9 -9 -9 -8 -8 -8 -8 -8 -8 -8 -8 -8 -8 -8 -8 -8 -8 -8 -8 -8 -8 -7 -7 -7 -7 -7 -7 -7 -7 -6 -7 -7 -7 -6
-5 -8 -7 -8 -5 -3 -7 -9 -8 -9 -9 -9 -9 -8 -8 -9 -9 -9 -9 -9 -8 -8 -8 -8 -8 -8 -8 -7 -7 -7 -7 -7 -7 -7 -7 -7 -7 -7 -7 -7 -7 -7 -7
-8 -8 -8 -7 -8 -7 -8 -7 -8 -9 -9 -9 -9 -8 -9 -9 -9 -9 -9 -9 -8 -9 -8 -8 -8 -8 -7 -7 -7 -7 -7 -7 -7 -7 -7 -7 -7 -7 -7 -7 -7 -7 -7
-8 -8 -8 -8 -8 -9 -9 -8 -8 -9 -9 -9 -8 -9 -8 -9 -9 -9 -9 -10 -9 -9 -9 -8 -8 -8 -8 -7 -7 -7 -7 -7 -7 -7 -7 -7 -7 -7 -7 -7 -7 -7 -7
-8 -8 -8 -8 -8 -8 -8 -8 -7 -9 -8 -8 -9 -9 -8 -8 -8 -9 -9 -10 -10 -9 -9 -8 -8 -8 -8 -7 -8 -8 -7 -7 -7 -7 -7 -7 -7 -7 -7 -7 -7 -6 -7
-9 -10 -9 -8 -8 -8 -7 -7 -7 -8 -9 -8 -8 -8 -9 -9 -9 -9 -8 -9 -10 -10 -10 -8 -8 -8 -8 -8 -7 -8 -8 -8 -8 -8 -7 -7 -7 -7 -7 -7 -7 -7 -7
-8 -8 -8 -8 -7 -7 -7 -7 -7 -8 -8 -8 -8 -8 -8 -8 -9 -9 -8 -8 -9 -10 -10 -9 -9 -8 -8 -8 -8 -7 -8 -8 -8 -8 -8 -8 -8 -8 -8 -7 -7 -8 -8
-8 -8 -8 -8 -8 -7 -6 -7 -7 -7 -7 -8 -8 -8 -8 -8 -9 -9 -9 -9 -9 -9 -10 -9 -9 -9 -8 -8 -8 -8 -8 -8 -9 -9 -9 -8 -9 -9 -9 -8 -8 -8 -8
-8 -8 -8 -8 -8 -8 -7 -7 -8 -8 -8 -8 -8 -9 -9 -9 -8 -8 -9 -9 -9 -9 -10 -9 -9 -9 -9 -8 -8 -8 -8 -8 -8 -8 -8 -8 -8 -9 -9 -9 -9 -8 -8
-9 -9 -9 -8 -8 -8 -8 -8 -8 -8 -8 -8 -8 -9 -9 -10 -9 -8 -9 -9 -9 -9 -9 -8 -9 -9 -8 -8 -8 -8 -8 -8 -8 -8 -8 -8 -8 -9 -9 -9 -10 -10 -9
-9 -9 -10 -9 -9 -8 -9 -9 -9 -9 -9 -8 -9 -9 -9 -9 -9 -9 -9 -9 -9 -8 -9 -7 -8 -8 -9 -8 -7 -8 -8 -8 -7 -7 -8 -9 -9 -9 -9 -9 -9 -9 -9
-10 -10 -10 -10 -9 -9 -9 -9 -9 -9 -9 -9 -9 -10 -10 -9 -9 -9 -9 -9 -9 -9 -8 -8 -8 -8 -8 -8 -8 -8 -7 -8 -8 -8 -8 -9 -9 -10 -10 -10 -10 -10 -10
-11 -11 -10 -10 -9 -10 -10 -9 -10 -10 -10 -10 -10 -11 -12 -11 -10 -10 -10 -10 -9 -8 -8 -9 -9 -8 -8 -8 -8 -8 -9 -8 -9 -9 -9 -9 -10 -10 -10 -10 -10 -10 -10
-11 -11 -11 -11 -11 -10 -10 -10 -10 -10 -11 -11 -11 -12 -11 -11 -10 -11 -10 -9 -9 -9 -9 -9 -8 -8 -8 -8 -8 -8 -8 -9 -8 -8 -8 -9 -8 -9 -10 -10 -11 -11 -10
-11 -10 -11 -11 -11 -11 -11 -11 -11 -11 -11 -11 -11 -11 -10 -10 -10 -9 -9 -9 -9 -9 -8 -8 -8 -8 -9 -8 -8 -8 -8 -8 -8 -8 -8 -8 -9 -9 -9 -10 -10 -11 -11
-10 -11 -10 -10 -10 -10 -10 -11 -11 -11 -11 -11 -10 -10 -10 -10 -9 -9 -9 -9 -8 -8 -9 -9 -9 -9 -8 -8 -8 -8 -8 -9 -9 -8 -9 -9 -10 -10 -10 -10 -10 -11 -11
-10 -10 -10 -10 -10 -10 -10 -10 -10 -10 -10 -11 -10 -10 -10 -9 -9 -9 -9 -9 -9 -9 -8 -8 -8 -8 -8 -8 -8 -8 -9 -9 -8 -8 -9 -10 -9 -10 -10 -10 -10 -11 -11
-11 -11 -11 -11 -11 -11 -11 -10 -10 -10 -10 -10 -10 -10 -10 -10 -9 -9 -9 -9 -9 -8 -8 -8 -8 -8 -8 -8 -8 -8 -9 -9 -8 -8 -8 -10 -10 -10 -10 -10 -11 -11 -11
-11 -11 -11 -11 -11 -11 -11 -12 -12 -11 -10 -11 -11 -11 -10 -10 -10 -10 -9 -9 -9 -9 -8 -8 -8 -9 -9 -9 -9 -9 -9 -9 -10 -9 -9 -10 -10 -10 -10 -11 -11 -12 -12
-12 -12 -12 -12 -12 -12 -12 -12 -12 -13 -13 -13 -12 -13 -12 -12 -12 -11 -10 -9 -9 -9 -9 -9 -9 -9 -9 -9 -9 -9 -10 -10 -10 -10 -10 -10 -11 -11 -11 -11 -12 -12 -12
-13 -13 -13 -13 -13 -13 -13 -13 -13 -13 -13 -13 -13 -13 -13 -13 -13 -12 -12 -12 -11 -11 -10 -10 -10 -10 -9 -9 -10 -10 -10 -10 -11 -11 -11 -11 -11 -12 -12 -12 -12 -12 -13
-14 -14 -14 -14 -14 -14 -14 -13 -14 -13 -14 -14 -14 -14 -14 -14 -13 -13 -13 -13 -12 -12 -12 -11 -11 -10 -10 -10 -11 -11 -11 -12 -11 -11 -11 -12 -12 -12 -12 -12 -13 -13 -13
-14 -15 -15 -15 -15 -15 -15 -14 -14 -14 -14 -14 -15 -14 -14 -14 -14 -14 -14 -13 -13 -13 -13 -12 -12 -12 -11 -11 -11 -11 -11 -11 -12 -12 -12 -12 -12 -13 -12 -13 -13 -13 -14
-15 -16 -16 -16 -16 -16 -16 -15 -15 -15 -15 -15 -15 -15 -15 -14 -14 -14 -14 -14 -14 -14 -14 -14 -13 -13 -12 -12 -12 -12 -13 -12 -12 -12 -12 -12 -13 -13 -13 -14 -14 -15 -16
-16 -16 -17 -17 -17 -16 -16 -16 -16 -16 -16 -16 -16 -15 -15 -15 -15 -14 -14 -15 -15 -15 -15 -15 -15 -14 -13 -13 -13 -12 -13 -13 -13 -13 -13 -13 -13 -13 -14 -14 -16 -17 -17

GFSGL_500_temp_099.txt.gz
Temp
-8 -8 -8 -8 -8 -8 -8 -8 -8 -9 -8 -8 -8 -8 -8 -8 -8 -8 -8 -8 -8 -9 -8 -8 -8 -8 -8 -7 -8 -8 -7 -7 -7 -7 -7 -7 -6 -7 -6 -6 -7 -7 -7
-8 -8 -8 -7 -8 -8 -9 -7 -6 -8 -9 -9 -8 -8 -8 -8 -8 -8 -9 -9 -8 -9 -9 -8 -8 -8 -8 -8 -8 -8 -7 -7 -7 -7 -7 -7 -6 -7 -6 -6 -7 -7 -7
-8 -7 -7 -4 -7 -8 -7 -7 -6 -7 -9 -8 -9 -8 -8 -8 -8 -9 -9 -9 -8 -8 -9 -9 -9 -8 -8 -8 -7 -7 -8 -8 -8 -7 -7 -7 -7 -7 -7 -7 -7 -7 -7
-8 -9 -9 -8 -7 -7 -7 -7 -6 -7 -8 -8 -9 -9 -9 -8 -9 -9 -9 -9 -9 -8 -9 -9 -9 -8 -8 -8 -8 -8 -7 -7 -7 -7 -7 -7 -7 -7 -7 -7 -7 -7 -7
-9 -9 -8 -10 -9 -9 -8 -8 -8 -8 -7 -7 -9 -9 -8 -9 -9 -9 -9 -9 -9 -8 -8 -9 -9 -8 -8 -8 -8 -8 -8 -7 -8 -8 -7 -7 -7 -7 -7 -7 -7 -7 -7
-9 -9 -9 -9 -7 -8 -7 -8 -7 -6 -7 -8 -8 -8 -8 -8 -10 -10 -9 -9 -9 -9 -9 -9 -9 -9 -8 -8 -8 -7 -8 -8 -7 -7 -8 -8 -8 -8 -7 -7 -7 -7 -7
-9 -9 -8 -8 -8 -7 -8 -7 -7 -7 -7 -7 -7 -8 -8 -8 -10 -10 -10 -9 -9 -9 -9 -8 -9 -9 -9 -8 -8 -8 -8 -7 -7 -8 -8 -8 -8 -8 -8 -8 -8 -8 -8
-9 -8 -8 -7 -8 -7 -8 -7 -8 -8 -7 -7 -7 -7 -8 -8 -8 -10 -10 -9 -9 -9 -9 -8 -9 -9 -8 -8 -8 -8 -8 -7 -7 -8 -8 -8 -8 -8 -8 -8 -8 -8 -8
-9 -9 -8 -8 -7 -7 -8 -7 -7 -8 -8 -8 -8 -8 -8 -8 -8 -8 -8 -9 -9 -9 -9 -9 -9 -8 -8 -7 -8 -8 -8 -8 -8 -7 -8 -8 -8 -8 -8 -8 -8 -9 -8
-9 -9 -9 -8 -8 -8 -8 -7 -7 -8 -8 -8 -8 -8 -8 -6 -8 -8 -8 -8 -9 -9 -8 -8 -9 -9 -9 -8 -7 -8 -8 -8 -7 -8 -8 -8 -8 -8 -8 -8 -8 -9 -9
-9 -9 -9 -9 -9 -9 -9 -8 -8 -8 -8 -8 -8 -8 -8 -8 -8 -8 -8 -8 -8 -8 -8 -8 -8 -8 -9 -9 -8 -8 -8 -8 -8 -8 -8 -8 -8 -9 -9 -9 -9 -9 -9
-10 -9 -9 -9 -9 -9 -9 -9 -9 -8 -9 -8 -9 -9 -9 -9 -8 -8 -9 -8 -9 -9 -8 -8 -8 -9 -9 -9 -9 -8 -8 -8 -8 -8 -8 -9 -8 -8 -9 -9 -9 -9 -9
-10 -10 -10 -10 -10 -9 -9 -9 -9 -9 -9 -9 -9 -9 -9 -9 -9 -9 -8 -9 -7 -8 -9 -9 -9 -9 -9 -9 -9 -9 -8 -7 -8 -8 -8 -8 -8 -8 -8 -8 -9 -9 -10
-11 -10 -10 -10 -10 -10 -10 -9 -9 -9 -10 -10 -10 -10 -10 -10 -10 -10 -10 -10 -8 -8 -9 -9 -9 -9 -9 -9 -9 -9 -9 -8 -8 -8 -8 -8 -8 -8 -8 -8 -8 -10 -10
-11 -11 -10 -10 -10 -10 -10 -10 -10 -10 -10 -10 -10 -10 -11 -10 -10 -11 -10 -11 -10 -10 -10 -10 -10 -9 -9 -9 -9 -9 -9 -9 -9 -8 -8 -8 -7 -8 -8 -9 -9 -9 -9
-10 -10 -10 -10 -10 -10 -10 -10 -10 -10 -10 -10 -11 -11 -11 -11 -11 -11 -11 -11 -10 -10 -10 -9 -9 -9 -8 -8 -8 -8 -9 -8 -8 -8 -8 -8 -7 -8 -9 -9 -9 -9 -9
-10 -10 -10 -10 -10 -10 -9 -10 -10 -9 -9 -10 -10 -10 -11 -10 -10 -10 -10 -10 -9 -9 -9 -9 -9 -8 -8 -8 -8 -8 -8 -8 -8 -8 -8 -8 -8 -8 -9 -9 -10 -10 -10
-10 -10 -10 -10 -10 -10 -10 -10 -10 -10 -10 -10 -10 -10 -10 -10 -10 -10 -10 -10 -9 -9 -8 -8 -8 -8 -8 -8 -8 -8 -8 -8 -8 -8 -8 -8 -8 -8 -9 -9 -9 -9 -10
-11 -11 -11 -11 -11 -11 -11 -11 -11 -11 -11 -11 -11 -11 -11 -10 -10 -10 -9 -9 -9 -9 -9 -9 -9 -9 -9 -8 -8 -8 -8 -8 -8 -8 -8 -9 -9 -9 -9 -9 -9 -9 -10
-11 -12 -12 -11 -11 -11 -11 -11 -11 -12 -11 -11 -11 -11 -11 -11 -11 -10 -10 -10 -10 -9 -9 -9 -9 -9 -9 -9 -8 -9 -8 -8 -9 -8 -9 -9 -9 -9 -10 -10 -10 -10 -11
-12 -12 -12 -12 -11 -11 -12 -12 -12 -13 -12 -12 -12 -12 -12 -12 -12 -12 -12 -12 -12 -11 -10 -10 -10 -9 -9 -8 -8 -9 -9 -9 -9 -9 -9 -9 -9 -10 -10 -10 -11 -11 -11
-12 -12 -12 -12 -12 -12 -12 -13 -13 -13 -13 -13 -14 -14 -13 -13 -13 -13 -13 -13 -13 -13 -12 -12 -11 -11 -10 -10 -9 -9 -9 -10 -10 -10 -9 -9 -9 -10 -10 -11 -10 -11 -12
-13 -13 -13 -13 -13 -13 -14 -14 -14 -14 -15 -14 -14 -14 -14 -14 -14 -14 -14 -13 -13 -13 -13 -12 -12 -12 -11 -11 -11 -11 -11 -10 -11 -11 -11 -10 -10 -11 -11 -11 -12 -11 -12
-13 -13 -13 -14 -14 -14 -15 -16 -16 -16 -16 -15 -15 -15 -15 -15 -15 -15 -14 -14 -14 -14 -14 -13 -13 -12 -12 -12 -12 -11 -12 -12 -12 -11 -11 -11 -11 -11 -12 -12 -11 -12 -12
-14 -14 -14 -15 -15 -15 -16 -16 -16 -16 -16 -16 -16 -16 -16 -15 -15 -15 -15 -15 -14 -14 -14 -14 -14 -14 -14 -13 -13 -13 -12 -12 -12 -12 -12 -11 -11 -11 -11 -12 -12 -12 -13
-14 -14 -15 -15 -15 -16 -16 -16 -16 -16 -16 -16 -16 -16 -16 -16 -16 -15 -15 -16 -15 -15 -15 -15 -15 -15 -15 -14 -14 -14 -13 -13 -13 -13 -13 -12 -13 -12 -12 -12 -13 -13 -13

GFSGL_500_temp_102.txt.gz
Temp
-8 -8 -9 -9 -9 -9 -9 -9 -9 -8 -8 -8 -8 -7 -7 -7 -7 -7 -8 -8 -8 -8 -8 -8 -9 -9 -9 -8 -8 -8 -9 -8 -8 -6 -6 -6 -6 -7 -7 -7 -7 -6 -7
-9 -9 -9 -7 -7 -8 -7 -7 -9 -9 -8 -9 -8 -8 -8 -8 -8 -7 -8 -8 -8 -8 -8 -8 -8 -9 -9 -8 -8 -8 -8 -9 -9 -8 -7 -7 -7 -7 -7 -7 -7 -6 -6
-9 -9 -8 -8 -7 -7 -8 -4 -7 -8 -8 -8 -8 -8 -8 -8 -8 -8 -8 -8 -9 -9 -9 -8 -8 -8 -9 -9 -9 -8 -8 -8 -8 -8 -8 -8 -7 -7 -7 -7 -7 -7 -7
-9 -8 -8 -7 -8 -7 -8 -7 -7 -8 -7 -7 -7 -7 -8 -8 -9 -9 -9 -9 -9 -9 -9 -9 -8 -8 -9 -9 -8 -8 -8 -7 -8 -8 -8 -8 -8 -8 -8 -7 -7 -7 -7
-8 -8 -9 -10 -10 -9 -8 -6 -7 -8 -7 -7 -7 -7 -8 -8 -9 -9 -9 -9 -9 -9 -9 -9 -9 -8 -8 -9 -9 -8 -8 -7 -7 -7 -8 -7 -7 -7 -7 -7 -7 -7 -7
-10 -11 -10 -10 -9 -8 -7 -6 -8 -7 -6 -6 -6 -7 -7 -8 -8 -8 -9 -9 -9 -9 -9 -9 -9 -8 -8 -8 -8 -8 -8 -8 -7 -7 -7 -7 -8 -7 -7 -7 -7 -7 -7
-9 -10 -10 -9 -8 -8 -7 -7 -8 -7 -8 -8 -9 -9 -7 -8 -8 -8 -8 -9 -10 -9 -9 -9 -9 -9 -9 -8 -8 -8 -8 -8 -8 -8 -7 -7 -7 -8 -8 -7 -7 -7 -7
-10 -10 -10 -9 -9 -8 -8 -8 -8 -8 -8 -8 -8 -7 -8 -7 -7 -8 -8 -8 -8 -9 -9 -9 -9 -9 -9 -9 -8 -8 -8 -8 -7 -7 -7 -7 -7 -8 -8 -8 -8 -7 -7
-10 -10 -10 -10 -10 -9 -9 -9 -8 -8 -7 -8 -8 -8 -7 -7 -7 -7 -8 -7 -8 -8 -9 -9 -9 -9 -9 -9 -9 -8 -8 -8 -8 -7 -7 -7 -8 -8 -8 -8 -8 -8 -8
-10 -10 -9 -9 -9 -9 -9 -9 -9 -9 -8 -7 -8 -8 -8 -8 -8 -8 -8 -8 -8 -8 -8 -9 -10 -9 -9 -9 -9 -9 -9 -8 -8 -8 -8 -8 -8 -9 -9 -9 -8 -8 -8
-10 -10 -10 -9 -9 -9 -9 -9 -9 -9 -8 -8 -9 -8 -8 -7 -8 -8 -8 -9 -8 -8 -8 -8 -9 -9 -9 -9 -9 -9 -9 -9 -8 -8 -8 -8 -8 -8 -8 -8 -8 -8 -9
-11 -10 -10 -9 -9 -8 -8 -8 -8 -8 -9 -9 -9 -8 -9 -8 -8 -8 -8 -8 -8 -8 -8 -9 -8 -9 -8 -9 -9 -9 -9 -9 -9 -9 -8 -8 -9 -9 -9 -8 -8 -8 -8
-10 -10 -10 -9 -9 -9 -9 -8 -8 -8 -8 -8 -8 -9 -10 -9 -9 -9 -9 -9 -9 -9 -8 -9 -9 -9 -9 -9 -9 -9 -9 -9 -9 -9 -9 -9 -9 -9 -8 -8 -8 -8 -8
-10 -10 -10 -10 -10 -10 -10 -9 -9 -9 -9 -9 -8 -9 -9 -9 -9 -9 -10 -9 -8 -9 -9 -9 -9 -9 -8 -8 -9 -9 -9 -9 -9 -9 -9 -9 -9 -9 -8 -8 -8 -8 -8
-10 -10 -10 -10 -10 -10 -10 -10 -10 -9 -9 -9 -9 -9 -9 -9 -8 -8 -9 -10 -10 -9 -9 -10 -10 -10 -9 -9 -9 -9 -10 -9 -9 -9 -9 -9 -9 -8 -7 -8 -8 -8 -8
-10 -10 -10 -10 -10 -10 -10 -10 -10 -10 -9 -9 -9 -9 -9 -9 -9 -10 -11 -11 -11 -11 -11 -11 -11 -11 -11 -11 -10 -9 -8 -8 -8 -8 -8 -8 -8 -8 -8 -8 -8 -8 -8
-10 -10 -10 -10 -10 -10 -10 -10 -10 -10 -10 -10 -10 -10 -10 -10 -10 -10 -10 -10 -11 -12 -12 -12 -12 -11 -10 -9 -9 -9 -8 -8 -8 -8 -9 -9 -8 -8 -8 -8 -8 -8 -9
-11 -11 -11 -11 -11 -11 -11 -11 -11 -11 -11 -10 -10 -10 -10 -10 -10 -10 -10 -10 -10 -10 -10 -11 -11 -12 -10 -9 -9 -9 -8 -8 -8 -8 -8 -9 -9 -8 -8 -8 -8 -9 -9
-11 -11 -11 -11 -11 -11 -11 -11 -11 -11 -11 -11 -11 -11 -11 -11 -10 -10 -10 -10 -10 -10 -10 -10 -10 -10 -9 -9 -9 -9 -9 -8 -9 -9 -8 -8 -8 -8 -8 -8 -9 -8 -9
-12 -12 -11 -11 -11 -11 -11 -11 -11 -11 -11 -11 -11 -11 -11 -11 -11 -11 -11 -11 -11 -11 -10 -10 -10 -10 -9 -9 -9 -9 -9 -9 -9 -8 -8 -8 -9 -9 -9 -9 -9 -10 -10
-12 -12 -12 -12 -11 -11 -11 -11 -11 -12 -12 -12 -12 -12 -12 -12 -12 -12 -12 -12 -11 -11 -11 -11 -11 -11 -10 -10 -10 -10 -9 -9 -9 -9 -9 -9 -9 -9 -9 -9 -10 -9 -11
-12 -12 -12 -12 -12 -12 -12 -12 -12 -12 -12 -12 -13 -13 -13 -13 -14 -14 -13 -13 -13 -13 -12 -12 -12 -13 -12 -12 -11 -11 -11 -10 -10 -10 -10 -10 -10 -10 -10 -9 -9 -10 -10
-13 -12 -12 -12 -12 -12 -13 -13 -12 -13 -13 -13 -13 -14 -14 -15 -15 -15 -15 -15 -14 -14 -14 -14 -13 -13 -13 -13 -12 -12 -12 -11 -11 -11 -11 -11 -10 -11 -10 -10 -11 -10 -10
-13 -13 -13 -13 -13 -13 -13 -13 -14 -14 -14 -14 -14 -15 -16 -16 -16 -16 -16 -16 -15 -15 -15 -14 -14 -14 -14 -13 -13 -13 -13 -12 -12 -12 -12 -11 -11 -12 -10 -11 -11 -11 -11
-13 -13 -13 -14 -14 -14 -14 -14 -15 -15 -15 -15 -16 -16 -16 -16 -16 -16 -16 -16 -16 -16 -16 -15 -15 -15 -15 -14 -14 -14 -13 -13 -13 -13 -13 -13 -12 -10 -11 -12 -11 -11 -11
-13 -13 -14 -14 -15 -15 -15 -15 -15 -15 -16 -16 -16 -16 -16 -16 -16 -16 -16 -16 -16 -16 -16 -16 -16 -16 -15 -15 -15 -15 -15 -15 -14 -13 -14 -13 -13 -12 -11 -12 -12 -12 -12

GFSGL_500_temp_105.txt.gz
Temp
-8 -9 -8 -6 -7 -9 -8 -9 -9 -9 -9 -9 -9 -9 -8 -8 -8 -8 -7 -7 -8 -8 -8 -8 -8 -8 -8 -8 -8 -8 -8 -8 -9 -8 -7 -6 -6 -6 -6 -7 -7 -6 -7
-8 -8 -8 -5 -8 -8 -8 -8 -9 -9 -9 -9 -9 -8 -8 -9 -8 -8 -8 -8 -8 -8 -8 -8 -8 -8 -8 -8 -8 -8 -8 -8 -8 -9 -8 -7 -7 -6 -6 -6 -7 -7 -7
-7 -7 -7 -7 -5 -5 -7 -7 -7 -8 -9 -8 -7 -7 -8 -8 -8 -9 -8 -7 -8 -8 -8 -8 -9 -8 -8 -8 -8 -8 -8 -8 -8 -8 -8 -8 -8 -7 -7 -7 -7 -7 -7
-8 -8 -7 -8 -8 -8 -8 -8 -7 -7 -8 -8 -7 -7 -7 -7 -8 -8 -9 -9 -8 -8 -9 -8 -9 -9 -9 -9 -8 -8 -8 -8 -8 -7 -8 -8 -8 -8 -8 -8 -8 -8 -7
-8 -8 -9 -10 -10 -8 -8 -8 -7 -7 -8 -7 -8 -7 -6 -7 -7 -8 -8 -9 -8 -8 -8 -9 -9 -9 -9 -9 -9 -8 -8 -8 -8 -8 -8 -8 -7 -7 -7 -7 -7 -7 -7
-9 -9 -9 -10 -9 -9 -9 -7 -8 -7 -8 -8 -7 -6 -5 -7 -7 -8 -8 -8 -8 -9 -8 -8 -9 -9 -9 -9 -9 -9 -8 -8 -8 -8 -8 -8 -8 -7 -7 -7 -7 -7 -7
-10 -10 -10 -9 -9 -8 -7 -7 -7 -7 -7 -8 -8 -7 -6 -7 -7 -7 -7 -7 -7 -9 -8 -8 -8 -9 -9 -9 -9 -9 -9 -8 -8 -8 -8 -8 -8 -8 -8 -8 -8 -8 -8
-11 -10 -10 -9 -9 -9 -8 -8 -9 -9 -9 -8 -8 -7 -7 -7 -8 -7 -7 -7 -7 -8 -8 -8 -8 -8 -9 -9 -9 -9 -9 -8 -8 -8 -8 -8 -8 -8 -8 -8 -9 -9 -9
-11 -10 -10 -10 -9 -9 -8 -8 -9 -9 -9 -9 -9 -8 -8 -8 -8 -8 -8 -7 -7 -7 -8 -8 -9 -8 -8 -9 -9 -9 -9 -9 -8 -8 -8 -8 -9 -8 -8 -9 -9 -9 -9
-11 -10 -10 -10 -10 -9 -9 -9 -9 -9 -9 -9 -9 -9 -8 -8 -8 -8 -8 -8 -8 -7 -8 -8 -8 -8 -9 -8 -8 -9 -9 -9 -9 -9 -9 -8 -8 -9 -9 -9 -8 -8 -8
-10 -11 -10 -10 -10 -9 -9 -9 -9 -9 -8 -9 -9 -9 -8 -9 -8 -8 -8 -8 -8 -8 -9 -9 -8 -8 -8 -8 -8 -8 -9 -9 -9 -9 -9 -9 -9 -8 -9 -9 -9 -9 -9
-10 -10 -9 -9 -9 -9 -9 -9 -8 -8 -8 -8 -9 -9 -9 -9 -9 -8 -8 -8 -9 -9 -9 -9 -8 -8 -9 -9 -8 -9 -9 -9 -9 -8 -9 -9 -9 -9 -9 -8 -8 -8 -9
-10 -10 -10 -9 -9 -9 -10 -10 -9 -8 -9 -9 -9 -8 -8 -9 -10 -9 -9 -9 -9 -9 -9 -9 -9 -9 -9 -9 -9 -9 -9 -9 -9 -9 -9 -9 -10 -9 -9 -8 -8 -8 -8
-10 -10 -10 -10 -10 -10 -10 -10 -9 -9 -10 -10 -10 -9 -9 -8 -10 -10 -10 -10 -9 -9 -9 -8 -8 -9 -9 -9 -9 -9 -9 -9 -9 -9 -9 -9 -10 -9 -9 -9 -8 -8 -7
-10 -10 -10 -9 -10 -10 -10 -10 -9 -9 -9 -9 -10 -9 -9 -9 -9 -9 -9 -9 -9 -9 -9 -9 -8 -9 -9 -8 -9 -9 -9 -8 -8 -9 -9 -9 -9 -10 -9 -9 -8 -8 -7
-10 -10 -10 -10 -10 -10 -10 -10 -10 -10 -10 -10 -10 -10 -10 -10 -10 -10 -10 -9 -9 -10 -10 -10 -10 -10 -10 -10 -10 -10 -9 -9 -9 -8 -9 -9 -10 -10 -9 -9 -8 -8 -8
-10 -10 -10 -10 -10 -10 -10 -10 -10 -10 -10 -10 -10 -10 -10 -10 -10 -10 -9 -9 -9 -10 -10 -10 -10 -11 -11 -10 -11 -11 -10 -11 -11 -10 -10 -9 -9 -9 -9 -9 -9 -9 -9
-10 -10 -10 -10 -10 -10 -10 -10 -10 -10 -10 -10 -10 -10 -10 -10 -10 -10 -10 -10 -10 -10 -10 -10 -11 -11 -11 -11 -11 -11 -11 -10 -10 -10 -9 -9 -9 -9 -9 -9 -9 -9 -9
-11 -11 -11 -11 -11 -11 -11 -11 -11 -11 -11 -11 -11 -11 -11 -10 -10 -10 -10 -11 -11 -11 -11 -10 -11 -11 -11 -11 -11 -11 -11 -11 -10 -10 -10 -9 -9 -9 -9 -10 -9 -9 -9
-12 -12 -11 -11 -11 -11 -11 -11 -11 -11 -11 -11 -11 -11 -11 -11 -11 -11 -11 -11 -11 -11 -11 -11 -11 -11 -11 -11 -11 -11 -11 -10 -10 -10 -10 -9 -9 -9 -9 -9 -9 -9 -9
-12 -12 -12 -12 -12 -12 -12 -12 -12 -12 -12 -12 -12 -12 -12 -12 -12 -12 -12 -12 -12 -12 -12 -12 -11 -11 -11 -11 -11 -11 -11 -10 -10 -10 -9 -9 -9 -9 -9 -8 -9 -9 -9
-12 -12 -12 -12 -12 -12 -12 -12 -12 -12 -12 -12 -12 -12 -12 -12 -12 -13 -13 -13 -13 -13 -13 -13 -13 -13 -12 -12 -12 -12 -12 -12 -12 -11 -10 -10 -9 -9 -9 -9 -9 -9 -9
-13 -13 -13 -13 -12 -12 -12 -12 -12 -12 -12 -12 -12 -12 -13 -13 -13 -13 -14 -14 -15 -16 -16 -16 -15 -15 -14 -14 -13 -13 -13 -13 -13 -12 -12 -11 -11 -10 -10 -10 -10 -9 -9
-13 -13 -13 -13 -13 -13 -12 -13 -13 -13 -13 -13 -13 -13 -14 -14 -14 -14 -15 -15 -16 -16 -16 -16 -16 -16 -15 -15 -14 -14 -14 -13 -13 -13 -13 -12 -12 -11 -11 -11 -10 -10 -10
-14 -14 -14 -13 -13 -14 -14 -14 -14 -14 -14 -14 -14 -14 -14 -15 -14 -15 -15 -16 -16 -16 -16 -16 -16 -16 -16 -16 -15 -15 -15 -14 -14 -14 -13 -13 -13 -12 -12 -12 -12 -11 -11
-14 -14 -14 -14 -14 -14 -14 -14 -15 -15 -15 -16 -16 -15 -15 -15 -15 -15 -16 -16 -16 -16 -17 -17 -17 -17 -16 -16 -16 -16 -16 -15 -15 -14 -14 -13 -13 -13 -13 -13 -13 -12 -12

GFSGL_500_temp_108.txt.gz
Temp
-9 -9 -9 -9 -10 -9 -9 -10 -9 -10 -10 -10 -9 -9 -8 -8 -7 -8 -8 -8 -8 -7 -7 -8 -8 -8 -8 -8 -8 -8 -8 -8 -8 -8 -8 -7 -7 -7 -6 -6 -6 -6 -6
-9 -8 -8 -8 -8 -7 -8 -9 -9 -9 -9 -9 -9 -8 -9 -8 -7 -7 -8 -8 -8 -8 -7 -8 -8 -8 -7 -8 -8 -8 -8 -8 -8 -8 -8 -8 -7 -7 -7 -6 -6 -6 -6
-9 -8 -7 -7 -7 -6 -8 -8 -9 -9 -9 -10 -9 -8 -9 -8 -7 -7 -7 -7 -8 -8 -8 -8 -8 -8 -8 -8 -8 -8 -7 -8 -8 -8 -8 -8 -8 -8 -7 -8 -7 -7 -6
-9 -8 -8 -6 -6 -6 -6 -6 -8 -9 -8 -9 -9 -8 -8 -8 -8 -7 -7 -8 -8 -9 -9 -9 -8 -8 -8 -8 -8 -8 -7 -8 -8 -8 -8 -8 -8 -8 -8 -7 -7 -7 -7
-8 -8 -8 -8 -8 -8 -8 -6 -8 -8 -8 -7 -7 -7 -8 -8 -9 -8 -8 -7 -8 -9 -9 -9 -9 -8 -8 -8 -8 -8 -8 -8 -7 -8 -7 -8 -8 -7 -8 -7 -7 -7 -7
-9 -9 -8 -8 -9 -9 -9 -9 -8 -8 -6 -6 -6 -7 -8 -9 -7 -6 -7 -8 -7 -7 -8 -8 -9 -8 -8 -8 -8 -8 -8 -8 -8 -8 -7 -7 -8 -8 -8 -8 -8 -7 -7
-8 -9 -9 -9 -10 -10 -10 -10 -9 -8 -8 -7 -7 -7 -8 -8 -7 -6 -7 -7 -7 -7 -8 -8 -8 -8 -8 -8 -9 -9 -9 -9 -8 -8 -8 -8 -8 -8 -8 -8 -8 -8 -8
-10 -10 -10 -10 -10 -10 -10 -9 -9 -9 -8 -8 -8 -9 -7 -7 -6 -6 -7 -7 -7 -7 -7 -7 -7 -8 -8 -8 -8 -9 -9 -9 -9 -8 -9 -9 -8 -8 -8 -8 -8 -8 -8
-11 -11 -11 -10 -10 -10 -9 -9 -9 -9 -9 -9 -9 -9 -8 -7 -6 -6 -7 -7 -8 -8 -7 -7 -7 -7 -8 -8 -8 -9 -9 -9 -9 -9 -9 -9 -9 -9 -8 -8 -8 -8 -8
-11 -11 -11 -11 -10 -10 -10 -10 -9 -9 -9 -9 -9 -9 -9 -8 -8 -8 -7 -8 -8 -8 -8 -8 -8 -8 -8 -8 -8 -9 -9 -10 -9 -9 -9 -9 -9 -9 -9 -8 -8 -8 -8
-12 -11 -11 -10 -10 -9 -9 -9 -9 -9 -9 -8 -8 -8 -8 -8 -8 -8 -8 -8 -8 -8 -8 -8 -8 -8 -8 -8 -8 -8 -9 -9 -9 -8 -9 -9 -9 -9 -9 -9 -9 -8 -8
-12 -11 -10 -10 -10 -9 -9 -9 -9 -8 -8 -8 -8 -8 -8 -8 -7 -9 -9 -8 -8 -8 -8 -8 -8 -9 -8 -9 -9 -9 -9 -8 -9 -9 -8 -9 -9 -9 -9 -9 -9 -9 -9
-11 -11 -11 -11 -10 -10 -9 -9 -9 -9 -9 -8 -8 -8 -8 -8 -8 -8 -7 -8 -9 -9 -9 -9 -9 -9 -9 -9 -9 -9 -9 -9 -9 -9 -9 -9 -9 -9 -9 -8 -9 -9 -9
-12 -11 -11 -12 -11 -11 -10 -10 -9 -9 -9 -9 -9 -9 -8 -9 -9 -9 -8 -8 -8 -9 -10 -11 -10 -10 -9 -9 -9 -9 -9 -9 -9 -9 -9 -9 -9 -9 -9 -9 -9 -9 -9
-12 -11 -11 -11 -11 -10 -11 -10 -10 -10 -9 -9 -9 -9 -9 -9 -10 -10 -9 -10 -10 -10 -10 -10 -10 -10 -11 -9 -9 -9 -9 -9 -9 -9 -9 -9 -9 -9 -9 -9 -9 -9 -9
-11 -11 -11 -11 -11 -11 -10 -10 -10 -9 -9 -9 -9 -9 -9 -9 -9 -9 -10 -10 -10 -10 -10 -10 -10 -10 -9 -9 -9 -9 -10 -10 -10 -10 -9 -9 -9 -9 -9 -9 -9 -9 -9
-11 -11 -11 -11 -10 -10 -10 -10 -10 -10 -10 -10 -9 -9 -9 -9 -9 -9 -9 -9 -9 -9 -10 -10 -10 -10 -10 -10 -10 -10 -11 -10 -10 -11 -11 -11 -11 -10 -9 -9 -9 -9 -10
-11 -11 -11 -11 -11 -11 -11 -11 -10 -10 -10 -10 -10 -10 -10 -10 -10 -10 -10 -10 -10 -10 -10 -11 -11 -10 -10 -10 -10 -10 -10 -10 -11 -11 -11 -12 -11 -11 -11 -11 -11 -11 -10
-11 -11 -11 -11 -11 -11 -11 -11 -11 -11 -11 -11 -11 -11 -11 -11 -11 -10 -10 -10 -10 -10 -10 -10 -10 -10 -10 -11 -10 -10 -10 -10 -10 -10 -11 -11 -11 -11 -11 -11 -11 -10 -10
-12 -12 -12 -12 -12 -12 -12 -12 -12 -11 -11 -11 -11 -11 -11 -11 -11 -11 -11 -11 -11 -11 -11 -11 -11 -10 -10 -10 -10 -10 -10 -10 -10 -10 -10 -10 -11 -11 -11 -11 -10 -10 -10
-12 -12 -12 -12 -12 -12 -12 -12 -12 -12 -12 -12 -12 -12 -11 -11 -11 -12 -12 -12 -12 -12 -12 -12 -12 -12 -12 -12 -11 -11 -11 -11 -11 -11 -11 -11 -11 -11 -11 -10 -10 -10 -10
-13 -13 -13 -13 -13 -13 -13 -13 -13 -13 -13 -12 -13 -12 -12 -12 -12 -12 -12 -12 -12 -12 -13 -13 -13 -14 -14 -14 -14 -13 -12 -13 -12 -12 -12 -12 -11 -11 -11 -11 -10 -10 -10
-14 -14 -13 -13 -13 -13 -13 -13 -13 -13 -13 -13 -13 -13 -13 -13 -13 -13 -13 -13 -13 -12 -13 -13 -14 -14 -14 -14 -15 -16 -15 -15 -15 -14 -14 -13 -13 -13 -12 -12 -11 -10 -10
-13 -13 -14 -14 -14 -13 -13 -13 -13 -13 -13 -13 -13 -13 -13 -13 -13 -13 -13 -13 -13 -13 -13 -14 -14 -15 -15 -15 -16 -16 -16 -16 -16 -15 -15 -15 -14 -14 -13 -13 -12 -12 -11
-14 -14 -14 -14 -14 -14 -14 -14 -14 -14 -14 -14 -14 -14 -14 -14 -14 -14 -14 -14 -14 -15 -15 -15 -15 -15 -15 -15 -16 -16 -16 -16 -16 -16 -16 -16 -15 -15 -14 -14 -13 -13 -13
-14 -14 -14 -14 -14 -14 -14 -14 -15 -15 -14 -14 -15 -15 -15 -15 -15 -15 -15 -15 -15 -15 -16 -15 -15 -16 -16 -16 -16 -16 -17 -17 -16 -16 -16 -16 -16 -15 -15 -14 -14 -14 -13

GFSGL_500_temp_111.txt.gz
Temp
-10 -11 -9 -9 -9 -9 -10 -9 -9 -10 -10 -9 -9 -9 -9 -9 -9 -8 -7 -8 -7 -7 -8 -8 -8 -8 -8 -8 -7 -8 -8 -8 -9 -8 -8 -8 -8 -8 -8 -7 -7 -6 -6
-10 -10 -9 -10 -9 -9 -10 -9 -9 -9 -10 -9 -10 -8 -8 -8 -8 -8 -8 -8 -8 -8 -8 -8 -8 -8 -8 -8 -8 -7 -8 -8 -8 -8 -8 -8 -9 -9 -9 -7 -7 -7 -6
-10 -10 -10 -9 -10 -9 -8 -8 -8 -8 -7 -8 -9 -9 -9 -8 -8 -8 -8 -8 -8 -8 -8 -8 -8 -8 -8 -8 -8 -7 -7 -8 -8 -8 -8 -8 -8 -8 -9 -8 -8 -8 -7
-10 -9 -9 -9 -8 -8 -8 -8 -7 -7 -7 -6 -8 -8 -8 -7 -7 -8 -8 -7 -8 -8 -8 -8 -8 -8 -9 -8 -8 -8 -8 -8 -8 -8 -8 -8 -8 -7 -8 -9 -8 -8 -8
-9 -9 -8 -8 -8 -8 -8 -8 -7 -7 -7 -7 -5 -6 -7 -7 -7 -7 -7 -8 -7 -9 -9 -8 -9 -9 -10 -9 -8 -8 -8 -8 -8 -8 -8 -8 -8 -8 -8 -8 -8 -9 -9
-9 -9 -9 -8 -8 -8 -8 -8 -8 -7 -7 -7 -6 -8 -8 -8 -6 -7 -7 -8 -8 -8 -9 -7 -8 -8 -10 -9 -9 -8 -8 -8 -8 -8 -8 -9 -8 -8 -8 -8 -8 -8 -8
-11 -11 -10 -9 -9 -9 -8 -9 -10 -8 -7 -6 -6 -7 -6 -5 -6 -8 -8 -8 -7 -8 -8 -7 -8 -8 -8 -8 -8 -9 -8 -9 -9 -9 -9 -8 -8 -8 -8 -8 -9 -8 -8
-11 -10 -9 -8 -10 -10 -10 -10 -10 -9 -10 -10 -8 -8 -8 -8 -7 -7 -8 -8 -7 -7 -7 -8 -7 -7 -7 -7 -7 -8 -8 -9 -9 -9 -9 -8 -8 -8 -9 -8 -8 -9 -8
-10 -10 -10 -12 -11 -11 -10 -10 -10 -9 -9 -8 -8 -8 -8 -7 -7 -7 -8 -8 -8 -7 -7 -7 -7 -7 -7 -7 -7 -7 -8 -9 -9 -9 -8 -8 -9 -8 -8 -9 -8 -9 -9
-12 -12 -12 -12 -11 -11 -10 -10 -10 -9 -9 -9 -9 -9 -8 -8 -8 -9 -9 -8 -8 -8 -8 -8 -8 -7 -7 -7 -7 -7 -8 -9 -8 -8 -8 -8 -9 -9 -9 -8 -9 -8 -9
-12 -11 -11 -11 -11 -11 -11 -10 -10 -9 -9 -9 -9 -8 -8 -8 -9 -9 -9 -9 -8 -8 -8 -8 -8 -8 -8 -8 -8 -8 -8 -8 -8 -8 -8 -8 -8 -9 -9 -9 -8 -8 -8
-12 -12 -11 -11 -11 -11 -11 -10 -10 -10 -10 -9 -9 -9 -9 -9 -9 -9 -8 -10 -9 -9 -8 -8 -8 -8 -8 -8 -8 -8 -8 -8 -8 -9 -8 -8 -8 -9 -8 -8 -8 -8 -8
-12 -12 -12 -12 -12 -11 -11 -11 -11 -11 -10 -10 -9 -10 -9 -9 -10 -9 -9 -10 -9 -8 -9 -11 -10 -9 -8 -9 -8 -9 -8 -8 -8 -9 -9 -9 -9 -9 -9 -9 -9 -9 -8
-12 -12 -12 -12 -12 -11 -11 -11 -11 -11 -10 -10 -10 -10 -9 -10 -10 -10 -10 -10 -10 -10 -10 -9 -9 -9 -10 -10 -10 -9 -9 -9 -9 -9 -9 -9 -9 -9 -9 -9 -9 -9 -9
-11 -11 -11 -12 -11 -11 -11 -11 -10 -10 -10 -10 -10 -10 -10 -10 -10 -10 -10 -10 -10 -10 -10 -10 -10 -11 -11 -10 -10 -10 -10 -10 -10 -11 -10 -10 -10 -10 -9 -9 -9 -9 -9
-11 -11 -11 -11 -11 -11 -10 -10 -10 -10 -10 -10 -10 -10 -10 -10 -10 -9 -10 -10 -10 -10 -10 -10 -10 -10 -10 -10 -10 -10 -10 -10 -10 -10 -10 -10 -10 -10 -10 -10 -10 -9 -8
-12 -11 -11 -11 -11 -11 -10 -10 -10 -10 -10 -10 -10 -10 -10 -10 -10 -10 -10 -10 -10 -10 -10 -10 -10 -10 -10 -10 -10 -10 -10 -10 -10 -10 -10 -10 -10 -10 -10 -10 -10 -11 -10
-12 -11 -11 -11 -11 -11 -11 -11 -11 -11 -11 -11 -11 -11 -10 -10 -10 -10 -10 -10 -10 -10 -10 -10 -10 -10 -10 -11 -10 -10 -10 -10 -10 -10 -10 -10 -10 -10 -10 -11 -11 -11 -11
-12 -12 -11 -11 -11 -12 -11 -11 -11 -11 -11 -11 -11 -11 -11 -11 -11 -11 -11 -11 -11 -11 -11 -11 -11 -11 -11 -11 -11 -11 -11 -10 -10 -10 -10 -10 -10 -10 -10 -10 -10 -10 -11
-12 -12 -12 -12 -12 -12 -12 -12 -12 -12 -12 -12 -12 -11 -11 -11 -11 -11 -11 -11 -11 -11 -11 -11 -11 -11 -11 -11 -11 -11 -11 -10 -10 -10 -10 -10 -10 -10 -10 -10 -10 -10 -10
-12 -12 -12 -12 -12 -12 -12 -12 -12 -12 -12 -12 -12 -12 -12 -12 -12 -12 -12 -12 -12 -12 -12 -12 -12 -12 -12 -12 -12 -11 -11 -11 -11 -11 -11 -11 -11 -10 -10 -11 -11 -11 -10
-13 -13 -13 -13 -13 -13 -13 -13 -13 -13 -13 -13 -13 -12 -12 -12 -12 -12 -12 -12 -12 -12 -12 -12 -12 -12 -12 -12 -12 -12 -12 -12 -12 -12 -12 -12 -12 -12 -12 -12 -12 -12 -11
-13 -13 -13 -13 -13 -13 -13 -13 -13 -14 -13 -13 -13 -13 -13 -13 -13 -13 -13 -13 -13 -13 -13 -13 -13 -13 -13 -13 -13 -13 -13 -14 -14 -14 -14 -14 -14 -14 -14 -14 -14 -14 -13
-14 -14 -14 -14 -14 -14 -14 -14 -14 -14 -14 -14 -14 -14 -14 -13 -13 -13 -13 -13 -13 -14 -14 -14 -14 -14 -14 -14 -14 -14 -14 -14 -14 -14 -14 -15 -15 -15 -15 -16 -15 -15 -14
-14 -14 -14 -14 -14 -14 -14 -14 -14 -14 -14 -14 -14 -14 -14 -14 -14 -14 -14 -14 -14 -14 -14 -14 -14 -14 -14 -14 -14 -14 -14 -15 -15 -15 -15 -15 -15 -15 -15 -15 -15 -15 -15
-14 -14 -14 -14 -14 -14 -14 -15 -15 -15 -15 -15 -15 -15 -15 -15 -15 -15 -15 -15 -15 -15 -15 -15 -15 -15 -16 -16 -15 -15 -15 -15 -15 -15 -15 -15 -15 -15 -16 -16 -15 -16 -16

GFSGL_500_temp_114.txt.gz
Temp
-11 -11 -11 -11 -10 -10 -10 -9 -9 -9 -9 -9 -8 -8 -9 -8 -8 -8 -9 -8 -8 -8 -8 -8 -8 -7 -7 -7 -7 -8 -8 -8 -8 -8 -8 -8 -8 -8 -8 -8 -7 -7 -7
-11 -11 -11 -11 -10 -10 -9 -9 -10 -9 -9 -9 -9 -8 -8 -8 -8 -8 -7 -8 -8 -8 -8 -8 -9 -8 -7 -7 -7 -8 -8 -8 -8 -8 -8 -8 -8 -8 -8 -8 -8 -8 -7
-11 -11 -11 -11 -10 -10 -9 -10 -9 -9 -9 -9 -9 -9 -8 -7 -7 -7 -7 -7 -7 -7 -7 -7 -8 -8 -8 -7 -7 -7 -8 -8 -8 -8 -8 -8 -8 -8 -8 -8 -8 -8 -8
-11 -11 -11 -11 -10 -10 -10 -9 -8 -9 -9 -9 -9 -9 -8 -8 -7 -6 -6 -7 -7 -7 -7 -7 -8 -8 -9 -8 -8 -8 -8 -8 -8 -8 -8 -8 -8 -8 -8 -8 -8 -8 -8
-10 -10 -11 -10 -10 -10 -10 -9 -9 -8 -8 -8 -8 -8 -8 -7 -7 -6 -6 -7 -7 -7 -7 -7 -8 -8 -9 -9 -9 -8 -8 -8 -8 -8 -8 -8 -8 -8 -8 -7 -8 -8 -8
-10 -10 -10 -10 -10 -10 -10 -9 -8 -7 -8 -8 -7 -7 -6 -7 -8 -8 -7 -7 -7 -8 -8 -7 -7 -7 -8 -8 -8 -8 -7 -7 -9 -9 -9 -8 -8 -8 -8 -8 -8 -8 -7
-10 -11 -10 -10 -10 -10 -9 -10 -10 -9 -9 -9 -8 -8 -7 -8 -8 -6 -7 -9 -9 -7 -8 -8 -7 -8 -8 -8 -7 -8 -7 -7 -8 -8 -9 -8 -8 -8 -8 -7 -7 -7 -7
-11 -11 -10 -10 -9 -9 -9 -8 -8 -8 -8 -8 -8 -7 -7 -7 -7 -8 -8 -9 -8 -7 -6 -7 -7 -7 -8 -8 -8 -7 -7 -7 -7 -8 -8 -8 -8 -8 -8 -8 -8 -8 -8
-11 -10 -10 -10 -10 -9 -9 -9 -9 -9 -9 -9 -8 -8 -9 -9 -7 -8 -9 -7 -7 -7 -7 -8 -8 -8 -8 -7 -7 -7 -7 -7 -7 -7 -8 -8 -7 -8 -8 -8 -8 -8 -8
-10 -10 -9 -10 -10 -11 -11 -12 -12 -10 -10 -9 -10 -10 -9 -9 -8 -8 -8 -7 -7 -8 -8 -8 -7 -6 -7 -7 -7 -7 -7 -7 -7 -7 -7 -8 -8 -9 -8 -9 -8 -8 -8
-11 -11 -11 -12 -12 -12 -12 -12 -11 -11 -10 -10 -10 -10 -9 -9 -9 -8 -7 -8 -8 -8 -8 -8 -8 -7 -7 -7 -8 -8 -8 -7 -7 -7 -8 -8 -8 -9 -8 -8 -9 -8 -8
-12 -12 -12 -11 -12 -12 -12 -12 -11 -10 -10 -10 -10 -10 -9 -9 -9 -8 -9 -9 -8 -9 -9 -8 -8 -8 -8 -8 -8 -8 -8 -8 -8 -8 -8 -8 -8 -8 -8 -8 -8 -8 -8
-12 -11 -11 -11 -11 -11 -11 -11 -11 -10 -10 -10 -10 -9 -9 -9 -8 -8 -9 -8 -8 -8 -8 -8 -9 -9 -9 -8 -9 -9 -9 -8 -9 -8 -8 -8 -8 -8 -8 -8 -9 -9 -8
-12 -12 -11 -11 -10 -11 -11 -11 -11 -10 -10 -10 -10 -10 -9 -9 -9 -9 -9 -9 -9 -9 -8 -9 -9 -9 -9 -9 -10 -10 -9 -9 -9 -9 -9 -8 -8 -9 -9 -9 -8 -8 -9
-12 -12 -12 -12 -11 -11 -11 -11 -11 -11 -11 -11 -10 -10 -10 -10 -9 -9 -9 -9 -9 -9 -9 -9 -9 -9 -10 -9 -10 -10 -10 -10 -9 -9 -10 -10 -9 -10 -10 -10 -9 -9 -9
-13 -12 -12 -12 -11 -11 -11 -11 -10 -11 -11 -11 -10 -10 -10 -10 -10 -10 -9 -9 -9 -9 -9 -9 -9 -9 -9 -9 -10 -10 -9 -10 -10 -10 -10 -10 -11 -11 -11 -11 -11 -10 -10
-13 -13 -12 -12 -11 -11 -11 -11 -11 -10 -10 -10 -10 -10 -10 -10 -10 -10 -10 -10 -10 -10 -10 -10 -10 -10 -10 -10 -10 -10 -10 -10 -9 -10 -10 -10 -10 -10 -10 -10 -10 -10 -10
-13 -12 -12 -12 -11 -11 -11 -11 -11 -11 -11 -11 -11 -10 -10 -10 -10 -10 -10 -10 -10 -10 -10 -10 -10 -10 -10 -10 -10 -10 -10 -10 -10 -10 -10 -10 -10 -10 -10 -10 -10 -10 -10
-12 -12 -12 -12 -12 -11 -11 -11 -11 -11 -11 -11 -11 -11 -11 -11 -10 -10 -10 -10 -10 -10 -10 -10 -10 -10 -11 -11 -11 -11 -11 -11 -11 -11 -11 -10 -10 -10 -10 -10 -10 -10 -10
-12 -12 -12 -12 -12 -12 -12 -12 -12 -12 -12 -11 -11 -11 -11 -11 -11 -11 -11 -11 -11 -11 -11 -11 -11 -11 -11 -11 -11 -11 -11 -11 -11 -11 -11 -11 -11 -11 -10 -10 -10 -10 -10
-12 -12 -12 -12 -12 -12 -12 -12 -12 -12 -12 -12 -12 -12 -12 -12 -12 -12 -12 -12 -12 -12 -12 -12 -11 -11 -11 -11 -12 -12 -12 -12 -12 -12 -12 -12 -12 -12 -12 -11 -11 -11 -11
-13 -13 -13 -13 -13 -13 -13 -13 -13 -13 -13 -12 -12 -12 -12 -12 -13 -13 -12 -12 -12 -12 -12 -12 -12 -12 -12 -12 -12 -12 -12 -12 -12 -12 -12 -12 -12 -12 -12 -12 -12 -12 -12
-14 -13 -13 -13 -13 -13 -13 -13 -13 -13 -13 -13 -13 -13 -13 -13 -13 -13 -13 -13 -13 -13 -13 -13 -13 -13 -13 -13 -13 -13 -13 -13 -13 -13 -13 -13 -13 -13 -13 -13 -13 -13 -13
-14 -14 -14 -14 -14 -14 -14 -14 -14 -14 -14 -14 -14 -14 -14 -14 -14 -13 -13 -13 -13 -13 -13 -13 -13 -13 -13 -13 -13 -13 -13 -13 -14 -13 -13 -14 -13 -14 -14 -14 -14 -14 -14
-14 -14 -14 -14 -14 -14 -14 -14 -14 -14 -14 -14 -14 -14 -14 -14 -14 -14 -14 -14 -14 -14 -14 -14 -14 -14 -14 -14 -14 -14 -15 -15 -15 -15 -14 -14 -14 -15 -15 -15 -15 -15 -15
-14 -15 -15 -15 -14 -14 -15 -15 -15 -15 -15 -15 -15 -15 -15 -15 -15 -15 -15 -15 -15 -15 -15 -15 -15 -15 -15 -15 -15 -15 -15 -15 -15 -15 -15 -16 -16 -16 -16 -15 -15 -15 -15

GFSGL_500_temp_120.txt.gz
Temp
-8 -9 -9 -9 -10 -10 -9 -9 -9 -9 -9 -9 -8 -8 -8 -8 -8 -7 -7 -8 -8 -8 -7 -7 -7 -7 -7 -7 -7 -7 -7 -7 -7 -7 -7 -7 -7 -8 -7 -7 -8 -8 -7
-9 -10 -10 -11 -11 -10 -10 -9 -9 -9 -9 -9 -9 -5 -6 -8 -7 -8 -7 -7 -7 -8 -8 -7 -7 -7 -7 -7 -7 -7 -7 -7 -7 -7 -6 -6 -7 -7 -8 -7 -7 -7 -7
-10 -10 -11 -11 -11 -11 -10 -10 -9 -9 -9 -9 -9 -8 -8 -7 -7 -8 -7 -7 -8 -7 -7 -8 -8 -7 -8 -8 -7 -7 -7 -7 -7 -7 -7 -7 -6 -7 -7 -7 -7 -7 -7
-10 -10 -11 -11 -11 -11 -10 -10 -9 -9 -10 -10 -10 -9 -7 -8 -8 -8 -8 -8 -8 -8 -7 -7 -8 -8 -7 -8 -8 -7 -8 -8 -8 -7 -7 -7 -7 -6 -7 -7 -7 -7 -7
-10 -10 -10 -11 -11 -10 -10 -10 -10 -10 -11 -11 -11 -11 -11 -10 -10 -9 -8 -9 -7 -8 -8 -7 -8 -8 -8 -8 -8 -8 -8 -8 -8 -8 -8 -7 -7 -7 -8 -7 -7 -7 -8
-9 -9 -10 -11 -11 -10 -10 -10 -10 -10 -11 -11 -11 -11 -10 -10 -9 -8 -9 -8 -8 -5 -8 -8 -7 -8 -8 -8 -8 -8 -8 -8 -8 -8 -7 -7 -7 -7 -8 -7 -7 -7 -7
-10 -10 -10 -10 -11 -10 -10 -10 -11 -10 -10 -11 -11 -11 -10 -10 -9 -8 -7 -8 -8 -7 -7 -8 -7 -7 -8 -8 -8 -7 -7 -7 -7 -7 -7 -7 -6 -7 -7 -7 -7 -6 -7
-10 -10 -10 -11 -11 -11 -11 -11 -11 -11 -11 -11 -10 -10 -10 -10 -9 -8 -7 -8 -7 -8 -8 -8 -7 -7 -8 -7 -7 -7 -7 -7 -7 -7 -6 -6 -6 -7 -7 -6 -6 -6 -7
-10 -10 -10 -11 -11 -11 -10 -10 -10 -11 -10 -11 -11 -10 -10 -9 -9 -8 -8 -9 -8 -8 -8 -8 -7 -7 -7 -7 -7 -7 -7 -6 -7 -7 -7 -7 -6 -6 -6 -5 -6 -6 -7
-9 -10 -10 -10 -10 -9 -10 -10 -10 -10 -10 -10 -11 -11 -10 -10 -9 -9 -8 -7 -7 -7 -7 -7 -7 -7 -7 -7 -7 -7 -7 -7 -7 -7 -7 -8 -6 -6 -5 -5 -6 -6 -6
-10 -10 -10 -10 -10 -9 -9 -10 -10 -11 -10 -10 -10 -10 -10 -10 -9 -8 -8 -7 -7 -7 -7 -6 -6 -6 -6 -7 -7 -7 -7 -7 -7 -7 -7 -7 -6 -5 -6 -6 -6 -6 -6
-11 -11 -11 -10 -10 -9 -9 -9 -9 -9 -9 -9 -10 -10 -10 -10 -10 -9 -9 -8 -8 -8 -8 -8 -8 -8 -7 -7 -8 -7 -7 -8 -7 -7 -8 -7 -7 -6 -7 -7 -7 -6 -7
-11 -10 -11 -10 -10 -10 -10 -10 -10 -9 -10 -10 -11 -11 -12 -12 -12 -11 -11 -9 -8 -9 -9 -8 -9 -8 -8 -8 -8 -8 -8 -8 -8 -8 -9 -8 -8 -8 -8 -7 -8 -8 -8
-12 -12 -12 -12 -11 -11 -11 -10 -10 -11 -12 -12 -11 -11 -12 -11 -11 -11 -10 -10 -10 -9 -9 -9 -9 -9 -9 -9 -9 -9 -9 -9 -9 -9 -8 -8 -8 -8 -8 -8 -8 -8 -8
-12 -13 -12 -12 -12 -11 -12 -11 -11 -12 -13 -12 -11 -12 -11 -11 -10 -10 -10 -9 -9 -9 -9 -9 -9 -9 -9 -8 -9 -9 -10 -9 -9 -9 -9 -9 -9 -9 -9 -8 -8 -7 -7
-12 -13 -13 -13 -12 -12 -12 -12 -12 -11 -11 -11 -10 -10 -11 -11 -11 -11 -10 -10 -10 -10 -10 -10 -9 -9 -9 -9 -9 -9 -9 -9 -9 -9 -9 -10 -9 -9 -9 -9 -9 -9 -9
-12 -13 -13 -13 -12 -12 -12 -12 -11 -11 -11 -11 -11 -10 -10 -10 -10 -10 -10 -10 -10 -10 -10 -10 -10 -10 -10 -10 -9 -9 -9 -9 -9 -9 -9 -9 -9 -10 -10 -10 -9 -9 -9
-12 -12 -13 -13 -12 -12 -12 -12 -12 -11 -11 -11 -11 -11 -11 -11 -11 -11 -10 -10 -10 -10 -10 -10 -10 -10 -10 -10 -10 -10 -10 -10 -10 -10 -10 -10 -10 -10 -10 -10 -10 -10 -10
-13 -13 -13 -13 -12 -12 -12 -12 -12 -12 -12 -12 -12 -12 -12 -12 -11 -11 -11 -11 -11 -11 -11 -11 -11 -11 -11 -11 -11 -10 -10 -11 -11 -11 -11 -11 -11 -11 -11 -11 -11 -11 -11
-13 -13 -12 -12 -12 -12 -12 -12 -12 -12 -12 -12 -12 -12 -12 -12 -12 -11 -11 -11 -11 -11 -11 -11 -11 -11 -11 -11 -11 -11 -11 -11 -11 -11 -11 -11 -11 -11 -11 -11 -11 -11 -11
-13 -13 -13 -13 -12 -12 -13 -12 -12 -12 -12 -12 -12 -12 -12 -12 -12 -12 -12 -12 -12 -11 -11 -12 -11 -11 -11 -11 -11 -11 -11 -11 -12 -12 -12 -12 -12 -12 -12 -12 -12 -12 -12
-14 -14 -14 -13 -13 -13 -13 -13 -13 -13 -13 -13 -12 -13 -13 -13 -13 -13 -12 -12 -12 -12 -12 -12 -13 -13 -12 -12 -12 -12 -12 -12 -12 -12 -12 -12 -12 -12 -12 -12 -12 -12 -12
-14 -14 -14 -14 -14 -14 -13 -13 -13 -13 -13 -13 -13 -13 -13 -13 -13 -13 -12 -12 -12 -12 -12 -12 -12 -12 -12 -12 -12 -12 -12 -12 -13 -13 -12 -13 -13 -13 -13 -13 -13 -13 -13
-14 -14 -14 -14 -14 -14 -14 -14 -14 -14 -13 -13 -13 -13 -13 -13 -13 -13 -13 -13 -13 -13 -13 -13 -13 -12 -12 -13 -12 -13 -13 -13 -13 -14 -13 -13 -14 -13 -13 -13 -13 -13 -13
-14 -14 -14 -14 -14 -14 -14 -14 -14 -14 -14 -14 -14 -14 -14 -13 -13 -13 -13 -13 -13 -14 -14 -14 -14 -14 -13 -13 -14 -14 -14 -14 -14 -14 -14 -14 -14 -14 -14 -14 -14 -14 -14
-14 -15 -15 -15 -15 -15 -15 -14 -14 -14 -14 -14 -14 -14 -14 -14 -14 -14 -14 -14 -15 -15 -14 -15 -15 -15 -15 -14 -14 -15 -15 -15 -14 -14 -14 -15 -15 -15 -15 -15 -15 -15 -15

GFSGL_500_temp_123.txt.gz
Temp
-7 -7 -7 -9 -9 -8 -9 -10 -9 -9 -9 -9 -9 -8 -8 -8 -7 -6 -6 -7 -7 -7 -7 -7 -6 -7 -8 -7 -7 -8 -7 -7 -8 -7 -7 -7 -7 -7 -7 -7 -7 -7 -7
-8 -8 -8 -9 -10 -10 -10 -10 -11 -10 -9 -9 -9 -9 -8 -8 -4 -5 -6 -7 -6 -8 -8 -7 -6 -6 -7 -8 -8 -8 -8 -8 -8 -8 -7 -7 -7 -7 -7 -7 -7 -7 -7
-9 -10 -10 -10 -10 -10 -11 -10 -11 -11 -10 -9 -9 -9 -7 -7 -7 -6 -6 -7 -6 -6 -8 -8 -7 -6 -7 -8 -8 -8 -8 -8 -8 -8 -8 -8 -8 -7 -7 -7 -7 -7 -7
-10 -10 -10 -10 -10 -10 -10 -11 -11 -10 -10 -10 -10 -10 -9 -9 -7 -7 -7 -7 -7 -7 -8 -8 -8 -7 -7 -7 -8 -9 -8 -8 -8 -7 -8 -8 -8 -7 -8 -8 -7 -7 -7
-9 -10 -10 -9 -10 -10 -10 -11 -11 -11 -11 -10 -10 -10 -9 -10 -10 -9 -9 -8 -7 -7 -8 -8 -8 -8 -8 -7 -7 -8 -9 -8 -8 -8 -8 -7 -7 -7 -7 -7 -7 -7 -7
-11 -10 -10 -11 -10 -10 -10 -11 -11 -11 -10 -10 -10 -10 -10 -9 -9 -10 -9 -9 -9 -8 -8 -8 -8 -8 -9 -7 -6 -7 -8 -9 -8 -8 -7 -7 -7 -6 -7 -6 -7 -7 -7
-11 -10 -10 -10 -10 -10 -10 -10 -10 -10 -10 -10 -10 -9 -9 -10 -10 -9 -10 -9 -9 -9 -8 -8 -8 -8 -8 -8 -7 -7 -7 -8 -8 -8 -7 -7 -7 -6 -6 -6 -6 -6 -6
-10 -11 -10 -10 -10 -10 -10 -10 -10 -10 -10 -10 -10 -9 -10 -10 -10 -10 -10 -10 -9 -8 -10 -8 -7 -8 -8 -8 -7 -7 -7 -7 -7 -7 -7 -7 -7 -7 -7 -7 -6 -6 -5
-11 -10 -10 -10 -10 -10 -10 -10 -10 -10 -10 -10 -10 -10 -10 -10 -10 -10 -10 -10 -9 -8 -7 -8 -8 -8 -8 -7 -7 -7 -8 -8 -7 -7 -7 -7 -7 -6 -7 -7 -6 -5 -5
-11 -11 -10 -10 -10 -10 -10 -9 -10 -10 -10 -10 -10 -10 -10 -10 -9 -10 -10 -10 -9 -9 -8 -8 -8 -8 -7 -7 -7 -8 -7 -7 -7 -7 -7 -7 -7 -7 -7 -7 -6 -6 -6
-11 -11 -11 -10 -10 -10 -9 -9 -10 -10 -10 -10 -10 -10 -10 -10 -10 -10 -10 -9 -9 -9 -8 -8 -8 -8 -7 -7 -7 -7 -7 -7 -7 -7 -7 -8 -8 -7 -7 -7 -7 -7 -6
-12 -11 -11 -11 -10 -10 -10 -10 -10 -9 -9 -9 -10 -9 -10 -10 -10 -11 -10 -10 -9 -9 -8 -8 -8 -8 -7 -7 -7 -6 -7 -7 -8 -8 -8 -8 -7 -7 -7 -7 -7 -6 -7
-12 -12 -11 -10 -10 -10 -11 -10 -9 -9 -9 -9 -9 -9 -10 -10 -10 -10 -10 -10 -10 -9 -9 -9 -9 -9 -8 -8 -9 -8 -8 -8 -8 -8 -8 -8 -7 -7 -8 -8 -7 -7 -7
-12 -12 -11 -11 -11 -10 -11 -10 -10 -10 -10 -10 -10 -10 -10 -10 -11 -11 -11 -11 -10 -9 -9 -9 -9 -9 -9 -9 -9 -8 -8 -8 -8 -9 -9 -9 -9 -8 -8 -8 -8 -8 -8
-12 -12 -12 -13 -13 -12 -12 -11 -11 -13 -13 -11 -11 -12 -12 -12 -12 -11 -11 -11 -11 -12 -9 -10 -10 -10 -10 -10 -9 -9 -9 -10 -9 -9 -10 -9 -9 -9 -9 -9 -9 -9 -9
-12 -12 -12 -12 -12 -12 -12 -11 -11 -12 -11 -12 -12 -12 -13 -12 -11 -11 -11 -11 -11 -11 -11 -10 -10 -10 -9 -10 -10 -10 -10 -10 -9 -10 -10 -10 -10 -10 -9 -9 -9 -9 -9
-12 -12 -12 -13 -13 -12 -12 -12 -11 -11 -11 -11 -11 -11 -11 -11 -11 -11 -11 -11 -11 -11 -11 -11 -10 -10 -10 -10 -10 -10 -10 -10 -10 -10 -10 -10 -10 -9 -9 -9 -9 -9 -9
-13 -13 -13 -13 -13 -13 -12 -12 -11 -11 -11 -11 -11 -11 -11 -11 -11 -11 -11 -11 -11 -11 -11 -11 -11 -11 -10 -11 -10 -11 -11 -10 -10 -10 -10 -10 -10 -10 -10 -10 -10 -10 -10
-14 -14 -15 -14 -13 -13 -12 -12 -12 -12 -11 -12 -12 -12 -12 -12 -12 -12 -12 -11 -11 -11 -11 -11 -11 -11 -11 -11 -11 -11 -11 -11 -10 -10 -10 -10 -10 -11 -11 -10 -10 -10 -11
-14 -14 -14 -13 -13 -13 -12 -12 -12 -12 -12 -12 -12 -12 -12 -12 -12 -12 -12 -11 -11 -11 -11 -11 -11 -11 -11 -11 -11 -11 -11 -11 -11 -11 -11 -11 -11 -11 -11 -11 -11 -11 -11
-14 -13 -13 -13 -13 -13 -13 -13 -13 -13 -13 -13 -13 -13 -13 -12 -12 -13 -13 -12 -12 -12 -12 -12 -12 -12 -12 -12 -12 -12 -12 -11 -12 -12 -12 -12 -12 -12 -12 -12 -12 -11 -12
-14 -14 -13 -13 -14 -14 -14 -14 -13 -13 -13 -13 -13 -13 -13 -13 -13 -13 -13 -13 -13 -13 -13 -13 -13 -13 -12 -12 -12 -12 -12 -12 -12 -12 -12 -12 -12 -12 -12 -12 -12 -12 -12
-14 -14 -14 -14 -14 -14 -14 -14 -14 -14 -14 -14 -14 -14 -14 -14 -14 -14 -14 -13 -13 -13 -13 -13 -13 -13 -13 -13 -13 -13 -13 -13 -13 -12 -12 -12 -12 -12 -12 -12 -12 -12 -12
-15 -14 -14 -14 -14 -14 -14 -14 -14 -14 -13 -14 -14 -14 -14 -14 -14 -14 -14 -14 -14 -14 -13 -13 -13 -13 -13 -13 -13 -12 -13 -13 -13 -13 -13 -13 -13 -13 -13 -13 -13 -13 -13
-15 -14 -14 -14 -14 -14 -14 -14 -14 -14 -14 -14 -14 -14 -14 -14 -14 -14 -14 -14 -14 -14 -14 -14 -13 -13 -13 -13 -13 -14 -14 -14 -14 -14 -14 -14 -14 -14 -14 -14 -14 -14 -14
-15 -14 -15 -15 -15 -15 -15 -15 -15 -14 -15 -15 -14 -15 -15 -15 -14 -15 -15 -15 -15 -15 -15 -14 -14 -14 -14 -14 -14 -15 -15 -15 -15 -15 -15 -15 -14 -15 -15 -15 -15 -15 -15

GFSGL_500_temp_126.txt.gz
Temp
-7 -7 -7 -7 -7 -8 -7 -7 -7 -7 -7 -8 -8 -8 -8 -9 -8 -8 -8 -8 -7 -7 -7 -7 -7 -7 -7 -7 -7 -7 -7 -7 -8 -7 -7 -7 -8 -8 -8 -8 -8 -7 -7
-8 -8 -8 -8 -7 -7 -8 -9 -8 -8 -9 -9 -9 -9 -9 -9 -9 -8 -6 -6 -7 -7 -6 -7 -6 -7 -7 -7 -7 -7 -8 -8 -8 -7 -7 -7 -7 -8 -8 -8 -8 -8 -8
-9 -9 -9 -8 -8 -8 -7 -8 -10 -10 -10 -10 -10 -10 -9 -9 -9 -10 -7 -7 -6 -6 -8 -7 -7 -7 -7 -7 -8 -8 -8 -7 -7 -7 -7 -7 -7 -8 -8 -8 -8 -8 -8
-9 -9 -9 -9 -9 -9 -9 -10 -10 -10 -10 -10 -10 -10 -10 -10 -10 -9 -9 -7 -8 -8 -7 -8 -7 -7 -7 -8 -8 -8 -7 -8 -7 -8 -8 -8 -8 -8 -8 -8 -7 -8 -8
-9 -9 -9 -9 -10 -10 -10 -10 -9 -10 -10 -11 -11 -11 -11 -11 -10 -10 -8 -8 -10 -9 -10 -7 -7 -7 -8 -8 -8 -8 -8 -8 -7 -7 -8 -8 -8 -7 -7 -7 -8 -7 -7
-10 -10 -10 -10 -10 -10 -10 -10 -9 -10 -11 -11 -11 -11 -11 -11 -10 -10 -9 -8 -8 -8 -7 -9 -7 -8 -8 -8 -8 -8 -8 -8 -9 -8 -7 -7 -8 -7 -7 -7 -7 -7 -7
-11 -11 -10 -10 -10 -11 -10 -10 -9 -10 -10 -11 -11 -11 -10 -10 -10 -9 -9 -8 -8 -7 -6 -6 -7 -7 -8 -7 -8 -8 -8 -8 -8 -9 -8 -7 -7 -7 -6 -7 -7 -7 -7
-11 -11 -11 -11 -10 -10 -10 -9 -9 -9 -10 -11 -11 -10 -10 -10 -9 -9 -9 -8 -8 -8 -7 -7 -7 -8 -8 -8 -8 -8 -8 -8 -8 -8 -8 -8 -7 -7 -7 -7 -7 -7 -7
-11 -11 -11 -11 -11 -10 -9 -9 -9 -10 -10 -10 -10 -10 -10 -10 -10 -9 -9 -9 -9 -10 -11 -11 -10 -9 -8 -8 -8 -7 -8 -8 -8 -8 -8 -8 -7 -7 -7 -7 -7 -7 -7
-11 -11 -11 -11 -11 -10 -10 -9 -10 -10 -10 -10 -10 -10 -10 -10 -10 -10 -10 -10 -10 -10 -10 -10 -10 -10 -8 -8 -8 -6 -8 -8 -8 -8 -7 -7 -7 -7 -7 -7 -7 -7 -7
-11 -11 -11 -11 -11 -11 -10 -10 -10 -10 -9 -10 -10 -10 -10 -10 -10 -10 -10 -11 -10 -10 -10 -10 -10 -10 -9 -8 -7 -7 -8 -8 -8 -8 -7 -7 -7 -7 -7 -7 -7 -8 -7
-12 -12 -12 -11 -11 -11 -11 -10 -10 -10 -10 -10 -10 -10 -10 -9 -9 -10 -10 -10 -10 -10 -10 -9 -9 -10 -10 -9 -8 -8 -8 -8 -7 -7 -7 -8 -7 -7 -7 -7 -7 -8 -7
-12 -12 -12 -12 -11 -11 -11 -10 -10 -10 -9 -10 -10 -9 -9 -9 -9 -9 -10 -10 -10 -10 -10 -9 -9 -9 -8 -9 -8 -8 -8 -8 -8 -8 -8 -7 -7 -8 -8 -8 -7 -8 -8
-12 -12 -12 -12 -12 -12 -11 -11 -10 -11 -10 -9 -9 -10 -9 -9 -10 -10 -10 -10 -10 -10 -10 -9 -9 -9 -8 -9 -8 -8 -7 -7 -8 -8 -9 -8 -8 -8 -8 -8 -7 -8 -8
-13 -12 -13 -12 -12 -13 -13 -13 -12 -11 -12 -10 -10 -10 -10 -10 -11 -10 -10 -10 -10 -10 -10 -9 -9 -9 -9 -9 -9 -9 -9 -8 -8 -8 -8 -8 -8 -9 -9 -9 -9 -9 -9
-13 -12 -12 -12 -12 -13 -12 -12 -12 -11 -12 -11 -10 -12 -11 -11 -12 -11 -11 -11 -11 -11 -11 -10 -10 -10 -10 -10 -10 -10 -10 -10 -9 -10 -11 -11 -11 -11 -10 -10 -11 -10 -10
-13 -13 -12 -12 -12 -13 -12 -12 -12 -12 -12 -12 -11 -11 -12 -12 -11 -12 -12 -13 -12 -11 -11 -11 -11 -11 -11 -12 -12 -11 -11 -11 -11 -11 -11 -10 -10 -10 -10 -10 -10 -10 -10
-15 -13 -13 -12 -13 -13 -13 -12 -12 -12 -12 -12 -12 -12 -11 -11 -11 -11 -11 -12 -12 -11 -11 -10 -11 -11 -11 -11 -11 -11 -10 -10 -10 -10 -11 -11 -10 -10 -10 -10 -10 -10 -10
-15 -14 -14 -14 -13 -13 -13 -12 -12 -12 -12 -12 -12 -12 -12 -12 -12 -12 -12 -12 -11 -11 -11 -11 -11 -11 -11 -11 -11 -11 -11 -11 -11 -10 -10 -10 -10 -10 -10 -10 -10 -10 -10
-15 -15 -14 -14 -14 -13 -13 -12 -12 -13 -12 -12 -13 -13 -13 -13 -12 -12 -12 -12 -12 -12 -12 -12 -12 -11 -11 -11 -11 -11 -11 -11 -11 -11 -11 -11 -11 -11 -11 -11 -11 -11 -11
-14 -14 -14 -13 -13 -13 -13 -13 -13 -13 -13 -13 -13 -13 -13 -13 -13 -13 -13 -12 -12 -12 -12 -12 -12 -12 -12 -12 -11 -11 -12 -12 -12 -12 -12 -11 -11 -12 -12 -12 -12 -12 -12
-14 -14 -14 -14 -14 -14 -13 -13 -13 -13 -13 -13 -13 -13 -13 -13 -13 -12 -12 -13 -13 -13 -12 -12 -12 -12 -12 -12 -13 -12 -13 -13 -12 -13 -13 -12 -12 -12 -12 -13 -13 -12 -12
-15 -15 -14 -14 -14 -14 -14 -14 -13 -13 -13 -13 -13 -13 -13 -13 -13 -13 -13 -13 -13 -13 -13 -13 -13 -13 -13 -13 -13 -14 -13 -13 -13 -13 -13 -13 -13 -13 -13 -13 -13 -13 -13
-15 -15 -15 -14 -14 -14 -14 -14 -14 -14 -14 -14 -14 -14 -14 -14 -14 -14 -13 -13 -14 -14 -14 -14 -14 -14 -14 -14 -14 -14 -14 -14 -14 -14 -14 -14 -14 -14 -14 -14 -14 -14 -13
-15 -15 -15 -15 -15 -15 -14 -14 -14 -14 -14 -14 -14 -14 -14 -15 -15 -14 -14 -15 -15 -14 -14 -14 -14 -14 -14 -15 -14 -14 -14 -14 -14 -14 -14 -14 -14 -14 -14 -14 -14 -14 -14
-15 -15 -15 -15 -15 -15 -15 -15 -14 -14 -14 -14 -15 -14 -14 -14 -15 -15 -15 -16 -16 -15 -15 -15 -15 -15 -15 -15 -15 -15 -15 -15 -15 -14 -15 -15 -15 -15 -15 -15 -15 -15 -15

GFSGL_500_temp_129.txt.gz
Temp
-8 -8 -8 -8 -8 -8 -8 -8 -8 -8 -7 -7 -7 -7 -7 -8 -8 -8 -9 -9 -6 -8 -6 -6 -7 -7 -7 -7 -7 -7 -7 -7 -8 -9 -8 -7 -8 -8 -7 -7 -7 -7 -7
-9 -8 -9 -9 -9 -9 -9 -8 -8 -8 -8 -8 -7 -7 -7 -7 -8 -8 -8 -9 -8 -7 -7 -5 -6 -7 -7 -7 -7 -7 -7 -7 -8 -9 -8 -7 -8 -8 -7 -7 -7 -7 -7
-9 -9 -9 -9 -9 -9 -9 -9 -8 -8 -8 -8 -8 -7 -8 -8 -8 -9 -9 -9 -9 -8 -7 -7 -7 -7 -7 -7 -7 -7 -8 -7 -7 -8 -8 -7 -8 -7 -7 -7 -7 -8 -8
-9 -10 -10 -10 -9 -9 -9 -8 -8 -8 -8 -8 -8 -9 -8 -9 -9 -10 -10 -10 -9 -8 -8 -9 -8 -7 -8 -7 -7 -7 -7 -7 -7 -7 -8 -7 -8 -8 -8 -8 -8 -7 -8
-10 -10 -10 -9 -9 -9 -9 -9 -9 -9 -9 -9 -10 -10 -11 -10 -10 -10 -10 -10 -10 -10 -10 -7 -8 -9 -9 -7 -8 -7 -8 -8 -7 -8 -8 -7 -8 -8 -8 -7 -7 -7 -7
-10 -10 -10 -10 -10 -10 -10 -10 -10 -10 -10 -10 -10 -10 -10 -10 -10 -10 -10 -10 -10 -9 -9 -7 -7 -8 -7 -7 -7 -8 -7 -8 -8 -8 -8 -8 -8 -7 -7 -7 -7 -7 -7
-10 -10 -10 -10 -11 -11 -11 -11 -10 -10 -10 -10 -10 -9 -10 -11 -11 -11 -11 -11 -10 -9 -8 -7 -7 -6 -7 -8 -7 -7 -7 -8 -7 -8 -7 -7 -8 -8 -7 -7 -7 -7 -7
-10 -10 -10 -10 -11 -11 -11 -10 -10 -9 -9 -10 -9 -10 -11 -11 -11 -11 -11 -11 -11 -10 -9 -8 -7 -6 -6 -6 -8 -7 -7 -8 -8 -8 -8 -8 -8 -8 -7 -7 -7 -7 -7
-10 -10 -10 -10 -11 -11 -11 -11 -10 -9 -9 -10 -10 -10 -10 -11 -11 -11 -11 -11 -11 -10 -10 -9 -7 -7 -6 -6 -6 -7 -7 -8 -9 -8 -8 -8 -8 -8 -8 -7 -7 -7 -7
-11 -11 -11 -11 -11 -10 -11 -11 -10 -10 -10 -10 -10 -10 -10 -10 -10 -10 -10 -10 -10 -10 -10 -10 -9 -9 -9 -7 -6 -7 -8 -8 -8 -8 -8 -7 -8 -8 -8 -7 -7 -8 -7
-12 -12 -12 -11 -11 -10 -11 -11 -10 -9 -10 -10 -10 -10 -10 -10 -10 -10 -10 -10 -10 -9 -10 -10 -10 -9 -9 -8 -8 -8 -8 -8 -8 -8 -8 -7 -8 -8 -8 -8 -8 -7 -7
-12 -13 -12 -12 -12 -12 -11 -11 -11 -10 -10 -10 -10 -10 -10 -10 -10 -10 -10 -10 -10 -10 -10 -10 -10 -9 -10 -9 -9 -9 -9 -9 -9 -8 -8 -8 -8 -8 -8 -7 -8 -7 -7
-13 -13 -13 -12 -12 -12 -12 -11 -11 -10 -10 -10 -10 -10 -10 -10 -9 -9 -10 -10 -10 -10 -10 -11 -11 -10 -10 -10 -10 -9 -9 -9 -9 -9 -8 -6 -7 -7 -8 -8 -8 -8 -7
-14 -13 -13 -13 -12 -12 -12 -12 -11 -11 -10 -10 -9 -10 -9 -9 -10 -10 -10 -10 -10 -10 -11 -11 -11 -10 -10 -9 -9 -10 -9 -9 -8 -8 -8 -8 -8 -8 -8 -8 -8 -8 -8
-14 -14 -13 -12 -12 -12 -12 -13 -13 -13 -12 -10 -10 -10 -9 -9 -9 -10 -10 -10 -10 -10 -10 -11 -10 -10 -10 -10 -10 -9 -9 -9 -9 -9 -9 -9 -8 -8 -8 -8 -8 -8 -8
-14 -14 -13 -13 -13 -12 -12 -13 -13 -14 -13 -12 -11 -11 -10 -10 -10 -11 -11 -11 -10 -11 -11 -11 -11 -10 -10 -9 -9 -9 -9 -9 -9 -9 -9 -9 -9 -10 -10 -10 -10 -9 -9
-14 -14 -13 -13 -13 -12 -12 -13 -13 -12 -12 -12 -12 -12 -13 -12 -12 -12 -11 -11 -11 -11 -11 -11 -11 -11 -10 -10 -10 -10 -10 -10 -10 -11 -11 -10 -10 -11 -11 -10 -11 -11 -11
-14 -15 -15 -13 -13 -13 -13 -13 -13 -13 -12 -12 -12 -12 -12 -11 -11 -12 -12 -12 -12 -12 -12 -12 -11 -11 -11 -12 -12 -12 -11 -11 -12 -12 -13 -13 -12 -12 -12 -12 -12 -12 -12
-14 -15 -16 -16 -15 -15 -15 -14 -13 -13 -13 -13 -12 -12 -12 -12 -12 -12 -12 -12 -11 -12 -12 -11 -12 -11 -11 -11 -11 -11 -12 -13 -12 -12 -11 -11 -12 -12 -12 -11 -12 -11 -11
-14 -15 -15 -15 -14 -14 -13 -13 -13 -13 -13 -13 -13 -13 -13 -13 -13 -13 -12 -12 -12 -12 -12 -12 -12 -11 -11 -11 -11 -11 -11 -11 -11 -11 -11 -11 -11 -11 -11 -11 -11 -11 -10
-15 -15 -15 -14 -14 -14 -13 -13 -13 -13 -13 -13 -13 -13 -13 -13 -13 -13 -13 -12 -12 -12 -12 -12 -12 -12 -12 -12 -12 -12 -12 -12 -12 -12 -12 -11 -11 -11 -11 -11 -11 -11 -11
-14 -15 -15 -14 -14 -14 -14 -14 -14 -13 -13 -13 -13 -13 -13 -13 -13 -13 -13 -13 -13 -13 -13 -13 -12 -12 -12 -12 -12 -12 -12 -12 -12 -12 -12 -12 -12 -12 -12 -12 -12 -12 -12
-15 -14 -15 -15 -15 -14 -14 -14 -14 -14 -14 -14 -14 -13 -13 -13 -13 -13 -13 -13 -13 -13 -13 -13 -13 -13 -13 -13 -13 -13 -13 -13 -13 -13 -13 -13 -13 -13 -13 -13 -13 -13 -13
-15 -15 -15 -15 -15 -15 -15 -15 -15 -14 -14 -14 -14 -14 -14 -14 -14 -13 -13 -14 -14 -14 -14 -14 -14 -14 -14 -14 -14 -14 -14 -14 -14 -13 -13 -13 -13 -13 -13 -13 -13 -13 -13
-15 -15 -15 -15 -15 -15 -15 -15 -15 -15 -15 -15 -15 -15 -14 -15 -14 -14 -14 -14 -14 -13 -14 -14 -14 -14 -15 -15 -14 -14 -14 -14 -14 -14 -14 -14 -14 -14 -14 -14 -14 -14 -14
-15 -15 -15 -15 -15 -15 -15 -15 -14 -14 -14 -14 -14 -14 -15 -15 -15 -15 -15 -15 -15 -15 -15 -15 -15 -15 -15 -15 -15 -15 -15 -15 -15 -15 -15 -15 -15 -15 -15 -15 -15 -15 -15